<?xml version="1.0" encoding="UTF-8" standalone="no" ?>
<gpx xmlns="http://www.topografix.com/GPX/1/1" xmlns:xsi="http://www.w3.org/2001/XMLSchema-instance" xsi:schemaLocation="http://www.topografix.com/GPX/1/1 http://www.topografix.com/GPX/1/1/gpx.xsd" version="1.1" creator="VisuGPX - https://www.visugpx.com">
  <metadata>
    <name>La raviscole</name>
    <desc><![CDATA[ et le barrage du Clozel]]></desc>
  </metadata>
  <trk>
    <name><![CDATA[La raviscole et Barage du Clozel]]></name>
    <trkseg>
      <trkpt lat="45.11572" lon="4.96429">
        <ele>206.19400024414</ele>
        <time>2010-04-10T11:16:55Z</time>
      </trkpt>
      <trkpt lat="45.11572" lon="4.96429">
        <ele>206.19400024414</ele>
        <time>2010-04-10T11:16:56Z</time>
      </trkpt>
      <trkpt lat="45.11561" lon="4.96431">
        <ele>205.99699401856</ele>
        <time>2010-04-10T11:17:12Z</time>
      </trkpt>
      <trkpt lat="45.1156" lon="4.9644">
        <ele>204.94900512695</ele>
        <time>2010-04-10T11:17:15Z</time>
      </trkpt>
      <trkpt lat="45.11568" lon="4.96455">
        <ele>205.13600158691</ele>
        <time>2010-04-10T11:17:20Z</time>
      </trkpt>
      <trkpt lat="45.11575" lon="4.96453">
        <ele>205.26499938965</ele>
        <time>2010-04-10T11:17:23Z</time>
      </trkpt>
      <trkpt lat="45.11577" lon="4.96453">
        <ele>205.47599792481</ele>
        <time>2010-04-10T11:17:27Z</time>
      </trkpt>
      <trkpt lat="45.11581" lon="4.96459">
        <ele>205.38800048828</ele>
        <time>2010-04-10T11:17:30Z</time>
      </trkpt>
      <trkpt lat="45.11583" lon="4.96482">
        <ele>204.52900695801</ele>
        <time>2010-04-10T11:17:35Z</time>
      </trkpt>
      <trkpt lat="45.11582" lon="4.96509">
        <ele>203.02499389648</ele>
        <time>2010-04-10T11:17:41Z</time>
      </trkpt>
      <trkpt lat="45.11594" lon="4.96542">
        <ele>202.36199951172</ele>
        <time>2010-04-10T11:17:46Z</time>
      </trkpt>
      <trkpt lat="45.11597" lon="4.96549">
        <ele>202.00799560547</ele>
        <time>2010-04-10T11:17:47Z</time>
      </trkpt>
      <trkpt lat="45.11616" lon="4.96601">
        <ele>202.05499267578</ele>
        <time>2010-04-10T11:17:54Z</time>
      </trkpt>
      <trkpt lat="45.11634" lon="4.96647">
        <ele>202.18499755859</ele>
        <time>2010-04-10T11:18:00Z</time>
      </trkpt>
      <trkpt lat="45.11663" lon="4.96722">
        <ele>203.46299743652</ele>
        <time>2010-04-10T11:18:10Z</time>
      </trkpt>
      <trkpt lat="45.11695" lon="4.96782">
        <ele>204.25700378418</ele>
        <time>2010-04-10T11:18:19Z</time>
      </trkpt>
      <trkpt lat="45.11725" lon="4.96831">
        <ele>203.94500732422</ele>
        <time>2010-04-10T11:18:27Z</time>
      </trkpt>
      <trkpt lat="45.11737" lon="4.96868">
        <ele>204.61199951172</ele>
        <time>2010-04-10T11:18:32Z</time>
      </trkpt>
      <trkpt lat="45.11751" lon="4.96882">
        <ele>204.71200561523</ele>
        <time>2010-04-10T11:18:35Z</time>
      </trkpt>
      <trkpt lat="45.11765" lon="4.96896">
        <ele>204.79600524902</ele>
        <time>2010-04-10T11:18:38Z</time>
      </trkpt>
      <trkpt lat="45.11825" lon="4.96988">
        <ele>205.03500366211</ele>
        <time>2010-04-10T11:18:53Z</time>
      </trkpt>
      <trkpt lat="45.11868" lon="4.97045">
        <ele>205.32400512695</ele>
        <time>2010-04-10T11:19:03Z</time>
      </trkpt>
      <trkpt lat="45.11872" lon="4.97051">
        <ele>206.04800415039</ele>
        <time>2010-04-10T11:19:04Z</time>
      </trkpt>
      <trkpt lat="45.11881" lon="4.97081">
        <ele>205.55400085449</ele>
        <time>2010-04-10T11:19:08Z</time>
      </trkpt>
      <trkpt lat="45.11876" lon="4.97125">
        <ele>204.8809967041</ele>
        <time>2010-04-10T11:19:13Z</time>
      </trkpt>
      <trkpt lat="45.11876" lon="4.97165">
        <ele>203.51899719238</ele>
        <time>2010-04-10T11:19:17Z</time>
      </trkpt>
      <trkpt lat="45.11896" lon="4.97283">
        <ele>203.89300537109</ele>
        <time>2010-04-10T11:19:29Z</time>
      </trkpt>
      <trkpt lat="45.11912" lon="4.97374">
        <ele>203.43499755859</ele>
        <time>2010-04-10T11:19:38Z</time>
      </trkpt>
      <trkpt lat="45.11924" lon="4.97449">
        <ele>203.68299865723</ele>
        <time>2010-04-10T11:19:46Z</time>
      </trkpt>
      <trkpt lat="45.11935" lon="4.97509">
        <ele>204.52600097656</ele>
        <time>2010-04-10T11:19:53Z</time>
      </trkpt>
      <trkpt lat="45.11946" lon="4.97574">
        <ele>205.2140045166</ele>
        <time>2010-04-10T11:20:01Z</time>
      </trkpt>
      <trkpt lat="45.11951" lon="4.97616">
        <ele>206.32099914551</ele>
        <time>2010-04-10T11:20:06Z</time>
      </trkpt>
      <trkpt lat="45.11956" lon="4.97633">
        <ele>206.25300598144</ele>
        <time>2010-04-10T11:20:08Z</time>
      </trkpt>
      <trkpt lat="45.11974" lon="4.9774">
        <ele>205.98599243164</ele>
        <time>2010-04-10T11:20:20Z</time>
      </trkpt>
      <trkpt lat="45.11988" lon="4.97819">
        <ele>205.69400024414</ele>
        <time>2010-04-10T11:20:29Z</time>
      </trkpt>
      <trkpt lat="45.11996" lon="4.97862">
        <ele>207.90899658203</ele>
        <time>2010-04-10T11:20:34Z</time>
      </trkpt>
      <trkpt lat="45.12014" lon="4.97954">
        <ele>208.1549987793</ele>
        <time>2010-04-10T11:20:44Z</time>
      </trkpt>
      <trkpt lat="45.12036" lon="4.98033">
        <ele>209.2440032959</ele>
        <time>2010-04-10T11:20:53Z</time>
      </trkpt>
      <trkpt lat="45.12056" lon="4.98113">
        <ele>209.33700561523</ele>
        <time>2010-04-10T11:21:02Z</time>
      </trkpt>
      <trkpt lat="45.12067" lon="4.98195">
        <ele>210.39199829102</ele>
        <time>2010-04-10T11:21:11Z</time>
      </trkpt>
      <trkpt lat="45.12066" lon="4.98271">
        <ele>210.57899475098</ele>
        <time>2010-04-10T11:21:19Z</time>
      </trkpt>
      <trkpt lat="45.12054" lon="4.98346">
        <ele>211.8690032959</ele>
        <time>2010-04-10T11:21:27Z</time>
      </trkpt>
      <trkpt lat="45.12043" lon="4.98387">
        <ele>212.77299499512</ele>
        <time>2010-04-10T11:21:32Z</time>
      </trkpt>
      <trkpt lat="45.12023" lon="4.98403">
        <ele>212.7140045166</ele>
        <time>2010-04-10T11:21:36Z</time>
      </trkpt>
      <trkpt lat="45.12008" lon="4.98396">
        <ele>211.47799682617</ele>
        <time>2010-04-10T11:21:38Z</time>
      </trkpt>
      <trkpt lat="45.11993" lon="4.98391">
        <ele>211.35000610352</ele>
        <time>2010-04-10T11:21:40Z</time>
      </trkpt>
      <trkpt lat="45.11972" lon="4.98402">
        <ele>211.01100158691</ele>
        <time>2010-04-10T11:21:43Z</time>
      </trkpt>
      <trkpt lat="45.11961" lon="4.98427">
        <ele>210.67799377441</ele>
        <time>2010-04-10T11:21:46Z</time>
      </trkpt>
      <trkpt lat="45.11966" lon="4.98441">
        <ele>211.16799926758</ele>
        <time>2010-04-10T11:21:48Z</time>
      </trkpt>
      <trkpt lat="45.11971" lon="4.98445">
        <ele>212.10299682617</ele>
        <time>2010-04-10T11:21:50Z</time>
      </trkpt>
      <trkpt lat="45.11972" lon="4.98445">
        <ele>212.25</ele>
        <time>2010-04-10T11:21:51Z</time>
      </trkpt>
      <trkpt lat="45.11972" lon="4.98445">
        <ele>212.07699584961</ele>
        <time>2010-04-10T11:21:52Z</time>
      </trkpt>
      <trkpt lat="45.11975" lon="4.98445">
        <ele>211.9880065918</ele>
        <time>2010-04-10T11:25:42Z</time>
      </trkpt>
      <trkpt lat="45.11975" lon="4.98444">
        <ele>211.87100219727</ele>
        <time>2010-04-10T11:25:47Z</time>
      </trkpt>
      <trkpt lat="45.11975" lon="4.98446">
        <ele>211.19200134277</ele>
        <time>2010-04-10T11:27:56Z</time>
      </trkpt>
      <trkpt lat="45.11975" lon="4.98445">
        <ele>211.42900085449</ele>
        <time>2010-04-10T11:28:00Z</time>
      </trkpt>
      <trkpt lat="45.11976" lon="4.98447">
        <ele>211.28999328613</ele>
        <time>2010-04-10T11:29:28Z</time>
      </trkpt>
      <trkpt lat="45.11975" lon="4.98449">
        <ele>211.20599365234</ele>
        <time>2010-04-10T11:29:53Z</time>
      </trkpt>
      <trkpt lat="45.11974" lon="4.98449">
        <ele>211.25399780273</ele>
        <time>2010-04-10T11:29:59Z</time>
      </trkpt>
      <trkpt lat="45.11974" lon="4.98449">
        <ele>211.10200500488</ele>
        <time>2010-04-10T11:30:01Z</time>
      </trkpt>
      <trkpt lat="45.11974" lon="4.98445">
        <ele>210.56500244141</ele>
        <time>2010-04-10T11:35:56Z</time>
      </trkpt>
      <trkpt lat="45.11974" lon="4.98441">
        <ele>209.74299621582</ele>
        <time>2010-04-10T11:39:25Z</time>
      </trkpt>
      <trkpt lat="45.11977" lon="4.98438">
        <ele>209.32499694824</ele>
        <time>2010-04-10T11:39:27Z</time>
      </trkpt>
      <trkpt lat="45.11981" lon="4.98426">
        <ele>209.54499816894</ele>
        <time>2010-04-10T11:39:32Z</time>
      </trkpt>
      <trkpt lat="45.11981" lon="4.98415">
        <ele>209.66400146484</ele>
        <time>2010-04-10T11:39:36Z</time>
      </trkpt>
      <trkpt lat="45.11982" lon="4.98398">
        <ele>209.86799621582</ele>
        <time>2010-04-10T11:39:40Z</time>
      </trkpt>
      <trkpt lat="45.11993" lon="4.98392">
        <ele>208.31100463867</ele>
        <time>2010-04-10T11:39:44Z</time>
      </trkpt>
      <trkpt lat="45.11996" lon="4.98393">
        <ele>207.9700012207</ele>
        <time>2010-04-10T11:39:45Z</time>
      </trkpt>
      <trkpt lat="45.12024" lon="4.98407">
        <ele>210.13499450684</ele>
        <time>2010-04-10T11:39:54Z</time>
      </trkpt>
      <trkpt lat="45.12031" lon="4.98416">
        <ele>210.84800720215</ele>
        <time>2010-04-10T11:39:57Z</time>
      </trkpt>
      <trkpt lat="45.12033" lon="4.9842">
        <ele>210.98199462891</ele>
        <time>2010-04-10T11:39:58Z</time>
      </trkpt>
      <trkpt lat="45.12034" lon="4.98425">
        <ele>210.87399291992</ele>
        <time>2010-04-10T11:39:59Z</time>
      </trkpt>
      <trkpt lat="45.1204" lon="4.98431">
        <ele>210.7380065918</ele>
        <time>2010-04-10T11:40:01Z</time>
      </trkpt>
      <trkpt lat="45.12047" lon="4.98431">
        <ele>210.94900512695</ele>
        <time>2010-04-10T11:40:03Z</time>
      </trkpt>
      <trkpt lat="45.12051" lon="4.98428">
        <ele>210.64199829102</ele>
        <time>2010-04-10T11:40:04Z</time>
      </trkpt>
      <trkpt lat="45.12056" lon="4.98405">
        <ele>211.06399536133</ele>
        <time>2010-04-10T11:40:08Z</time>
      </trkpt>
      <trkpt lat="45.12054" lon="4.98384">
        <ele>211.07299804688</ele>
        <time>2010-04-10T11:40:11Z</time>
      </trkpt>
      <trkpt lat="45.12054" lon="4.98377">
        <ele>210.61500549316</ele>
        <time>2010-04-10T11:40:12Z</time>
      </trkpt>
      <trkpt lat="45.12059" lon="4.98356">
        <ele>210.45100402832</ele>
        <time>2010-04-10T11:40:15Z</time>
      </trkpt>
      <trkpt lat="45.12069" lon="4.98293">
        <ele>208.54699707031</ele>
        <time>2010-04-10T11:40:23Z</time>
      </trkpt>
      <trkpt lat="45.12075" lon="4.98233">
        <ele>208.55299377441</ele>
        <time>2010-04-10T11:40:31Z</time>
      </trkpt>
      <trkpt lat="45.12073" lon="4.98168">
        <ele>209.02900695801</ele>
        <time>2010-04-10T11:40:39Z</time>
      </trkpt>
      <trkpt lat="45.12066" lon="4.98115">
        <ele>208.07499694824</ele>
        <time>2010-04-10T11:40:45Z</time>
      </trkpt>
      <trkpt lat="45.12048" lon="4.98041">
        <ele>207.27099609375</ele>
        <time>2010-04-10T11:40:53Z</time>
      </trkpt>
      <trkpt lat="45.12025" lon="4.97958">
        <ele>206.20199584961</ele>
        <time>2010-04-10T11:41:02Z</time>
      </trkpt>
      <trkpt lat="45.12011" lon="4.97893">
        <ele>205.78700256348</ele>
        <time>2010-04-10T11:41:09Z</time>
      </trkpt>
      <trkpt lat="45.12004" lon="4.97855">
        <ele>204.93099975586</ele>
        <time>2010-04-10T11:41:13Z</time>
      </trkpt>
      <trkpt lat="45.12001" lon="4.97836">
        <ele>204.9109954834</ele>
        <time>2010-04-10T11:41:15Z</time>
      </trkpt>
      <trkpt lat="45.1198" lon="4.97713">
        <ele>203.80200195312</ele>
        <time>2010-04-10T11:41:28Z</time>
      </trkpt>
      <trkpt lat="45.11962" lon="4.97611">
        <ele>204.13200378418</ele>
        <time>2010-04-10T11:41:39Z</time>
      </trkpt>
      <trkpt lat="45.11956" lon="4.97574">
        <ele>204.08299255371</ele>
        <time>2010-04-10T11:41:43Z</time>
      </trkpt>
      <trkpt lat="45.11954" lon="4.97565">
        <ele>204.2380065918</ele>
        <time>2010-04-10T11:41:44Z</time>
      </trkpt>
      <trkpt lat="45.11933" lon="4.97446">
        <ele>202.37100219727</ele>
        <time>2010-04-10T11:41:56Z</time>
      </trkpt>
      <trkpt lat="45.11913" lon="4.97328">
        <ele>201.70599365234</ele>
        <time>2010-04-10T11:42:08Z</time>
      </trkpt>
      <trkpt lat="45.11905" lon="4.97279">
        <ele>201.78700256348</ele>
        <time>2010-04-10T11:42:13Z</time>
      </trkpt>
      <trkpt lat="45.11889" lon="4.97188">
        <ele>202.32899475098</ele>
        <time>2010-04-10T11:42:23Z</time>
      </trkpt>
      <trkpt lat="45.11883" lon="4.97154">
        <ele>202.99299621582</ele>
        <time>2010-04-10T11:42:27Z</time>
      </trkpt>
      <trkpt lat="45.11884" lon="4.97128">
        <ele>202.66999816894</ele>
        <time>2010-04-10T11:42:30Z</time>
      </trkpt>
      <trkpt lat="45.11893" lon="4.97099">
        <ele>204.32299804688</ele>
        <time>2010-04-10T11:42:34Z</time>
      </trkpt>
      <trkpt lat="45.11905" lon="4.97068">
        <ele>204.75900268555</ele>
        <time>2010-04-10T11:42:39Z</time>
      </trkpt>
      <trkpt lat="45.11892" lon="4.97052">
        <ele>204.44500732422</ele>
        <time>2010-04-10T11:42:42Z</time>
      </trkpt>
      <trkpt lat="45.11882" lon="4.97044">
        <ele>204.71800231934</ele>
        <time>2010-04-10T11:42:44Z</time>
      </trkpt>
      <trkpt lat="45.11839" lon="4.9699">
        <ele>204.37399291992</ele>
        <time>2010-04-10T11:42:53Z</time>
      </trkpt>
      <trkpt lat="45.11826" lon="4.9697">
        <ele>203.72500610352</ele>
        <time>2010-04-10T11:42:56Z</time>
      </trkpt>
      <trkpt lat="45.11821" lon="4.96963">
        <ele>203.85099792481</ele>
        <time>2010-04-10T11:42:57Z</time>
      </trkpt>
      <trkpt lat="45.11816" lon="4.96956">
        <ele>203.94500732422</ele>
        <time>2010-04-10T11:42:58Z</time>
      </trkpt>
      <trkpt lat="45.11774" lon="4.96888">
        <ele>203.93499755859</ele>
        <time>2010-04-10T11:43:08Z</time>
      </trkpt>
      <trkpt lat="45.1177" lon="4.96881">
        <ele>203.88400268555</ele>
        <time>2010-04-10T11:43:09Z</time>
      </trkpt>
      <trkpt lat="45.11767" lon="4.96849">
        <ele>203.46699523926</ele>
        <time>2010-04-10T11:43:13Z</time>
      </trkpt>
      <trkpt lat="45.11761" lon="4.96826">
        <ele>204.16499328613</ele>
        <time>2010-04-10T11:43:16Z</time>
      </trkpt>
      <trkpt lat="45.11757" lon="4.96802">
        <ele>203.40600585938</ele>
        <time>2010-04-10T11:43:19Z</time>
      </trkpt>
      <trkpt lat="45.11768" lon="4.96786">
        <ele>203.39900207519</ele>
        <time>2010-04-10T11:43:22Z</time>
      </trkpt>
      <trkpt lat="45.11778" lon="4.9678">
        <ele>203.08700561523</ele>
        <time>2010-04-10T11:43:24Z</time>
      </trkpt>
      <trkpt lat="45.11804" lon="4.96764">
        <ele>204.2859954834</ele>
        <time>2010-04-10T11:43:29Z</time>
      </trkpt>
      <trkpt lat="45.11809" lon="4.96759">
        <ele>204.39500427246</ele>
        <time>2010-04-10T11:43:30Z</time>
      </trkpt>
      <trkpt lat="45.11831" lon="4.96724">
        <ele>205.02699279785</ele>
        <time>2010-04-10T11:43:36Z</time>
      </trkpt>
      <trkpt lat="45.11834" lon="4.96718">
        <ele>205.18299865723</ele>
        <time>2010-04-10T11:43:37Z</time>
      </trkpt>
      <trkpt lat="45.11837" lon="4.96711">
        <ele>205.19700622559</ele>
        <time>2010-04-10T11:43:38Z</time>
      </trkpt>
      <trkpt lat="45.11856" lon="4.96659">
        <ele>206.02499389648</ele>
        <time>2010-04-10T11:43:46Z</time>
      </trkpt>
      <trkpt lat="45.11866" lon="4.96625">
        <ele>207.03199768066</ele>
        <time>2010-04-10T11:43:51Z</time>
      </trkpt>
      <trkpt lat="45.11874" lon="4.96598">
        <ele>208.25700378418</ele>
        <time>2010-04-10T11:43:55Z</time>
      </trkpt>
      <trkpt lat="45.11883" lon="4.96538">
        <ele>207.80000305176</ele>
        <time>2010-04-10T11:44:03Z</time>
      </trkpt>
      <trkpt lat="45.11886" lon="4.96523">
        <ele>208.13999938965</ele>
        <time>2010-04-10T11:44:05Z</time>
      </trkpt>
      <trkpt lat="45.11885" lon="4.96476">
        <ele>208.53500366211</ele>
        <time>2010-04-10T11:44:11Z</time>
      </trkpt>
      <trkpt lat="45.11877" lon="4.96455">
        <ele>209.74099731445</ele>
        <time>2010-04-10T11:44:14Z</time>
      </trkpt>
      <trkpt lat="45.11852" lon="4.96411">
        <ele>211.63400268555</ele>
        <time>2010-04-10T11:44:22Z</time>
      </trkpt>
      <trkpt lat="45.11845" lon="4.96394">
        <ele>212.51300048828</ele>
        <time>2010-04-10T11:44:25Z</time>
      </trkpt>
      <trkpt lat="45.11838" lon="4.96347">
        <ele>214.36399841309</ele>
        <time>2010-04-10T11:44:34Z</time>
      </trkpt>
      <trkpt lat="45.11834" lon="4.96318">
        <ele>216.32299804688</ele>
        <time>2010-04-10T11:44:40Z</time>
      </trkpt>
      <trkpt lat="45.11826" lon="4.96281">
        <ele>218.21000671387</ele>
        <time>2010-04-10T11:44:48Z</time>
      </trkpt>
      <trkpt lat="45.11816" lon="4.96252">
        <ele>219.3450012207</ele>
        <time>2010-04-10T11:44:54Z</time>
      </trkpt>
      <trkpt lat="45.11812" lon="4.96212">
        <ele>221.35200500488</ele>
        <time>2010-04-10T11:45:02Z</time>
      </trkpt>
      <trkpt lat="45.11809" lon="4.96183">
        <ele>222.74600219727</ele>
        <time>2010-04-10T11:45:08Z</time>
      </trkpt>
      <trkpt lat="45.11809" lon="4.96159">
        <ele>223.37899780273</ele>
        <time>2010-04-10T11:45:13Z</time>
      </trkpt>
      <trkpt lat="45.11806" lon="4.9613">
        <ele>224.8869934082</ele>
        <time>2010-04-10T11:45:19Z</time>
      </trkpt>
      <trkpt lat="45.11805" lon="4.96121">
        <ele>225.37399291992</ele>
        <time>2010-04-10T11:45:21Z</time>
      </trkpt>
      <trkpt lat="45.11805" lon="4.96116">
        <ele>225.72500610352</ele>
        <time>2010-04-10T11:45:22Z</time>
      </trkpt>
      <trkpt lat="45.11805" lon="4.96111">
        <ele>226.00900268555</ele>
        <time>2010-04-10T11:45:23Z</time>
      </trkpt>
      <trkpt lat="45.11804" lon="4.96107">
        <ele>226.13800048828</ele>
        <time>2010-04-10T11:45:24Z</time>
      </trkpt>
      <trkpt lat="45.118" lon="4.9607">
        <ele>227.87399291992</ele>
        <time>2010-04-10T11:45:32Z</time>
      </trkpt>
      <trkpt lat="45.11794" lon="4.96036">
        <ele>228.97700500488</ele>
        <time>2010-04-10T11:45:39Z</time>
      </trkpt>
      <trkpt lat="45.11789" lon="4.95998">
        <ele>231.03300476074</ele>
        <time>2010-04-10T11:45:47Z</time>
      </trkpt>
      <trkpt lat="45.11781" lon="4.95956">
        <ele>233.28700256348</ele>
        <time>2010-04-10T11:45:56Z</time>
      </trkpt>
      <trkpt lat="45.11772" lon="4.95909">
        <ele>235.59800720215</ele>
        <time>2010-04-10T11:46:06Z</time>
      </trkpt>
      <trkpt lat="45.11765" lon="4.95876">
        <ele>237.20799255371</ele>
        <time>2010-04-10T11:46:13Z</time>
      </trkpt>
      <trkpt lat="45.11757" lon="4.95842">
        <ele>238.10099792481</ele>
        <time>2010-04-10T11:46:20Z</time>
      </trkpt>
      <trkpt lat="45.11747" lon="4.95801">
        <ele>239.10099792481</ele>
        <time>2010-04-10T11:46:28Z</time>
      </trkpt>
      <trkpt lat="45.11744" lon="4.95787">
        <ele>238.66600036621</ele>
        <time>2010-04-10T11:46:31Z</time>
      </trkpt>
      <trkpt lat="45.11744" lon="4.95778">
        <ele>238.55900573731</ele>
        <time>2010-04-10T11:46:33Z</time>
      </trkpt>
      <trkpt lat="45.11744" lon="4.95773">
        <ele>238.39700317383</ele>
        <time>2010-04-10T11:46:34Z</time>
      </trkpt>
      <trkpt lat="45.11743" lon="4.95767">
        <ele>238.30299377441</ele>
        <time>2010-04-10T11:46:35Z</time>
      </trkpt>
      <trkpt lat="45.11744" lon="4.95741">
        <ele>236.67199707031</ele>
        <time>2010-04-10T11:46:39Z</time>
      </trkpt>
      <trkpt lat="45.11744" lon="4.95734">
        <ele>236.4109954834</ele>
        <time>2010-04-10T11:46:40Z</time>
      </trkpt>
      <trkpt lat="45.11745" lon="4.95688">
        <ele>233.45199584961</ele>
        <time>2010-04-10T11:46:45Z</time>
      </trkpt>
      <trkpt lat="45.11747" lon="4.95668">
        <ele>232.50999450684</ele>
        <time>2010-04-10T11:46:47Z</time>
      </trkpt>
      <trkpt lat="45.11747" lon="4.95657">
        <ele>231.69200134277</ele>
        <time>2010-04-10T11:46:48Z</time>
      </trkpt>
      <trkpt lat="45.11763" lon="4.95631">
        <ele>228.95899963379</ele>
        <time>2010-04-10T11:46:51Z</time>
      </trkpt>
      <trkpt lat="45.11771" lon="4.95626">
        <ele>228.66600036621</ele>
        <time>2010-04-10T11:46:52Z</time>
      </trkpt>
      <trkpt lat="45.11787" lon="4.95621">
        <ele>228.01699829102</ele>
        <time>2010-04-10T11:46:54Z</time>
      </trkpt>
      <trkpt lat="45.11805" lon="4.95606">
        <ele>226.86500549316</ele>
        <time>2010-04-10T11:46:58Z</time>
      </trkpt>
      <trkpt lat="45.11805" lon="4.95586">
        <ele>225.61599731445</ele>
        <time>2010-04-10T11:47:00Z</time>
      </trkpt>
      <trkpt lat="45.11806" lon="4.95539">
        <ele>220.77099609375</ele>
        <time>2010-04-10T11:47:04Z</time>
      </trkpt>
      <trkpt lat="45.11813" lon="4.95529">
        <ele>219.32499694824</ele>
        <time>2010-04-10T11:47:05Z</time>
      </trkpt>
      <trkpt lat="45.11833" lon="4.95482">
        <ele>218.27900695801</ele>
        <time>2010-04-10T11:47:09Z</time>
      </trkpt>
      <trkpt lat="45.11828" lon="4.95455">
        <ele>219.39399719238</ele>
        <time>2010-04-10T11:47:11Z</time>
      </trkpt>
      <trkpt lat="45.11822" lon="4.95446">
        <ele>219.57400512695</ele>
        <time>2010-04-10T11:47:12Z</time>
      </trkpt>
      <trkpt lat="45.11808" lon="4.95435">
        <ele>220.98199462891</ele>
        <time>2010-04-10T11:47:14Z</time>
      </trkpt>
      <trkpt lat="45.11782" lon="4.95425">
        <ele>223.12600708008</ele>
        <time>2010-04-10T11:47:19Z</time>
      </trkpt>
      <trkpt lat="45.11779" lon="4.95425">
        <ele>223.34199523926</ele>
        <time>2010-04-10T11:47:20Z</time>
      </trkpt>
      <trkpt lat="45.11766" lon="4.95424">
        <ele>224.66400146484</ele>
        <time>2010-04-10T11:47:24Z</time>
      </trkpt>
      <trkpt lat="45.11762" lon="4.95423">
        <ele>225.00999450684</ele>
        <time>2010-04-10T11:47:25Z</time>
      </trkpt>
      <trkpt lat="45.11739" lon="4.95414">
        <ele>227.10800170898</ele>
        <time>2010-04-10T11:47:32Z</time>
      </trkpt>
      <trkpt lat="45.11722" lon="4.95395">
        <ele>228.88600158691</ele>
        <time>2010-04-10T11:47:38Z</time>
      </trkpt>
      <trkpt lat="45.11719" lon="4.95386">
        <ele>229.31700134277</ele>
        <time>2010-04-10T11:47:40Z</time>
      </trkpt>
      <trkpt lat="45.11716" lon="4.95371">
        <ele>229.89199829102</ele>
        <time>2010-04-10T11:47:43Z</time>
      </trkpt>
      <trkpt lat="45.11716" lon="4.95366">
        <ele>230.09199523926</ele>
        <time>2010-04-10T11:47:44Z</time>
      </trkpt>
      <trkpt lat="45.1172" lon="4.95336">
        <ele>232.0890045166</ele>
        <time>2010-04-10T11:47:50Z</time>
      </trkpt>
      <trkpt lat="45.11724" lon="4.95302">
        <ele>233.32400512695</ele>
        <time>2010-04-10T11:47:57Z</time>
      </trkpt>
      <trkpt lat="45.11721" lon="4.9528">
        <ele>234.55400085449</ele>
        <time>2010-04-10T11:48:02Z</time>
      </trkpt>
      <trkpt lat="45.11709" lon="4.95251">
        <ele>235.66000366211</ele>
        <time>2010-04-10T11:48:09Z</time>
      </trkpt>
      <trkpt lat="45.11704" lon="4.95238">
        <ele>235.69200134277</ele>
        <time>2010-04-10T11:48:12Z</time>
      </trkpt>
      <trkpt lat="45.11692" lon="4.952">
        <ele>237.39199829102</ele>
        <time>2010-04-10T11:48:20Z</time>
      </trkpt>
      <trkpt lat="45.11683" lon="4.95168">
        <ele>237.44200134277</ele>
        <time>2010-04-10T11:48:27Z</time>
      </trkpt>
      <trkpt lat="45.1167" lon="4.95122">
        <ele>238.23300170898</ele>
        <time>2010-04-10T11:48:36Z</time>
      </trkpt>
      <trkpt lat="45.11657" lon="4.95083">
        <ele>239.28300476074</ele>
        <time>2010-04-10T11:48:44Z</time>
      </trkpt>
      <trkpt lat="45.11636" lon="4.95036">
        <ele>239.79499816894</ele>
        <time>2010-04-10T11:48:54Z</time>
      </trkpt>
      <trkpt lat="45.11615" lon="4.94994">
        <ele>241.05400085449</ele>
        <time>2010-04-10T11:49:03Z</time>
      </trkpt>
      <trkpt lat="45.11599" lon="4.94955">
        <ele>240.84100341797</ele>
        <time>2010-04-10T11:49:11Z</time>
      </trkpt>
      <trkpt lat="45.11592" lon="4.94934">
        <ele>241.35899353027</ele>
        <time>2010-04-10T11:49:15Z</time>
      </trkpt>
      <trkpt lat="45.11583" lon="4.94897">
        <ele>241.07800292969</ele>
        <time>2010-04-10T11:49:21Z</time>
      </trkpt>
      <trkpt lat="45.11574" lon="4.9485">
        <ele>239.84599304199</ele>
        <time>2010-04-10T11:49:28Z</time>
      </trkpt>
      <trkpt lat="45.11568" lon="4.94818">
        <ele>238.71800231934</ele>
        <time>2010-04-10T11:49:32Z</time>
      </trkpt>
      <trkpt lat="45.11562" lon="4.94765">
        <ele>237.43800354004</ele>
        <time>2010-04-10T11:49:38Z</time>
      </trkpt>
      <trkpt lat="45.11558" lon="4.9471">
        <ele>235.91799926758</ele>
        <time>2010-04-10T11:49:44Z</time>
      </trkpt>
      <trkpt lat="45.11559" lon="4.94675">
        <ele>235.75799560547</ele>
        <time>2010-04-10T11:49:48Z</time>
      </trkpt>
      <trkpt lat="45.11559" lon="4.94636">
        <ele>236.46800231934</ele>
        <time>2010-04-10T11:49:53Z</time>
      </trkpt>
      <trkpt lat="45.11559" lon="4.94612">
        <ele>235.54600524902</ele>
        <time>2010-04-10T11:49:57Z</time>
      </trkpt>
      <trkpt lat="45.11562" lon="4.94557">
        <ele>234.72599792481</ele>
        <time>2010-04-10T11:50:06Z</time>
      </trkpt>
      <trkpt lat="45.11563" lon="4.94545">
        <ele>234.57099914551</ele>
        <time>2010-04-10T11:50:08Z</time>
      </trkpt>
      <trkpt lat="45.11568" lon="4.94528">
        <ele>234.53700256348</ele>
        <time>2010-04-10T11:50:11Z</time>
      </trkpt>
      <trkpt lat="45.11573" lon="4.94516">
        <ele>233.83799743652</ele>
        <time>2010-04-10T11:50:13Z</time>
      </trkpt>
      <trkpt lat="45.11596" lon="4.94485">
        <ele>231.52200317383</ele>
        <time>2010-04-10T11:50:18Z</time>
      </trkpt>
      <trkpt lat="45.11607" lon="4.94471">
        <ele>230.2559967041</ele>
        <time>2010-04-10T11:50:20Z</time>
      </trkpt>
      <trkpt lat="45.11633" lon="4.94452">
        <ele>228.4880065918</ele>
        <time>2010-04-10T11:50:24Z</time>
      </trkpt>
      <trkpt lat="45.11665" lon="4.94435">
        <ele>225.125</ele>
        <time>2010-04-10T11:50:29Z</time>
      </trkpt>
      <trkpt lat="45.1169" lon="4.94428">
        <ele>224.17100524902</ele>
        <time>2010-04-10T11:50:33Z</time>
      </trkpt>
      <trkpt lat="45.11702" lon="4.94427">
        <ele>223.75</ele>
        <time>2010-04-10T11:50:35Z</time>
      </trkpt>
      <trkpt lat="45.11721" lon="4.94421">
        <ele>222.0950012207</ele>
        <time>2010-04-10T11:50:38Z</time>
      </trkpt>
      <trkpt lat="45.11757" lon="4.94385">
        <ele>219.66600036621</ele>
        <time>2010-04-10T11:50:44Z</time>
      </trkpt>
      <trkpt lat="45.11762" lon="4.94377">
        <ele>219.93299865723</ele>
        <time>2010-04-10T11:50:45Z</time>
      </trkpt>
      <trkpt lat="45.11784" lon="4.94333">
        <ele>220.15600585938</ele>
        <time>2010-04-10T11:50:50Z</time>
      </trkpt>
      <trkpt lat="45.11786" lon="4.94293">
        <ele>220.10200500488</ele>
        <time>2010-04-10T11:50:54Z</time>
      </trkpt>
      <trkpt lat="45.11789" lon="4.94233">
        <ele>218.83599853516</ele>
        <time>2010-04-10T11:51:00Z</time>
      </trkpt>
      <trkpt lat="45.11791" lon="4.94187">
        <ele>221.01600646973</ele>
        <time>2010-04-10T11:51:05Z</time>
      </trkpt>
      <trkpt lat="45.11799" lon="4.94144">
        <ele>221.72599792481</ele>
        <time>2010-04-10T11:51:11Z</time>
      </trkpt>
      <trkpt lat="45.11809" lon="4.94101">
        <ele>221.69200134277</ele>
        <time>2010-04-10T11:51:17Z</time>
      </trkpt>
      <trkpt lat="45.11817" lon="4.94062">
        <ele>221.49899291992</ele>
        <time>2010-04-10T11:51:22Z</time>
      </trkpt>
      <trkpt lat="45.11811" lon="4.94036">
        <ele>221.60499572754</ele>
        <time>2010-04-10T11:51:26Z</time>
      </trkpt>
      <trkpt lat="45.11792" lon="4.94022">
        <ele>221.5359954834</ele>
        <time>2010-04-10T11:51:30Z</time>
      </trkpt>
      <trkpt lat="45.11775" lon="4.94017">
        <ele>221.38000488281</ele>
        <time>2010-04-10T11:51:33Z</time>
      </trkpt>
      <trkpt lat="45.11707" lon="4.94007">
        <ele>220.76100158691</ele>
        <time>2010-04-10T11:51:44Z</time>
      </trkpt>
      <trkpt lat="45.11662" lon="4.93999">
        <ele>220.89599609375</ele>
        <time>2010-04-10T11:51:51Z</time>
      </trkpt>
      <trkpt lat="45.11609" lon="4.9399">
        <ele>220.22599792481</ele>
        <time>2010-04-10T11:51:59Z</time>
      </trkpt>
      <trkpt lat="45.11562" lon="4.93973">
        <ele>219.96499633789</ele>
        <time>2010-04-10T11:52:06Z</time>
      </trkpt>
      <trkpt lat="45.11526" lon="4.93944">
        <ele>220.35499572754</ele>
        <time>2010-04-10T11:52:12Z</time>
      </trkpt>
      <trkpt lat="45.11481" lon="4.93895">
        <ele>221.31599426269</ele>
        <time>2010-04-10T11:52:21Z</time>
      </trkpt>
      <trkpt lat="45.11456" lon="4.93864">
        <ele>222.44099426269</ele>
        <time>2010-04-10T11:52:27Z</time>
      </trkpt>
      <trkpt lat="45.11446" lon="4.93851">
        <ele>223.49499511719</ele>
        <time>2010-04-10T11:52:30Z</time>
      </trkpt>
      <trkpt lat="45.11427" lon="4.93809">
        <ele>226.06300354004</ele>
        <time>2010-04-10T11:52:38Z</time>
      </trkpt>
      <trkpt lat="45.1142" lon="4.93793">
        <ele>226.49800109863</ele>
        <time>2010-04-10T11:52:41Z</time>
      </trkpt>
      <trkpt lat="45.11414" lon="4.93775">
        <ele>227.66299438477</ele>
        <time>2010-04-10T11:52:44Z</time>
      </trkpt>
      <trkpt lat="45.11406" lon="4.93752">
        <ele>228.00900268555</ele>
        <time>2010-04-10T11:52:48Z</time>
      </trkpt>
      <trkpt lat="45.11389" lon="4.93702">
        <ele>229.05799865723</ele>
        <time>2010-04-10T11:52:56Z</time>
      </trkpt>
      <trkpt lat="45.1137" lon="4.93646">
        <ele>228.37199401856</ele>
        <time>2010-04-10T11:53:04Z</time>
      </trkpt>
      <trkpt lat="45.1135" lon="4.93591">
        <ele>226.67199707031</ele>
        <time>2010-04-10T11:53:11Z</time>
      </trkpt>
      <trkpt lat="45.1133" lon="4.93547">
        <ele>224.25799560547</ele>
        <time>2010-04-10T11:53:16Z</time>
      </trkpt>
      <trkpt lat="45.11308" lon="4.93509">
        <ele>221.84800720215</ele>
        <time>2010-04-10T11:53:20Z</time>
      </trkpt>
      <trkpt lat="45.11296" lon="4.9349">
        <ele>219.14399719238</ele>
        <time>2010-04-10T11:53:22Z</time>
      </trkpt>
      <trkpt lat="45.11289" lon="4.9348">
        <ele>219.53700256348</ele>
        <time>2010-04-10T11:53:23Z</time>
      </trkpt>
      <trkpt lat="45.11245" lon="4.93418">
        <ele>215.88800048828</ele>
        <time>2010-04-10T11:53:29Z</time>
      </trkpt>
      <trkpt lat="45.11209" lon="4.93358">
        <ele>212.88800048828</ele>
        <time>2010-04-10T11:53:34Z</time>
      </trkpt>
      <trkpt lat="45.11189" lon="4.9332">
        <ele>212.10200500488</ele>
        <time>2010-04-10T11:53:37Z</time>
      </trkpt>
      <trkpt lat="45.11183" lon="4.93307">
        <ele>211.92900085449</ele>
        <time>2010-04-10T11:53:38Z</time>
      </trkpt>
      <trkpt lat="45.11154" lon="4.93242">
        <ele>209.84800720215</ele>
        <time>2010-04-10T11:53:43Z</time>
      </trkpt>
      <trkpt lat="45.11137" lon="4.93202">
        <ele>208.45199584961</ele>
        <time>2010-04-10T11:53:46Z</time>
      </trkpt>
      <trkpt lat="45.11132" lon="4.93189">
        <ele>208.20100402832</ele>
        <time>2010-04-10T11:53:47Z</time>
      </trkpt>
      <trkpt lat="45.11119" lon="4.93134">
        <ele>207.60099792481</ele>
        <time>2010-04-10T11:53:51Z</time>
      </trkpt>
      <trkpt lat="45.11104" lon="4.93058">
        <ele>207.57299804688</ele>
        <time>2010-04-10T11:53:57Z</time>
      </trkpt>
      <trkpt lat="45.11084" lon="4.92964">
        <ele>206.49899291992</ele>
        <time>2010-04-10T11:54:05Z</time>
      </trkpt>
      <trkpt lat="45.1107" lon="4.92897">
        <ele>206.875</ele>
        <time>2010-04-10T11:54:11Z</time>
      </trkpt>
      <trkpt lat="45.11068" lon="4.92886">
        <ele>206.82600402832</ele>
        <time>2010-04-10T11:54:12Z</time>
      </trkpt>
      <trkpt lat="45.1106" lon="4.92845">
        <ele>206.83000183106</ele>
        <time>2010-04-10T11:54:16Z</time>
      </trkpt>
      <trkpt lat="45.11042" lon="4.92761">
        <ele>206.3390045166</ele>
        <time>2010-04-10T11:54:25Z</time>
      </trkpt>
      <trkpt lat="45.1103" lon="4.92712">
        <ele>206.26600646973</ele>
        <time>2010-04-10T11:54:31Z</time>
      </trkpt>
      <trkpt lat="45.11023" lon="4.9269">
        <ele>206.5059967041</ele>
        <time>2010-04-10T11:54:34Z</time>
      </trkpt>
      <trkpt lat="45.11019" lon="4.92675">
        <ele>206.21699523926</ele>
        <time>2010-04-10T11:54:36Z</time>
      </trkpt>
      <trkpt lat="45.11017" lon="4.92667">
        <ele>205.69999694824</ele>
        <time>2010-04-10T11:54:37Z</time>
      </trkpt>
      <trkpt lat="45.11002" lon="4.92616">
        <ele>204.04200744629</ele>
        <time>2010-04-10T11:54:44Z</time>
      </trkpt>
      <trkpt lat="45.10994" lon="4.92592">
        <ele>203.68099975586</ele>
        <time>2010-04-10T11:54:47Z</time>
      </trkpt>
      <trkpt lat="45.10986" lon="4.92568">
        <ele>203.51100158691</ele>
        <time>2010-04-10T11:54:51Z</time>
      </trkpt>
      <trkpt lat="45.10982" lon="4.92552">
        <ele>203.21800231934</ele>
        <time>2010-04-10T11:54:55Z</time>
      </trkpt>
      <trkpt lat="45.10975" lon="4.92498">
        <ele>202.44900512695</ele>
        <time>2010-04-10T11:55:03Z</time>
      </trkpt>
      <trkpt lat="45.1097" lon="4.92444">
        <ele>202.61399841309</ele>
        <time>2010-04-10T11:55:10Z</time>
      </trkpt>
      <trkpt lat="45.10968" lon="4.9241">
        <ele>202.35699462891</ele>
        <time>2010-04-10T11:55:14Z</time>
      </trkpt>
      <trkpt lat="45.10963" lon="4.92351">
        <ele>202.35099792481</ele>
        <time>2010-04-10T11:55:21Z</time>
      </trkpt>
      <trkpt lat="45.10959" lon="4.92301">
        <ele>202.05400085449</ele>
        <time>2010-04-10T11:55:27Z</time>
      </trkpt>
      <trkpt lat="45.10953" lon="4.92232">
        <ele>202.81599426269</ele>
        <time>2010-04-10T11:55:35Z</time>
      </trkpt>
      <trkpt lat="45.1095" lon="4.92191">
        <ele>203.77600097656</ele>
        <time>2010-04-10T11:55:40Z</time>
      </trkpt>
      <trkpt lat="45.10938" lon="4.92163">
        <ele>203.2200012207</ele>
        <time>2010-04-10T11:55:44Z</time>
      </trkpt>
      <trkpt lat="45.1092" lon="4.92151">
        <ele>202.60400390625</ele>
        <time>2010-04-10T11:55:47Z</time>
      </trkpt>
      <trkpt lat="45.10861" lon="4.92132">
        <ele>201.46299743652</ele>
        <time>2010-04-10T11:55:56Z</time>
      </trkpt>
      <trkpt lat="45.10839" lon="4.92108">
        <ele>201.61099243164</ele>
        <time>2010-04-10T11:56:00Z</time>
      </trkpt>
      <trkpt lat="45.10833" lon="4.9208">
        <ele>201.24099731445</ele>
        <time>2010-04-10T11:56:03Z</time>
      </trkpt>
      <trkpt lat="45.10825" lon="4.92008">
        <ele>201.79100036621</ele>
        <time>2010-04-10T11:56:11Z</time>
      </trkpt>
      <trkpt lat="45.10825" lon="4.91999">
        <ele>201.7380065918</ele>
        <time>2010-04-10T11:56:12Z</time>
      </trkpt>
      <trkpt lat="45.10808" lon="4.91963">
        <ele>202.42999267578</ele>
        <time>2010-04-10T11:56:17Z</time>
      </trkpt>
      <trkpt lat="45.10773" lon="4.91915">
        <ele>204.77900695801</ele>
        <time>2010-04-10T11:56:26Z</time>
      </trkpt>
      <trkpt lat="45.10763" lon="4.91882">
        <ele>206.1369934082</ele>
        <time>2010-04-10T11:56:31Z</time>
      </trkpt>
      <trkpt lat="45.10763" lon="4.91875">
        <ele>206.1369934082</ele>
        <time>2010-04-10T11:56:32Z</time>
      </trkpt>
      <trkpt lat="45.10766" lon="4.91849">
        <ele>207.93699645996</ele>
        <time>2010-04-10T11:56:36Z</time>
      </trkpt>
      <trkpt lat="45.1077" lon="4.91819">
        <ele>209.75700378418</ele>
        <time>2010-04-10T11:56:41Z</time>
      </trkpt>
      <trkpt lat="45.10772" lon="4.91796">
        <ele>209.66700744629</ele>
        <time>2010-04-10T11:56:45Z</time>
      </trkpt>
      <trkpt lat="45.10773" lon="4.91769">
        <ele>208.97599792481</ele>
        <time>2010-04-10T11:56:49Z</time>
      </trkpt>
      <trkpt lat="45.10775" lon="4.91711">
        <ele>208.21200561523</ele>
        <time>2010-04-10T11:56:57Z</time>
      </trkpt>
      <trkpt lat="45.10774" lon="4.91689">
        <ele>208.07400512695</ele>
        <time>2010-04-10T11:57:00Z</time>
      </trkpt>
      <trkpt lat="45.10777" lon="4.91617">
        <ele>206.47500610352</ele>
        <time>2010-04-10T11:57:09Z</time>
      </trkpt>
      <trkpt lat="45.10777" lon="4.91581">
        <ele>206.18899536133</ele>
        <time>2010-04-10T11:57:13Z</time>
      </trkpt>
      <trkpt lat="45.10777" lon="4.91501">
        <ele>205.18499755859</ele>
        <time>2010-04-10T11:57:22Z</time>
      </trkpt>
      <trkpt lat="45.10778" lon="4.91405">
        <ele>205.26100158691</ele>
        <time>2010-04-10T11:57:33Z</time>
      </trkpt>
      <trkpt lat="45.10779" lon="4.9132">
        <ele>204.81500244141</ele>
        <time>2010-04-10T11:57:43Z</time>
      </trkpt>
      <trkpt lat="45.1078" lon="4.9128">
        <ele>206.42399597168</ele>
        <time>2010-04-10T11:57:48Z</time>
      </trkpt>
      <trkpt lat="45.10793" lon="4.91243">
        <ele>205.89199829102</ele>
        <time>2010-04-10T11:57:53Z</time>
      </trkpt>
      <trkpt lat="45.10807" lon="4.91231">
        <ele>205.46200561523</ele>
        <time>2010-04-10T11:57:56Z</time>
      </trkpt>
      <trkpt lat="45.10854" lon="4.91216">
        <ele>205.53999328613</ele>
        <time>2010-04-10T11:58:05Z</time>
      </trkpt>
      <trkpt lat="45.109" lon="4.91205">
        <ele>205.65899658203</ele>
        <time>2010-04-10T11:58:14Z</time>
      </trkpt>
      <trkpt lat="45.10942" lon="4.91196">
        <ele>206.50100708008</ele>
        <time>2010-04-10T11:58:22Z</time>
      </trkpt>
      <trkpt lat="45.10958" lon="4.91192">
        <ele>207.92300415039</ele>
        <time>2010-04-10T11:58:25Z</time>
      </trkpt>
      <trkpt lat="45.10994" lon="4.91179">
        <ele>207.90899658203</ele>
        <time>2010-04-10T11:58:32Z</time>
      </trkpt>
      <trkpt lat="45.11036" lon="4.91158">
        <ele>207.21800231934</ele>
        <time>2010-04-10T11:58:40Z</time>
      </trkpt>
      <trkpt lat="45.11087" lon="4.91125">
        <ele>208.54299926758</ele>
        <time>2010-04-10T11:58:50Z</time>
      </trkpt>
      <trkpt lat="45.11148" lon="4.91084">
        <ele>208.625</ele>
        <time>2010-04-10T11:59:02Z</time>
      </trkpt>
      <trkpt lat="45.11198" lon="4.91046">
        <ele>207.75500488281</ele>
        <time>2010-04-10T11:59:12Z</time>
      </trkpt>
      <trkpt lat="45.11223" lon="4.91025">
        <ele>208.83200073242</ele>
        <time>2010-04-10T11:59:17Z</time>
      </trkpt>
      <trkpt lat="45.11275" lon="4.90991">
        <ele>209.02000427246</ele>
        <time>2010-04-10T11:59:27Z</time>
      </trkpt>
      <trkpt lat="45.1132" lon="4.90964">
        <ele>210.31199645996</ele>
        <time>2010-04-10T11:59:36Z</time>
      </trkpt>
      <trkpt lat="45.11369" lon="4.90929">
        <ele>211.86099243164</ele>
        <time>2010-04-10T11:59:46Z</time>
      </trkpt>
      <trkpt lat="45.11412" lon="4.90879">
        <ele>212.5299987793</ele>
        <time>2010-04-10T11:59:56Z</time>
      </trkpt>
      <trkpt lat="45.11447" lon="4.90851">
        <ele>213.21299743652</ele>
        <time>2010-04-10T12:00:03Z</time>
      </trkpt>
      <trkpt lat="45.11497" lon="4.90832">
        <ele>213.08200073242</ele>
        <time>2010-04-10T12:00:12Z</time>
      </trkpt>
      <trkpt lat="45.11559" lon="4.90808">
        <ele>213.89799499512</ele>
        <time>2010-04-10T12:00:23Z</time>
      </trkpt>
      <trkpt lat="45.11565" lon="4.90806">
        <ele>213.85699462891</ele>
        <time>2010-04-10T12:00:24Z</time>
      </trkpt>
      <trkpt lat="45.11612" lon="4.90767">
        <ele>214.18200683594</ele>
        <time>2010-04-10T12:00:33Z</time>
      </trkpt>
      <trkpt lat="45.11649" lon="4.90727">
        <ele>214.3809967041</ele>
        <time>2010-04-10T12:00:41Z</time>
      </trkpt>
      <trkpt lat="45.11673" lon="4.9068">
        <ele>214.55299377441</ele>
        <time>2010-04-10T12:00:48Z</time>
      </trkpt>
      <trkpt lat="45.11686" lon="4.90626">
        <ele>214.10499572754</ele>
        <time>2010-04-10T12:00:55Z</time>
      </trkpt>
      <trkpt lat="45.11694" lon="4.9057">
        <ele>213.22099304199</ele>
        <time>2010-04-10T12:01:02Z</time>
      </trkpt>
      <trkpt lat="45.11697" lon="4.90533">
        <ele>211.44400024414</ele>
        <time>2010-04-10T12:01:06Z</time>
      </trkpt>
      <trkpt lat="45.11699" lon="4.90474">
        <ele>210.74200439453</ele>
        <time>2010-04-10T12:01:12Z</time>
      </trkpt>
      <trkpt lat="45.11698" lon="4.90464">
        <ele>210.62800598144</ele>
        <time>2010-04-10T12:01:13Z</time>
      </trkpt>
      <trkpt lat="45.11681" lon="4.90422">
        <ele>210.83700561523</ele>
        <time>2010-04-10T12:01:18Z</time>
      </trkpt>
      <trkpt lat="45.1167" lon="4.90409">
        <ele>211.00799560547</ele>
        <time>2010-04-10T12:01:20Z</time>
      </trkpt>
      <trkpt lat="45.1165" lon="4.90392">
        <ele>209.60499572754</ele>
        <time>2010-04-10T12:01:23Z</time>
      </trkpt>
      <trkpt lat="45.11602" lon="4.9036">
        <ele>207.61500549316</ele>
        <time>2010-04-10T12:01:29Z</time>
      </trkpt>
      <trkpt lat="45.11584" lon="4.90349">
        <ele>206.55599975586</ele>
        <time>2010-04-10T12:01:31Z</time>
      </trkpt>
      <trkpt lat="45.11522" lon="4.90312">
        <ele>205.05299377441</ele>
        <time>2010-04-10T12:01:38Z</time>
      </trkpt>
      <trkpt lat="45.11496" lon="4.90298">
        <ele>204.7200012207</ele>
        <time>2010-04-10T12:01:41Z</time>
      </trkpt>
      <trkpt lat="45.11446" lon="4.90271">
        <ele>204.57499694824</ele>
        <time>2010-04-10T12:01:47Z</time>
      </trkpt>
      <trkpt lat="45.11424" lon="4.90254">
        <ele>204.17700195312</ele>
        <time>2010-04-10T12:01:50Z</time>
      </trkpt>
      <trkpt lat="45.11417" lon="4.90247">
        <ele>204.48300170898</ele>
        <time>2010-04-10T12:01:51Z</time>
      </trkpt>
      <trkpt lat="45.11391" lon="4.90203">
        <ele>202.4109954834</ele>
        <time>2010-04-10T12:01:56Z</time>
      </trkpt>
      <trkpt lat="45.11388" lon="4.90192">
        <ele>203.01400756836</ele>
        <time>2010-04-10T12:01:57Z</time>
      </trkpt>
      <trkpt lat="45.1138" lon="4.90159">
        <ele>201.68299865723</ele>
        <time>2010-04-10T12:02:00Z</time>
      </trkpt>
      <trkpt lat="45.11375" lon="4.90138">
        <ele>201.98599243164</ele>
        <time>2010-04-10T12:02:02Z</time>
      </trkpt>
      <trkpt lat="45.11372" lon="4.90128">
        <ele>201.68600463867</ele>
        <time>2010-04-10T12:02:03Z</time>
      </trkpt>
      <trkpt lat="45.11358" lon="4.90104">
        <ele>201.81500244141</ele>
        <time>2010-04-10T12:02:06Z</time>
      </trkpt>
      <trkpt lat="45.11352" lon="4.90098">
        <ele>202.11199951172</ele>
        <time>2010-04-10T12:02:07Z</time>
      </trkpt>
      <trkpt lat="45.11319" lon="4.90066">
        <ele>202.68899536133</ele>
        <time>2010-04-10T12:02:13Z</time>
      </trkpt>
      <trkpt lat="45.11308" lon="4.90055">
        <ele>202.43600463867</ele>
        <time>2010-04-10T12:02:15Z</time>
      </trkpt>
      <trkpt lat="45.11262" lon="4.9">
        <ele>201.37199401856</ele>
        <time>2010-04-10T12:02:24Z</time>
      </trkpt>
      <trkpt lat="45.11238" lon="4.89969">
        <ele>200.86599731445</ele>
        <time>2010-04-10T12:02:29Z</time>
      </trkpt>
      <trkpt lat="45.11229" lon="4.89947">
        <ele>200.96699523926</ele>
        <time>2010-04-10T12:02:32Z</time>
      </trkpt>
      <trkpt lat="45.11227" lon="4.89938">
        <ele>201.27699279785</ele>
        <time>2010-04-10T12:02:33Z</time>
      </trkpt>
      <trkpt lat="45.11217" lon="4.89902">
        <ele>199.87300109863</ele>
        <time>2010-04-10T12:02:37Z</time>
      </trkpt>
      <trkpt lat="45.11207" lon="4.89866">
        <ele>199.54699707031</ele>
        <time>2010-04-10T12:02:41Z</time>
      </trkpt>
      <trkpt lat="45.112" lon="4.89847">
        <ele>199.70300292969</ele>
        <time>2010-04-10T12:02:43Z</time>
      </trkpt>
      <trkpt lat="45.1118" lon="4.89818">
        <ele>198.67799377441</ele>
        <time>2010-04-10T12:02:47Z</time>
      </trkpt>
      <trkpt lat="45.11162" lon="4.89804">
        <ele>199.29400634766</ele>
        <time>2010-04-10T12:02:50Z</time>
      </trkpt>
      <trkpt lat="45.11126" lon="4.89782">
        <ele>199.51300048828</ele>
        <time>2010-04-10T12:02:56Z</time>
      </trkpt>
      <trkpt lat="45.11102" lon="4.89767">
        <ele>199.52499389648</ele>
        <time>2010-04-10T12:03:00Z</time>
      </trkpt>
      <trkpt lat="45.11089" lon="4.8976">
        <ele>199.84199523926</ele>
        <time>2010-04-10T12:03:02Z</time>
      </trkpt>
      <trkpt lat="45.11069" lon="4.89736">
        <ele>199.45399475098</ele>
        <time>2010-04-10T12:03:06Z</time>
      </trkpt>
      <trkpt lat="45.11033" lon="4.89671">
        <ele>199.41600036621</ele>
        <time>2010-04-10T12:03:15Z</time>
      </trkpt>
      <trkpt lat="45.11013" lon="4.89633">
        <ele>198.30400085449</ele>
        <time>2010-04-10T12:03:20Z</time>
      </trkpt>
      <trkpt lat="45.1102" lon="4.89595">
        <ele>197.68099975586</ele>
        <time>2010-04-10T12:03:24Z</time>
      </trkpt>
      <trkpt lat="45.11036" lon="4.8954">
        <ele>197.3450012207</ele>
        <time>2010-04-10T12:03:30Z</time>
      </trkpt>
      <trkpt lat="45.11031" lon="4.89503">
        <ele>197.02299499512</ele>
        <time>2010-04-10T12:03:34Z</time>
      </trkpt>
      <trkpt lat="45.11028" lon="4.89494">
        <ele>197.4640045166</ele>
        <time>2010-04-10T12:03:35Z</time>
      </trkpt>
      <trkpt lat="45.11016" lon="4.89469">
        <ele>197.79100036621</ele>
        <time>2010-04-10T12:03:38Z</time>
      </trkpt>
      <trkpt lat="45.10987" lon="4.89438">
        <ele>197.16200256348</ele>
        <time>2010-04-10T12:03:43Z</time>
      </trkpt>
      <trkpt lat="45.10979" lon="4.89414">
        <ele>196.31799316406</ele>
        <time>2010-04-10T12:03:46Z</time>
      </trkpt>
      <trkpt lat="45.10982" lon="4.89405">
        <ele>196.17700195312</ele>
        <time>2010-04-10T12:03:47Z</time>
      </trkpt>
      <trkpt lat="45.10982" lon="4.89374">
        <ele>196.04499816894</ele>
        <time>2010-04-10T12:03:51Z</time>
      </trkpt>
      <trkpt lat="45.10969" lon="4.89372">
        <ele>196.10400390625</ele>
        <time>2010-04-10T12:03:53Z</time>
      </trkpt>
      <trkpt lat="45.10944" lon="4.89376">
        <ele>194.39399719238</ele>
        <time>2010-04-10T12:03:57Z</time>
      </trkpt>
      <trkpt lat="45.10916" lon="4.89358">
        <ele>193.46200561523</ele>
        <time>2010-04-10T12:04:01Z</time>
      </trkpt>
      <trkpt lat="45.10909" lon="4.89351">
        <ele>193.07000732422</ele>
        <time>2010-04-10T12:04:02Z</time>
      </trkpt>
      <trkpt lat="45.10873" lon="4.89302">
        <ele>192.48300170898</ele>
        <time>2010-04-10T12:04:08Z</time>
      </trkpt>
      <trkpt lat="45.10818" lon="4.89223">
        <ele>191.44900512695</ele>
        <time>2010-04-10T12:04:17Z</time>
      </trkpt>
      <trkpt lat="45.10766" lon="4.89157">
        <ele>190.16700744629</ele>
        <time>2010-04-10T12:04:25Z</time>
      </trkpt>
      <trkpt lat="45.1073" lon="4.89122">
        <ele>188.66799926758</ele>
        <time>2010-04-10T12:04:30Z</time>
      </trkpt>
      <trkpt lat="45.10686" lon="4.89079">
        <ele>189.64799499512</ele>
        <time>2010-04-10T12:04:36Z</time>
      </trkpt>
      <trkpt lat="45.10638" lon="4.89028">
        <ele>189.50399780273</ele>
        <time>2010-04-10T12:04:43Z</time>
      </trkpt>
      <trkpt lat="45.10595" lon="4.88977">
        <ele>190.22300720215</ele>
        <time>2010-04-10T12:04:50Z</time>
      </trkpt>
      <trkpt lat="45.10556" lon="4.88916">
        <ele>189.02299499512</ele>
        <time>2010-04-10T12:04:57Z</time>
      </trkpt>
      <trkpt lat="45.10522" lon="4.88847">
        <ele>188.42700195312</ele>
        <time>2010-04-10T12:05:04Z</time>
      </trkpt>
      <trkpt lat="45.10485" lon="4.88758">
        <ele>188.09700012207</ele>
        <time>2010-04-10T12:05:13Z</time>
      </trkpt>
      <trkpt lat="45.10449" lon="4.88669">
        <ele>187.87699890137</ele>
        <time>2010-04-10T12:05:22Z</time>
      </trkpt>
      <trkpt lat="45.10418" lon="4.88594">
        <ele>187.42500305176</ele>
        <time>2010-04-10T12:05:30Z</time>
      </trkpt>
      <trkpt lat="45.10389" lon="4.88524">
        <ele>186.3869934082</ele>
        <time>2010-04-10T12:05:37Z</time>
      </trkpt>
      <trkpt lat="45.10357" lon="4.88466">
        <ele>185.72099304199</ele>
        <time>2010-04-10T12:05:43Z</time>
      </trkpt>
      <trkpt lat="45.10325" lon="4.88428">
        <ele>184.79400634766</ele>
        <time>2010-04-10T12:05:48Z</time>
      </trkpt>
      <trkpt lat="45.10262" lon="4.88355">
        <ele>184.42199707031</ele>
        <time>2010-04-10T12:05:58Z</time>
      </trkpt>
      <trkpt lat="45.1022" lon="4.8832">
        <ele>183.59199523926</ele>
        <time>2010-04-10T12:06:04Z</time>
      </trkpt>
      <trkpt lat="45.10188" lon="4.88302">
        <ele>182.74000549316</ele>
        <time>2010-04-10T12:06:08Z</time>
      </trkpt>
      <trkpt lat="45.10172" lon="4.88294">
        <ele>182.72399902344</ele>
        <time>2010-04-10T12:06:10Z</time>
      </trkpt>
      <trkpt lat="45.10084" lon="4.88251">
        <ele>181.96899414062</ele>
        <time>2010-04-10T12:06:21Z</time>
      </trkpt>
      <trkpt lat="45.10002" lon="4.88209">
        <ele>180.97200012207</ele>
        <time>2010-04-10T12:06:31Z</time>
      </trkpt>
      <trkpt lat="45.09925" lon="4.88163">
        <ele>179.80700683594</ele>
        <time>2010-04-10T12:06:41Z</time>
      </trkpt>
      <trkpt lat="45.0986" lon="4.88128">
        <ele>179.44700622559</ele>
        <time>2010-04-10T12:06:49Z</time>
      </trkpt>
      <trkpt lat="45.09801" lon="4.88105">
        <ele>178.61999511719</ele>
        <time>2010-04-10T12:06:56Z</time>
      </trkpt>
      <trkpt lat="45.09718" lon="4.8808">
        <ele>177.91000366211</ele>
        <time>2010-04-10T12:07:06Z</time>
      </trkpt>
      <trkpt lat="45.09677" lon="4.88079">
        <ele>177.73100280762</ele>
        <time>2010-04-10T12:07:11Z</time>
      </trkpt>
      <trkpt lat="45.09636" lon="4.88091">
        <ele>177.45300292969</ele>
        <time>2010-04-10T12:07:16Z</time>
      </trkpt>
      <trkpt lat="45.09612" lon="4.88102">
        <ele>177.17599487305</ele>
        <time>2010-04-10T12:07:19Z</time>
      </trkpt>
      <trkpt lat="45.09554" lon="4.8812">
        <ele>177.24200439453</ele>
        <time>2010-04-10T12:07:26Z</time>
      </trkpt>
      <trkpt lat="45.09528" lon="4.88124">
        <ele>177.03799438477</ele>
        <time>2010-04-10T12:07:29Z</time>
      </trkpt>
      <trkpt lat="45.09446" lon="4.88139">
        <ele>176.86999511719</ele>
        <time>2010-04-10T12:07:39Z</time>
      </trkpt>
      <trkpt lat="45.0939" lon="4.88149">
        <ele>176.12199401856</ele>
        <time>2010-04-10T12:07:46Z</time>
      </trkpt>
      <trkpt lat="45.09329" lon="4.88165">
        <ele>173.78300476074</ele>
        <time>2010-04-10T12:07:53Z</time>
      </trkpt>
      <trkpt lat="45.09294" lon="4.88178">
        <ele>173.11599731445</ele>
        <time>2010-04-10T12:07:57Z</time>
      </trkpt>
      <trkpt lat="45.09241" lon="4.8819">
        <ele>172.3630065918</ele>
        <time>2010-04-10T12:08:03Z</time>
      </trkpt>
      <trkpt lat="45.09187" lon="4.88186">
        <ele>171.42500305176</ele>
        <time>2010-04-10T12:08:09Z</time>
      </trkpt>
      <trkpt lat="45.0912" lon="4.88173">
        <ele>168.48100280762</ele>
        <time>2010-04-10T12:08:16Z</time>
      </trkpt>
      <trkpt lat="45.09062" lon="4.8816">
        <ele>167.33999633789</ele>
        <time>2010-04-10T12:08:22Z</time>
      </trkpt>
      <trkpt lat="45.09007" lon="4.88146">
        <ele>166.15199279785</ele>
        <time>2010-04-10T12:08:28Z</time>
      </trkpt>
      <trkpt lat="45.08954" lon="4.88142">
        <ele>165.70199584961</ele>
        <time>2010-04-10T12:08:34Z</time>
      </trkpt>
      <trkpt lat="45.08895" lon="4.88144">
        <ele>165.1369934082</ele>
        <time>2010-04-10T12:08:41Z</time>
      </trkpt>
      <trkpt lat="45.08853" lon="4.88135">
        <ele>165.81199645996</ele>
        <time>2010-04-10T12:08:46Z</time>
      </trkpt>
      <trkpt lat="45.08819" lon="4.88129">
        <ele>165.94299316406</ele>
        <time>2010-04-10T12:08:50Z</time>
      </trkpt>
      <trkpt lat="45.08774" lon="4.88127">
        <ele>166.70899963379</ele>
        <time>2010-04-10T12:08:55Z</time>
      </trkpt>
      <trkpt lat="45.0871" lon="4.88118">
        <ele>166.66700744629</ele>
        <time>2010-04-10T12:09:02Z</time>
      </trkpt>
      <trkpt lat="45.08658" lon="4.88095">
        <ele>165.97500610352</ele>
        <time>2010-04-10T12:09:08Z</time>
      </trkpt>
      <trkpt lat="45.08598" lon="4.88058">
        <ele>165.07600402832</ele>
        <time>2010-04-10T12:09:15Z</time>
      </trkpt>
      <trkpt lat="45.08516" lon="4.87997">
        <ele>164.41299438477</ele>
        <time>2010-04-10T12:09:25Z</time>
      </trkpt>
      <trkpt lat="45.085" lon="4.87983">
        <ele>164.23300170898</ele>
        <time>2010-04-10T12:09:27Z</time>
      </trkpt>
      <trkpt lat="45.08471" lon="4.87934">
        <ele>163.24800109863</ele>
        <time>2010-04-10T12:09:32Z</time>
      </trkpt>
      <trkpt lat="45.08464" lon="4.87909">
        <ele>163.01800537109</ele>
        <time>2010-04-10T12:09:34Z</time>
      </trkpt>
      <trkpt lat="45.0845" lon="4.87781">
        <ele>161.54499816894</ele>
        <time>2010-04-10T12:09:44Z</time>
      </trkpt>
      <trkpt lat="45.08442" lon="4.87708">
        <ele>161.15800476074</ele>
        <time>2010-04-10T12:09:50Z</time>
      </trkpt>
      <trkpt lat="45.08428" lon="4.87651">
        <ele>162.44299316406</ele>
        <time>2010-04-10T12:09:55Z</time>
      </trkpt>
      <trkpt lat="45.084" lon="4.87616">
        <ele>165.02400207519</ele>
        <time>2010-04-10T12:10:00Z</time>
      </trkpt>
      <trkpt lat="45.08386" lon="4.87605">
        <ele>166.06900024414</ele>
        <time>2010-04-10T12:10:02Z</time>
      </trkpt>
      <trkpt lat="45.0837" lon="4.87597">
        <ele>167.10400390625</ele>
        <time>2010-04-10T12:10:04Z</time>
      </trkpt>
      <trkpt lat="45.08354" lon="4.87588">
        <ele>167.22799682617</ele>
        <time>2010-04-10T12:10:06Z</time>
      </trkpt>
      <trkpt lat="45.08338" lon="4.87579">
        <ele>167.58599853516</ele>
        <time>2010-04-10T12:10:08Z</time>
      </trkpt>
      <trkpt lat="45.08322" lon="4.8757">
        <ele>167.52900695801</ele>
        <time>2010-04-10T12:10:10Z</time>
      </trkpt>
      <trkpt lat="45.08315" lon="4.87565">
        <ele>167.73300170898</ele>
        <time>2010-04-10T12:10:11Z</time>
      </trkpt>
      <trkpt lat="45.08299" lon="4.87555">
        <ele>167.17700195312</ele>
        <time>2010-04-10T12:10:13Z</time>
      </trkpt>
      <trkpt lat="45.08284" lon="4.87544">
        <ele>166.64999389648</ele>
        <time>2010-04-10T12:10:15Z</time>
      </trkpt>
      <trkpt lat="45.08226" lon="4.87494">
        <ele>165.63200378418</ele>
        <time>2010-04-10T12:10:23Z</time>
      </trkpt>
      <trkpt lat="45.08205" lon="4.8747">
        <ele>164.22300720215</ele>
        <time>2010-04-10T12:10:26Z</time>
      </trkpt>
      <trkpt lat="45.08139" lon="4.87392">
        <ele>161.19700622559</ele>
        <time>2010-04-10T12:10:35Z</time>
      </trkpt>
      <trkpt lat="45.08106" lon="4.87349">
        <ele>162.14100646973</ele>
        <time>2010-04-10T12:10:40Z</time>
      </trkpt>
      <trkpt lat="45.08078" lon="4.87291">
        <ele>162.3869934082</ele>
        <time>2010-04-10T12:10:46Z</time>
      </trkpt>
      <trkpt lat="45.08059" lon="4.87256">
        <ele>161.4109954834</ele>
        <time>2010-04-10T12:10:50Z</time>
      </trkpt>
      <trkpt lat="45.08024" lon="4.87204">
        <ele>159.67799377441</ele>
        <time>2010-04-10T12:10:56Z</time>
      </trkpt>
      <trkpt lat="45.07999" lon="4.87169">
        <ele>158.2799987793</ele>
        <time>2010-04-10T12:11:00Z</time>
      </trkpt>
      <trkpt lat="45.0796" lon="4.87115">
        <ele>156.52900695801</ele>
        <time>2010-04-10T12:11:06Z</time>
      </trkpt>
      <trkpt lat="45.0793" lon="4.87083">
        <ele>154.52000427246</ele>
        <time>2010-04-10T12:11:10Z</time>
      </trkpt>
      <trkpt lat="45.07887" lon="4.87051">
        <ele>153.11999511719</ele>
        <time>2010-04-10T12:11:15Z</time>
      </trkpt>
      <trkpt lat="45.07798" lon="4.86988">
        <ele>150.9880065918</ele>
        <time>2010-04-10T12:11:25Z</time>
      </trkpt>
      <trkpt lat="45.07768" lon="4.86948">
        <ele>149.74699401856</ele>
        <time>2010-04-10T12:11:29Z</time>
      </trkpt>
      <trkpt lat="45.07726" lon="4.86855">
        <ele>148.96699523926</ele>
        <time>2010-04-10T12:11:37Z</time>
      </trkpt>
      <trkpt lat="45.0771" lon="4.8682">
        <ele>148.19799804688</ele>
        <time>2010-04-10T12:11:40Z</time>
      </trkpt>
      <trkpt lat="45.07664" lon="4.86717">
        <ele>146.4880065918</ele>
        <time>2010-04-10T12:11:49Z</time>
      </trkpt>
      <trkpt lat="45.07649" lon="4.86686">
        <ele>146.54200744629</ele>
        <time>2010-04-10T12:11:52Z</time>
      </trkpt>
      <trkpt lat="45.07623" lon="4.86651">
        <ele>145.67399597168</ele>
        <time>2010-04-10T12:11:56Z</time>
      </trkpt>
      <trkpt lat="45.07592" lon="4.86621">
        <ele>144.81700134277</ele>
        <time>2010-04-10T12:12:00Z</time>
      </trkpt>
      <trkpt lat="45.07526" lon="4.86558">
        <ele>143.50799560547</ele>
        <time>2010-04-10T12:12:08Z</time>
      </trkpt>
      <trkpt lat="45.07491" lon="4.8652">
        <ele>144.17300415039</ele>
        <time>2010-04-10T12:12:13Z</time>
      </trkpt>
      <trkpt lat="45.07456" lon="4.86469">
        <ele>143.58700561523</ele>
        <time>2010-04-10T12:12:19Z</time>
      </trkpt>
      <trkpt lat="45.07433" lon="4.86432">
        <ele>143.73399353027</ele>
        <time>2010-04-10T12:12:23Z</time>
      </trkpt>
      <trkpt lat="45.07409" lon="4.86394">
        <ele>142.01800537109</ele>
        <time>2010-04-10T12:12:27Z</time>
      </trkpt>
      <trkpt lat="45.0737" lon="4.86318">
        <ele>140.72300720215</ele>
        <time>2010-04-10T12:12:34Z</time>
      </trkpt>
      <trkpt lat="45.07343" lon="4.86245">
        <ele>139.97500610352</ele>
        <time>2010-04-10T12:12:40Z</time>
      </trkpt>
      <trkpt lat="45.07325" lon="4.86167">
        <ele>139.49200439453</ele>
        <time>2010-04-10T12:12:46Z</time>
      </trkpt>
      <trkpt lat="45.07298" lon="4.86109">
        <ele>138.81500244141</ele>
        <time>2010-04-10T12:12:51Z</time>
      </trkpt>
      <trkpt lat="45.07286" lon="4.86086">
        <ele>138.31399536133</ele>
        <time>2010-04-10T12:12:53Z</time>
      </trkpt>
      <trkpt lat="45.07269" lon="4.86022">
        <ele>138.27499389648</ele>
        <time>2010-04-10T12:12:58Z</time>
      </trkpt>
      <trkpt lat="45.07266" lon="4.86009">
        <ele>138.08000183106</ele>
        <time>2010-04-10T12:12:59Z</time>
      </trkpt>
      <trkpt lat="45.07243" lon="4.85965">
        <ele>137.58000183106</ele>
        <time>2010-04-10T12:13:03Z</time>
      </trkpt>
      <trkpt lat="45.07184" lon="4.85891">
        <ele>136.34899902344</ele>
        <time>2010-04-10T12:13:11Z</time>
      </trkpt>
      <trkpt lat="45.07146" lon="4.8585">
        <ele>135.2200012207</ele>
        <time>2010-04-10T12:13:16Z</time>
      </trkpt>
      <trkpt lat="45.07114" lon="4.85834">
        <ele>135.60099792481</ele>
        <time>2010-04-10T12:13:20Z</time>
      </trkpt>
      <trkpt lat="45.07096" lon="4.85813">
        <ele>135.22200012207</ele>
        <time>2010-04-10T12:13:23Z</time>
      </trkpt>
      <trkpt lat="45.07087" lon="4.85783">
        <ele>133.96000671387</ele>
        <time>2010-04-10T12:13:26Z</time>
      </trkpt>
      <trkpt lat="45.07088" lon="4.85771">
        <ele>133.44799804688</ele>
        <time>2010-04-10T12:13:27Z</time>
      </trkpt>
      <trkpt lat="45.07093" lon="4.85678">
        <ele>130.64500427246</ele>
        <time>2010-04-10T12:13:34Z</time>
      </trkpt>
      <trkpt lat="45.07095" lon="4.85598">
        <ele>130.21800231934</ele>
        <time>2010-04-10T12:13:40Z</time>
      </trkpt>
      <trkpt lat="45.07102" lon="4.85492">
        <ele>129.14100646973</ele>
        <time>2010-04-10T12:13:48Z</time>
      </trkpt>
      <trkpt lat="45.07097" lon="4.85381">
        <ele>128.04200744629</ele>
        <time>2010-04-10T12:13:56Z</time>
      </trkpt>
      <trkpt lat="45.07095" lon="4.85285">
        <ele>128.15699768066</ele>
        <time>2010-04-10T12:14:03Z</time>
      </trkpt>
      <trkpt lat="45.07091" lon="4.85189">
        <ele>126.55200195312</ele>
        <time>2010-04-10T12:14:10Z</time>
      </trkpt>
      <trkpt lat="45.07083" lon="4.85085">
        <ele>126.81600189209</ele>
        <time>2010-04-10T12:14:18Z</time>
      </trkpt>
      <trkpt lat="45.07085" lon="4.85033">
        <ele>126.58399963379</ele>
        <time>2010-04-10T12:14:22Z</time>
      </trkpt>
      <trkpt lat="45.07091" lon="4.84983">
        <ele>124.2379989624</ele>
        <time>2010-04-10T12:14:26Z</time>
      </trkpt>
      <trkpt lat="45.07088" lon="4.84941">
        <ele>121.98000335693</ele>
        <time>2010-04-10T12:14:29Z</time>
      </trkpt>
      <trkpt lat="45.07083" lon="4.84915">
        <ele>122.43800354004</ele>
        <time>2010-04-10T12:14:31Z</time>
      </trkpt>
      <trkpt lat="45.07067" lon="4.84855">
        <ele>123.41100311279</ele>
        <time>2010-04-10T12:14:36Z</time>
      </trkpt>
      <trkpt lat="45.0706" lon="4.84824">
        <ele>125.77700042725</ele>
        <time>2010-04-10T12:14:39Z</time>
      </trkpt>
      <trkpt lat="45.07058" lon="4.84806">
        <ele>127.12899780273</ele>
        <time>2010-04-10T12:14:41Z</time>
      </trkpt>
      <trkpt lat="45.07048" lon="4.84733">
        <ele>127.82900238037</ele>
        <time>2010-04-10T12:14:49Z</time>
      </trkpt>
      <trkpt lat="45.07039" lon="4.84667">
        <ele>127.11399841309</ele>
        <time>2010-04-10T12:14:56Z</time>
      </trkpt>
      <trkpt lat="45.07024" lon="4.84599">
        <ele>126.547996521</ele>
        <time>2010-04-10T12:15:03Z</time>
      </trkpt>
      <trkpt lat="45.07023" lon="4.84577">
        <ele>126.0059967041</ele>
        <time>2010-04-10T12:15:05Z</time>
      </trkpt>
      <trkpt lat="45.07031" lon="4.84495">
        <ele>125.68299865723</ele>
        <time>2010-04-10T12:15:13Z</time>
      </trkpt>
      <trkpt lat="45.07039" lon="4.84417">
        <ele>124.65899658203</ele>
        <time>2010-04-10T12:15:20Z</time>
      </trkpt>
      <trkpt lat="45.07042" lon="4.84383">
        <ele>123.85600280762</ele>
        <time>2010-04-10T12:15:23Z</time>
      </trkpt>
      <trkpt lat="45.07046" lon="4.84331">
        <ele>124.61399841309</ele>
        <time>2010-04-10T12:15:28Z</time>
      </trkpt>
      <trkpt lat="45.07033" lon="4.84324">
        <ele>125.65399932861</ele>
        <time>2010-04-10T12:15:31Z</time>
      </trkpt>
      <trkpt lat="45.07024" lon="4.84335">
        <ele>125.78500366211</ele>
        <time>2010-04-10T12:15:33Z</time>
      </trkpt>
      <trkpt lat="45.07014" lon="4.84338">
        <ele>126.02400207519</ele>
        <time>2010-04-10T12:15:35Z</time>
      </trkpt>
      <trkpt lat="45.06976" lon="4.8434">
        <ele>125.63899993897</ele>
        <time>2010-04-10T12:15:42Z</time>
      </trkpt>
      <trkpt lat="45.0694" lon="4.84343">
        <ele>125.80899810791</ele>
        <time>2010-04-10T12:15:49Z</time>
      </trkpt>
      <trkpt lat="45.06918" lon="4.84344">
        <ele>125.51300048828</ele>
        <time>2010-04-10T12:15:54Z</time>
      </trkpt>
      <trkpt lat="45.06905" lon="4.84345">
        <ele>125.16600036621</ele>
        <time>2010-04-10T12:15:59Z</time>
      </trkpt>
      <trkpt lat="45.06894" lon="4.84345">
        <ele>125.2200012207</ele>
        <time>2010-04-10T12:16:06Z</time>
      </trkpt>
      <trkpt lat="45.06893" lon="4.84345">
        <ele>125.42500305176</ele>
        <time>2010-04-10T12:16:07Z</time>
      </trkpt>
      <trkpt lat="45.06893" lon="4.84345">
        <ele>125.60299682617</ele>
        <time>2010-04-10T12:16:09Z</time>
      </trkpt>
      <trkpt lat="45.06884" lon="4.84346">
        <ele>125.7799987793</ele>
        <time>2010-04-10T12:16:19Z</time>
      </trkpt>
      <trkpt lat="45.06883" lon="4.84328">
        <ele>124.68399810791</ele>
        <time>2010-04-10T12:16:23Z</time>
      </trkpt>
      <trkpt lat="45.0689" lon="4.84294">
        <ele>125.03099822998</ele>
        <time>2010-04-10T12:16:28Z</time>
      </trkpt>
      <trkpt lat="45.06893" lon="4.84284">
        <ele>125.05000305176</ele>
        <time>2010-04-10T12:16:30Z</time>
      </trkpt>
      <trkpt lat="45.06896" lon="4.84271">
        <ele>125.35500335693</ele>
        <time>2010-04-10T12:16:35Z</time>
      </trkpt>
      <trkpt lat="45.06897" lon="4.84269">
        <ele>125.51999664307</ele>
        <time>2010-04-10T12:16:37Z</time>
      </trkpt>
      <trkpt lat="45.06898" lon="4.84269">
        <ele>125.37100219727</ele>
        <time>2010-04-10T12:16:41Z</time>
      </trkpt>
      <trkpt lat="45.06899" lon="4.84259">
        <ele>125.69400024414</ele>
        <time>2010-04-10T12:17:33Z</time>
      </trkpt>
      <trkpt lat="45.06903" lon="4.84244">
        <ele>125.78199768066</ele>
        <time>2010-04-10T12:17:37Z</time>
      </trkpt>
      <trkpt lat="45.06906" lon="4.84234">
        <ele>125.36699676514</ele>
        <time>2010-04-10T12:17:39Z</time>
      </trkpt>
      <trkpt lat="45.06903" lon="4.8421">
        <ele>125.09799957275</ele>
        <time>2010-04-10T12:17:43Z</time>
      </trkpt>
      <trkpt lat="45.06893" lon="4.84202">
        <ele>125.23699951172</ele>
        <time>2010-04-10T12:17:45Z</time>
      </trkpt>
      <trkpt lat="45.06854" lon="4.84182">
        <ele>126.44200134277</ele>
        <time>2010-04-10T12:17:50Z</time>
      </trkpt>
      <trkpt lat="45.06829" lon="4.84168">
        <ele>127.6309967041</ele>
        <time>2010-04-10T12:17:53Z</time>
      </trkpt>
      <trkpt lat="45.06812" lon="4.84158">
        <ele>128.09300231934</ele>
        <time>2010-04-10T12:17:55Z</time>
      </trkpt>
      <trkpt lat="45.06796" lon="4.84148">
        <ele>128.55099487305</ele>
        <time>2010-04-10T12:17:57Z</time>
      </trkpt>
      <trkpt lat="45.06789" lon="4.84143">
        <ele>128.73399353027</ele>
        <time>2010-04-10T12:17:58Z</time>
      </trkpt>
      <trkpt lat="45.06774" lon="4.84134">
        <ele>129.84700012207</ele>
        <time>2010-04-10T12:18:00Z</time>
      </trkpt>
      <trkpt lat="45.06768" lon="4.8413">
        <ele>130.20399475098</ele>
        <time>2010-04-10T12:18:01Z</time>
      </trkpt>
      <trkpt lat="45.06762" lon="4.84127">
        <ele>130.7380065918</ele>
        <time>2010-04-10T12:18:02Z</time>
      </trkpt>
      <trkpt lat="45.06746" lon="4.84117">
        <ele>131.18699645996</ele>
        <time>2010-04-10T12:18:05Z</time>
      </trkpt>
      <trkpt lat="45.0671" lon="4.84095">
        <ele>131.37800598144</ele>
        <time>2010-04-10T12:18:11Z</time>
      </trkpt>
      <trkpt lat="45.06652" lon="4.8406">
        <ele>131.49200439453</ele>
        <time>2010-04-10T12:18:20Z</time>
      </trkpt>
      <trkpt lat="45.06584" lon="4.84018">
        <ele>129.88400268555</ele>
        <time>2010-04-10T12:18:31Z</time>
      </trkpt>
      <trkpt lat="45.06577" lon="4.84014">
        <ele>130.21699523926</ele>
        <time>2010-04-10T12:18:32Z</time>
      </trkpt>
      <trkpt lat="45.06563" lon="4.83988">
        <ele>130.05499267578</ele>
        <time>2010-04-10T12:18:35Z</time>
      </trkpt>
      <trkpt lat="45.06567" lon="4.83967">
        <ele>128.43899536133</ele>
        <time>2010-04-10T12:18:37Z</time>
      </trkpt>
      <trkpt lat="45.0657" lon="4.83957">
        <ele>128.59199523926</ele>
        <time>2010-04-10T12:18:38Z</time>
      </trkpt>
      <trkpt lat="45.06595" lon="4.83893">
        <ele>127.45400238037</ele>
        <time>2010-04-10T12:18:45Z</time>
      </trkpt>
      <trkpt lat="45.06614" lon="4.83846">
        <ele>126.51399993897</ele>
        <time>2010-04-10T12:18:50Z</time>
      </trkpt>
      <trkpt lat="45.06634" lon="4.83797">
        <ele>126.452003479</ele>
        <time>2010-04-10T12:18:56Z</time>
      </trkpt>
      <trkpt lat="45.06638" lon="4.83789">
        <ele>126.31300354004</ele>
        <time>2010-04-10T12:18:57Z</time>
      </trkpt>
      <trkpt lat="45.0666" lon="4.83735">
        <ele>127.43000030518</ele>
        <time>2010-04-10T12:19:03Z</time>
      </trkpt>
      <trkpt lat="45.06692" lon="4.83661">
        <ele>127.21199798584</ele>
        <time>2010-04-10T12:19:12Z</time>
      </trkpt>
      <trkpt lat="45.06725" lon="4.83589">
        <ele>127.26999664307</ele>
        <time>2010-04-10T12:19:21Z</time>
      </trkpt>
      <trkpt lat="45.06762" lon="4.83508">
        <ele>127.40200042725</ele>
        <time>2010-04-10T12:19:31Z</time>
      </trkpt>
      <trkpt lat="45.06786" lon="4.83451">
        <ele>129.08999633789</ele>
        <time>2010-04-10T12:19:38Z</time>
      </trkpt>
      <trkpt lat="45.06808" lon="4.83408">
        <ele>126.07299804688</ele>
        <time>2010-04-10T12:19:43Z</time>
      </trkpt>
      <trkpt lat="45.06828" lon="4.83373">
        <ele>124.68599700928</ele>
        <time>2010-04-10T12:19:47Z</time>
      </trkpt>
      <trkpt lat="45.06855" lon="4.83324">
        <ele>126.08999633789</ele>
        <time>2010-04-10T12:19:53Z</time>
      </trkpt>
      <trkpt lat="45.06873" lon="4.8327">
        <ele>126.34200286865</ele>
        <time>2010-04-10T12:19:59Z</time>
      </trkpt>
      <trkpt lat="45.06881" lon="4.83215">
        <ele>125.24900054932</ele>
        <time>2010-04-10T12:20:05Z</time>
      </trkpt>
      <trkpt lat="45.06881" lon="4.8316">
        <ele>125.84300231934</ele>
        <time>2010-04-10T12:20:11Z</time>
      </trkpt>
      <trkpt lat="45.06881" lon="4.83116">
        <ele>125.93000030518</ele>
        <time>2010-04-10T12:20:16Z</time>
      </trkpt>
      <trkpt lat="45.06884" lon="4.83046">
        <ele>125.49500274658</ele>
        <time>2010-04-10T12:20:23Z</time>
      </trkpt>
      <trkpt lat="45.06897" lon="4.82998">
        <ele>125.39700317383</ele>
        <time>2010-04-10T12:20:29Z</time>
      </trkpt>
      <trkpt lat="45.0691" lon="4.82966">
        <ele>125.19100189209</ele>
        <time>2010-04-10T12:20:35Z</time>
      </trkpt>
      <trkpt lat="45.06929" lon="4.82935">
        <ele>124.96199798584</ele>
        <time>2010-04-10T12:20:40Z</time>
      </trkpt>
      <trkpt lat="45.06965" lon="4.82885">
        <ele>124.38800048828</ele>
        <time>2010-04-10T12:20:48Z</time>
      </trkpt>
      <trkpt lat="45.07003" lon="4.82832">
        <ele>124.43000030518</ele>
        <time>2010-04-10T12:20:56Z</time>
      </trkpt>
      <trkpt lat="45.07047" lon="4.82759">
        <ele>124.18000030518</ele>
        <time>2010-04-10T12:21:05Z</time>
      </trkpt>
      <trkpt lat="45.07077" lon="4.827">
        <ele>125.05999755859</ele>
        <time>2010-04-10T12:21:12Z</time>
      </trkpt>
      <trkpt lat="45.07101" lon="4.82629">
        <ele>124.77700042725</ele>
        <time>2010-04-10T12:21:20Z</time>
      </trkpt>
      <trkpt lat="45.07128" lon="4.82554">
        <ele>124.63899993897</ele>
        <time>2010-04-10T12:21:28Z</time>
      </trkpt>
      <trkpt lat="45.07157" lon="4.8247">
        <ele>125.26399993897</ele>
        <time>2010-04-10T12:21:37Z</time>
      </trkpt>
      <trkpt lat="45.07185" lon="4.82386">
        <ele>126.4169998169</ele>
        <time>2010-04-10T12:21:46Z</time>
      </trkpt>
      <trkpt lat="45.07206" lon="4.82327">
        <ele>126.65699768066</ele>
        <time>2010-04-10T12:21:53Z</time>
      </trkpt>
      <trkpt lat="45.07224" lon="4.82279">
        <ele>128.56300354004</ele>
        <time>2010-04-10T12:21:59Z</time>
      </trkpt>
      <trkpt lat="45.07236" lon="4.82237">
        <ele>129.9700012207</ele>
        <time>2010-04-10T12:22:05Z</time>
      </trkpt>
      <trkpt lat="45.07238" lon="4.82231">
        <ele>130.00799560547</ele>
        <time>2010-04-10T12:22:06Z</time>
      </trkpt>
      <trkpt lat="45.07253" lon="4.82209">
        <ele>129.2859954834</ele>
        <time>2010-04-10T12:22:10Z</time>
      </trkpt>
      <trkpt lat="45.07258" lon="4.82189">
        <ele>129.57099914551</ele>
        <time>2010-04-10T12:22:13Z</time>
      </trkpt>
      <trkpt lat="45.0725" lon="4.82177">
        <ele>129.88600158691</ele>
        <time>2010-04-10T12:22:15Z</time>
      </trkpt>
      <trkpt lat="45.07233" lon="4.82174">
        <ele>129.30900573731</ele>
        <time>2010-04-10T12:22:18Z</time>
      </trkpt>
      <trkpt lat="45.07218" lon="4.82162">
        <ele>129.21699523926</ele>
        <time>2010-04-10T12:22:21Z</time>
      </trkpt>
      <trkpt lat="45.07197" lon="4.82139">
        <ele>128.69299316406</ele>
        <time>2010-04-10T12:22:25Z</time>
      </trkpt>
      <trkpt lat="45.07183" lon="4.82124">
        <ele>129.4880065918</ele>
        <time>2010-04-10T12:22:28Z</time>
      </trkpt>
      <trkpt lat="45.07178" lon="4.82114">
        <ele>129.6309967041</ele>
        <time>2010-04-10T12:22:30Z</time>
      </trkpt>
      <trkpt lat="45.07175" lon="4.82112">
        <ele>130.11099243164</ele>
        <time>2010-04-10T12:22:31Z</time>
      </trkpt>
      <trkpt lat="45.07172" lon="4.8212">
        <ele>129.22700500488</ele>
        <time>2010-04-10T12:22:34Z</time>
      </trkpt>
      <trkpt lat="45.07175" lon="4.82123">
        <ele>128.56700134277</ele>
        <time>2010-04-10T12:22:35Z</time>
      </trkpt>
      <trkpt lat="45.07184" lon="4.82132">
        <ele>127.94499969482</ele>
        <time>2010-04-10T12:22:37Z</time>
      </trkpt>
      <trkpt lat="45.07189" lon="4.82138">
        <ele>128.77299499512</ele>
        <time>2010-04-10T12:22:38Z</time>
      </trkpt>
      <trkpt lat="45.07196" lon="4.82145">
        <ele>128.39599609375</ele>
        <time>2010-04-10T12:22:39Z</time>
      </trkpt>
      <trkpt lat="45.07215" lon="4.82165">
        <ele>127.77600097656</ele>
        <time>2010-04-10T12:22:42Z</time>
      </trkpt>
      <trkpt lat="45.07224" lon="4.82177">
        <ele>128.25399780273</ele>
        <time>2010-04-10T12:22:44Z</time>
      </trkpt>
      <trkpt lat="45.07232" lon="4.82201">
        <ele>129.07899475098</ele>
        <time>2010-04-10T12:22:48Z</time>
      </trkpt>
      <trkpt lat="45.07243" lon="4.82217">
        <ele>129.42500305176</ele>
        <time>2010-04-10T12:22:52Z</time>
      </trkpt>
      <trkpt lat="45.07255" lon="4.8222">
        <ele>129.7140045166</ele>
        <time>2010-04-10T12:22:56Z</time>
      </trkpt>
      <trkpt lat="45.07261" lon="4.8221">
        <ele>129.05900573731</ele>
        <time>2010-04-10T12:23:20Z</time>
      </trkpt>
      <trkpt lat="45.07259" lon="4.82192">
        <ele>129.47900390625</ele>
        <time>2010-04-10T12:23:23Z</time>
      </trkpt>
      <trkpt lat="45.07243" lon="4.82175">
        <ele>129.42199707031</ele>
        <time>2010-04-10T12:23:26Z</time>
      </trkpt>
      <trkpt lat="45.07224" lon="4.82168">
        <ele>128.92500305176</ele>
        <time>2010-04-10T12:23:29Z</time>
      </trkpt>
      <trkpt lat="45.07205" lon="4.82148">
        <ele>128.15299987793</ele>
        <time>2010-04-10T12:23:32Z</time>
      </trkpt>
      <trkpt lat="45.0718" lon="4.82119">
        <ele>128.56500244141</ele>
        <time>2010-04-10T12:23:36Z</time>
      </trkpt>
      <trkpt lat="45.0716" lon="4.82099">
        <ele>127.15399932861</ele>
        <time>2010-04-10T12:23:39Z</time>
      </trkpt>
      <trkpt lat="45.0714" lon="4.82079">
        <ele>129.59599304199</ele>
        <time>2010-04-10T12:23:42Z</time>
      </trkpt>
      <trkpt lat="45.07098" lon="4.82032">
        <ele>129.03199768066</ele>
        <time>2010-04-10T12:23:48Z</time>
      </trkpt>
      <trkpt lat="45.0705" lon="4.81976">
        <ele>129.82499694824</ele>
        <time>2010-04-10T12:23:55Z</time>
      </trkpt>
      <trkpt lat="45.07016" lon="4.81922">
        <ele>130.44299316406</ele>
        <time>2010-04-10T12:24:01Z</time>
      </trkpt>
      <trkpt lat="45.06992" lon="4.8186">
        <ele>131.70199584961</ele>
        <time>2010-04-10T12:24:07Z</time>
      </trkpt>
      <trkpt lat="45.06964" lon="4.81762">
        <ele>131.80099487305</ele>
        <time>2010-04-10T12:24:16Z</time>
      </trkpt>
      <trkpt lat="45.06932" lon="4.81649">
        <ele>132.0059967041</ele>
        <time>2010-04-10T12:24:26Z</time>
      </trkpt>
      <trkpt lat="45.06913" lon="4.81585">
        <ele>131.88299560547</ele>
        <time>2010-04-10T12:24:32Z</time>
      </trkpt>
      <trkpt lat="45.06889" lon="4.815">
        <ele>132.73199462891</ele>
        <time>2010-04-10T12:24:40Z</time>
      </trkpt>
      <trkpt lat="45.06863" lon="4.81414">
        <ele>133.72799682617</ele>
        <time>2010-04-10T12:24:48Z</time>
      </trkpt>
      <trkpt lat="45.06825" lon="4.81316">
        <ele>134.54499816894</ele>
        <time>2010-04-10T12:24:57Z</time>
      </trkpt>
      <trkpt lat="45.068" lon="4.81265">
        <ele>135.36999511719</ele>
        <time>2010-04-10T12:25:02Z</time>
      </trkpt>
      <trkpt lat="45.06772" lon="4.81187">
        <ele>136.90699768066</ele>
        <time>2010-04-10T12:25:09Z</time>
      </trkpt>
      <trkpt lat="45.06747" lon="4.81123">
        <ele>137.71699523926</ele>
        <time>2010-04-10T12:25:15Z</time>
      </trkpt>
      <trkpt lat="45.06731" lon="4.81061">
        <ele>138.1609954834</ele>
        <time>2010-04-10T12:25:21Z</time>
      </trkpt>
      <trkpt lat="45.0672" lon="4.80978">
        <ele>136.90800476074</ele>
        <time>2010-04-10T12:25:28Z</time>
      </trkpt>
      <trkpt lat="45.06713" lon="4.80891">
        <ele>135.72599792481</ele>
        <time>2010-04-10T12:25:35Z</time>
      </trkpt>
      <trkpt lat="45.06719" lon="4.80846">
        <ele>135.03700256348</ele>
        <time>2010-04-10T12:25:39Z</time>
      </trkpt>
      <trkpt lat="45.06711" lon="4.80827">
        <ele>135.34700012207</ele>
        <time>2010-04-10T12:25:41Z</time>
      </trkpt>
      <trkpt lat="45.067" lon="4.80795">
        <ele>134.57800292969</ele>
        <time>2010-04-10T12:25:44Z</time>
      </trkpt>
      <trkpt lat="45.06699" lon="4.80783">
        <ele>134.17900085449</ele>
        <time>2010-04-10T12:25:45Z</time>
      </trkpt>
      <trkpt lat="45.06691" lon="4.80686">
        <ele>133.43200683594</ele>
        <time>2010-04-10T12:25:53Z</time>
      </trkpt>
      <trkpt lat="45.0669" lon="4.80617">
        <ele>132.93299865723</ele>
        <time>2010-04-10T12:25:59Z</time>
      </trkpt>
      <trkpt lat="45.0669" lon="4.80541">
        <ele>132.09700012207</ele>
        <time>2010-04-10T12:26:06Z</time>
      </trkpt>
      <trkpt lat="45.0669" lon="4.80489">
        <ele>131.93200683594</ele>
        <time>2010-04-10T12:26:11Z</time>
      </trkpt>
      <trkpt lat="45.0669" lon="4.80414">
        <ele>132.08999633789</ele>
        <time>2010-04-10T12:26:18Z</time>
      </trkpt>
      <trkpt lat="45.06691" lon="4.80325">
        <ele>132.41799926758</ele>
        <time>2010-04-10T12:26:26Z</time>
      </trkpt>
      <trkpt lat="45.06693" lon="4.80229">
        <ele>131.61399841309</ele>
        <time>2010-04-10T12:26:34Z</time>
      </trkpt>
      <trkpt lat="45.06695" lon="4.80112">
        <ele>132.51899719238</ele>
        <time>2010-04-10T12:26:44Z</time>
      </trkpt>
      <trkpt lat="45.06697" lon="4.80008">
        <ele>131.88200378418</ele>
        <time>2010-04-10T12:26:53Z</time>
      </trkpt>
      <trkpt lat="45.06698" lon="4.79869">
        <ele>132.75399780273</ele>
        <time>2010-04-10T12:27:05Z</time>
      </trkpt>
      <trkpt lat="45.06694" lon="4.79789">
        <ele>133.60600280762</ele>
        <time>2010-04-10T12:27:12Z</time>
      </trkpt>
      <trkpt lat="45.06683" lon="4.79748">
        <ele>134.48300170898</ele>
        <time>2010-04-10T12:27:16Z</time>
      </trkpt>
      <trkpt lat="45.06651" lon="4.79675">
        <ele>135.97500610352</ele>
        <time>2010-04-10T12:27:24Z</time>
      </trkpt>
      <trkpt lat="45.0663" lon="4.79635">
        <ele>137.40299987793</ele>
        <time>2010-04-10T12:27:29Z</time>
      </trkpt>
      <trkpt lat="45.06603" lon="4.79562">
        <ele>137.28500366211</ele>
        <time>2010-04-10T12:27:37Z</time>
      </trkpt>
      <trkpt lat="45.0657" lon="4.79461">
        <ele>137.74699401856</ele>
        <time>2010-04-10T12:27:47Z</time>
      </trkpt>
      <trkpt lat="45.06534" lon="4.79364">
        <ele>139.07299804688</ele>
        <time>2010-04-10T12:27:57Z</time>
      </trkpt>
      <trkpt lat="45.0653" lon="4.79356">
        <ele>138.92100524902</ele>
        <time>2010-04-10T12:27:58Z</time>
      </trkpt>
      <trkpt lat="45.06488" lon="4.79308">
        <ele>139.20100402832</ele>
        <time>2010-04-10T12:28:05Z</time>
      </trkpt>
      <trkpt lat="45.06465" lon="4.7928">
        <ele>139.2380065918</ele>
        <time>2010-04-10T12:28:09Z</time>
      </trkpt>
      <trkpt lat="45.0644" lon="4.79229">
        <ele>139.38400268555</ele>
        <time>2010-04-10T12:28:15Z</time>
      </trkpt>
      <trkpt lat="45.0643" lon="4.79177">
        <ele>139.27200317383</ele>
        <time>2010-04-10T12:28:20Z</time>
      </trkpt>
      <trkpt lat="45.0643" lon="4.79157">
        <ele>137.76800537109</ele>
        <time>2010-04-10T12:28:22Z</time>
      </trkpt>
      <trkpt lat="45.06438" lon="4.79121">
        <ele>138.32899475098</ele>
        <time>2010-04-10T12:28:26Z</time>
      </trkpt>
      <trkpt lat="45.06468" lon="4.79039">
        <ele>139.43800354004</ele>
        <time>2010-04-10T12:28:36Z</time>
      </trkpt>
      <trkpt lat="45.06487" lon="4.78967">
        <ele>139.87699890137</ele>
        <time>2010-04-10T12:28:44Z</time>
      </trkpt>
      <trkpt lat="45.06503" lon="4.78893">
        <ele>141.97799682617</ele>
        <time>2010-04-10T12:28:52Z</time>
      </trkpt>
      <trkpt lat="45.06513" lon="4.78844">
        <ele>142.12100219727</ele>
        <time>2010-04-10T12:28:57Z</time>
      </trkpt>
      <trkpt lat="45.06532" lon="4.78779">
        <ele>142.73500061035</ele>
        <time>2010-04-10T12:29:04Z</time>
      </trkpt>
      <trkpt lat="45.06552" lon="4.7874">
        <ele>142.89700317383</ele>
        <time>2010-04-10T12:29:09Z</time>
      </trkpt>
      <trkpt lat="45.0659" lon="4.78674">
        <ele>144.125</ele>
        <time>2010-04-10T12:29:18Z</time>
      </trkpt>
      <trkpt lat="45.06612" lon="4.78614">
        <ele>144.86599731445</ele>
        <time>2010-04-10T12:29:25Z</time>
      </trkpt>
      <trkpt lat="45.06635" lon="4.7852">
        <ele>146.07699584961</ele>
        <time>2010-04-10T12:29:35Z</time>
      </trkpt>
      <trkpt lat="45.06639" lon="4.78471">
        <ele>147.5299987793</ele>
        <time>2010-04-10T12:29:40Z</time>
      </trkpt>
      <trkpt lat="45.06628" lon="4.78391">
        <ele>148.20500183106</ele>
        <time>2010-04-10T12:29:48Z</time>
      </trkpt>
      <trkpt lat="45.06628" lon="4.78337">
        <ele>149.61500549316</ele>
        <time>2010-04-10T12:29:54Z</time>
      </trkpt>
      <trkpt lat="45.0663" lon="4.78264">
        <ele>151.00999450684</ele>
        <time>2010-04-10T12:30:03Z</time>
      </trkpt>
      <trkpt lat="45.06625" lon="4.78211">
        <ele>152.08000183106</ele>
        <time>2010-04-10T12:30:09Z</time>
      </trkpt>
      <trkpt lat="45.06611" lon="4.78172">
        <ele>152.38900756836</ele>
        <time>2010-04-10T12:30:14Z</time>
      </trkpt>
      <trkpt lat="45.06601" lon="4.78161">
        <ele>152.59599304199</ele>
        <time>2010-04-10T12:30:16Z</time>
      </trkpt>
      <trkpt lat="45.06575" lon="4.78141">
        <ele>153.69999694824</ele>
        <time>2010-04-10T12:30:21Z</time>
      </trkpt>
      <trkpt lat="45.06532" lon="4.78134">
        <ele>154.75399780273</ele>
        <time>2010-04-10T12:30:28Z</time>
      </trkpt>
      <trkpt lat="45.06478" lon="4.78129">
        <ele>155.54299926758</ele>
        <time>2010-04-10T12:30:36Z</time>
      </trkpt>
      <trkpt lat="45.06459" lon="4.78129">
        <ele>156.01100158691</ele>
        <time>2010-04-10T12:30:39Z</time>
      </trkpt>
      <trkpt lat="45.06437" lon="4.78142">
        <ele>156.39399719238</ele>
        <time>2010-04-10T12:30:43Z</time>
      </trkpt>
      <trkpt lat="45.06423" lon="4.78171">
        <ele>156.7619934082</ele>
        <time>2010-04-10T12:30:47Z</time>
      </trkpt>
      <trkpt lat="45.06403" lon="4.78213">
        <ele>158.25900268555</ele>
        <time>2010-04-10T12:30:53Z</time>
      </trkpt>
      <trkpt lat="45.06387" lon="4.78259">
        <ele>159.75700378418</ele>
        <time>2010-04-10T12:30:59Z</time>
      </trkpt>
      <trkpt lat="45.06365" lon="4.78309">
        <ele>161.28799438477</ele>
        <time>2010-04-10T12:31:06Z</time>
      </trkpt>
      <trkpt lat="45.06352" lon="4.78346">
        <ele>162.75799560547</ele>
        <time>2010-04-10T12:31:11Z</time>
      </trkpt>
      <trkpt lat="45.06347" lon="4.78388">
        <ele>163.52799987793</ele>
        <time>2010-04-10T12:31:16Z</time>
      </trkpt>
      <trkpt lat="45.06345" lon="4.78441">
        <ele>164.35600280762</ele>
        <time>2010-04-10T12:31:22Z</time>
      </trkpt>
      <trkpt lat="45.06328" lon="4.78494">
        <ele>164.85800170898</ele>
        <time>2010-04-10T12:31:29Z</time>
      </trkpt>
      <trkpt lat="45.06295" lon="4.78546">
        <ele>165.40699768066</ele>
        <time>2010-04-10T12:31:37Z</time>
      </trkpt>
      <trkpt lat="45.06253" lon="4.78608">
        <ele>165.49099731445</ele>
        <time>2010-04-10T12:31:47Z</time>
      </trkpt>
      <trkpt lat="45.06233" lon="4.78624">
        <ele>167.08000183106</ele>
        <time>2010-04-10T12:31:51Z</time>
      </trkpt>
      <trkpt lat="45.06188" lon="4.78654">
        <ele>167.69500732422</ele>
        <time>2010-04-10T12:32:00Z</time>
      </trkpt>
      <trkpt lat="45.06147" lon="4.78672">
        <ele>169.81399536133</ele>
        <time>2010-04-10T12:32:08Z</time>
      </trkpt>
      <trkpt lat="45.06114" lon="4.78673">
        <ele>169.58599853516</ele>
        <time>2010-04-10T12:32:14Z</time>
      </trkpt>
      <trkpt lat="45.06076" lon="4.78675">
        <ele>171.58999633789</ele>
        <time>2010-04-10T12:32:21Z</time>
      </trkpt>
      <trkpt lat="45.06061" lon="4.78676">
        <ele>172.56599426269</ele>
        <time>2010-04-10T12:32:24Z</time>
      </trkpt>
      <trkpt lat="45.0603" lon="4.78664">
        <ele>172.90800476074</ele>
        <time>2010-04-10T12:32:30Z</time>
      </trkpt>
      <trkpt lat="45.05988" lon="4.78644">
        <ele>174.76699829102</ele>
        <time>2010-04-10T12:32:38Z</time>
      </trkpt>
      <trkpt lat="45.05977" lon="4.78637">
        <ele>175.23899841309</ele>
        <time>2010-04-10T12:32:40Z</time>
      </trkpt>
      <trkpt lat="45.05959" lon="4.78619">
        <ele>175.55099487305</ele>
        <time>2010-04-10T12:32:44Z</time>
      </trkpt>
      <trkpt lat="45.05951" lon="4.78607">
        <ele>175.42700195312</ele>
        <time>2010-04-10T12:32:46Z</time>
      </trkpt>
      <trkpt lat="45.0592" lon="4.78551">
        <ele>177.06500244141</ele>
        <time>2010-04-10T12:32:55Z</time>
      </trkpt>
      <trkpt lat="45.05892" lon="4.78492">
        <ele>178.30099487305</ele>
        <time>2010-04-10T12:33:04Z</time>
      </trkpt>
      <trkpt lat="45.05889" lon="4.78486">
        <ele>177.9109954834</ele>
        <time>2010-04-10T12:33:05Z</time>
      </trkpt>
      <trkpt lat="45.05867" lon="4.78469">
        <ele>179.43400573731</ele>
        <time>2010-04-10T12:33:10Z</time>
      </trkpt>
      <trkpt lat="45.05852" lon="4.78469">
        <ele>179.9880065918</ele>
        <time>2010-04-10T12:33:13Z</time>
      </trkpt>
      <trkpt lat="45.05837" lon="4.78475">
        <ele>180.50700378418</ele>
        <time>2010-04-10T12:33:16Z</time>
      </trkpt>
      <trkpt lat="45.05817" lon="4.78475">
        <ele>181.05799865723</ele>
        <time>2010-04-10T12:33:20Z</time>
      </trkpt>
      <trkpt lat="45.05812" lon="4.78473">
        <ele>180.56300354004</ele>
        <time>2010-04-10T12:33:21Z</time>
      </trkpt>
      <trkpt lat="45.05792" lon="4.78465">
        <ele>181.8450012207</ele>
        <time>2010-04-10T12:33:25Z</time>
      </trkpt>
      <trkpt lat="45.05772" lon="4.78465">
        <ele>182.77400207519</ele>
        <time>2010-04-10T12:33:29Z</time>
      </trkpt>
      <trkpt lat="45.05742" lon="4.78481">
        <ele>183.93400573731</ele>
        <time>2010-04-10T12:33:35Z</time>
      </trkpt>
      <trkpt lat="45.05732" lon="4.78487">
        <ele>184.47700500488</ele>
        <time>2010-04-10T12:33:37Z</time>
      </trkpt>
      <trkpt lat="45.05706" lon="4.78491">
        <ele>184.42999267578</ele>
        <time>2010-04-10T12:33:42Z</time>
      </trkpt>
      <trkpt lat="45.05669" lon="4.78476">
        <ele>184.84700012207</ele>
        <time>2010-04-10T12:33:50Z</time>
      </trkpt>
      <trkpt lat="45.0566" lon="4.78469">
        <ele>185.29699707031</ele>
        <time>2010-04-10T12:33:52Z</time>
      </trkpt>
      <trkpt lat="45.05647" lon="4.78446">
        <ele>187.51899719238</ele>
        <time>2010-04-10T12:33:56Z</time>
      </trkpt>
      <trkpt lat="45.05647" lon="4.78423">
        <ele>188.75</ele>
        <time>2010-04-10T12:33:59Z</time>
      </trkpt>
      <trkpt lat="45.05648" lon="4.78415">
        <ele>189.63999938965</ele>
        <time>2010-04-10T12:34:00Z</time>
      </trkpt>
      <trkpt lat="45.05664" lon="4.78349">
        <ele>191.67700195312</ele>
        <time>2010-04-10T12:34:09Z</time>
      </trkpt>
      <trkpt lat="45.05675" lon="4.78304">
        <ele>193.29499816894</ele>
        <time>2010-04-10T12:34:15Z</time>
      </trkpt>
      <trkpt lat="45.05687" lon="4.78255">
        <ele>194.46899414062</ele>
        <time>2010-04-10T12:34:22Z</time>
      </trkpt>
      <trkpt lat="45.0569" lon="4.78242">
        <ele>192.94700622559</ele>
        <time>2010-04-10T12:34:24Z</time>
      </trkpt>
      <trkpt lat="45.05688" lon="4.7822">
        <ele>193.54400634766</ele>
        <time>2010-04-10T12:34:28Z</time>
      </trkpt>
      <trkpt lat="45.05678" lon="4.78213">
        <ele>193.10299682617</ele>
        <time>2010-04-10T12:34:31Z</time>
      </trkpt>
      <trkpt lat="45.05653" lon="4.78207">
        <ele>191.37899780273</ele>
        <time>2010-04-10T12:34:36Z</time>
      </trkpt>
      <trkpt lat="45.05617" lon="4.78198">
        <ele>190.11999511719</ele>
        <time>2010-04-10T12:34:42Z</time>
      </trkpt>
      <trkpt lat="45.05611" lon="4.78195">
        <ele>190.27000427246</ele>
        <time>2010-04-10T12:34:43Z</time>
      </trkpt>
      <trkpt lat="45.05587" lon="4.78176">
        <ele>188.48300170898</ele>
        <time>2010-04-10T12:34:47Z</time>
      </trkpt>
      <trkpt lat="45.05582" lon="4.78171">
        <ele>188.23399353027</ele>
        <time>2010-04-10T12:34:48Z</time>
      </trkpt>
      <trkpt lat="45.05548" lon="4.78159">
        <ele>186.66799926758</ele>
        <time>2010-04-10T12:34:53Z</time>
      </trkpt>
      <trkpt lat="45.05533" lon="4.78144">
        <ele>185.96600341797</ele>
        <time>2010-04-10T12:34:56Z</time>
      </trkpt>
      <trkpt lat="45.0553" lon="4.78136">
        <ele>186.03500366211</ele>
        <time>2010-04-10T12:34:57Z</time>
      </trkpt>
      <trkpt lat="45.05507" lon="4.78113">
        <ele>185.48899841309</ele>
        <time>2010-04-10T12:35:02Z</time>
      </trkpt>
      <trkpt lat="45.05495" lon="4.78103">
        <ele>186.88999938965</ele>
        <time>2010-04-10T12:35:05Z</time>
      </trkpt>
      <trkpt lat="45.05492" lon="4.781">
        <ele>187.42599487305</ele>
        <time>2010-04-10T12:35:06Z</time>
      </trkpt>
      <trkpt lat="45.05486" lon="4.78089">
        <ele>188.80299377441</ele>
        <time>2010-04-10T12:35:09Z</time>
      </trkpt>
      <trkpt lat="45.05475" lon="4.78071">
        <ele>190.74899291992</ele>
        <time>2010-04-10T12:35:15Z</time>
      </trkpt>
      <trkpt lat="45.05465" lon="4.78061">
        <ele>192.12199401856</ele>
        <time>2010-04-10T12:35:19Z</time>
      </trkpt>
      <trkpt lat="45.05455" lon="4.78052">
        <ele>194.03999328613</ele>
        <time>2010-04-10T12:35:23Z</time>
      </trkpt>
      <trkpt lat="45.05452" lon="4.7805">
        <ele>194.27299499512</ele>
        <time>2010-04-10T12:35:24Z</time>
      </trkpt>
      <trkpt lat="45.05434" lon="4.78036">
        <ele>195.91299438477</ele>
        <time>2010-04-10T12:35:30Z</time>
      </trkpt>
      <trkpt lat="45.05418" lon="4.78015">
        <ele>198.56500244141</ele>
        <time>2010-04-10T12:35:37Z</time>
      </trkpt>
      <trkpt lat="45.05411" lon="4.77988">
        <ele>200.97200012207</ele>
        <time>2010-04-10T12:35:44Z</time>
      </trkpt>
      <trkpt lat="45.0541" lon="4.7798">
        <ele>201.80000305176</ele>
        <time>2010-04-10T12:35:46Z</time>
      </trkpt>
      <trkpt lat="45.05407" lon="4.77952">
        <ele>203.86199951172</ele>
        <time>2010-04-10T12:35:53Z</time>
      </trkpt>
      <trkpt lat="45.05402" lon="4.77914">
        <ele>206.67500305176</ele>
        <time>2010-04-10T12:36:02Z</time>
      </trkpt>
      <trkpt lat="45.05401" lon="4.77885">
        <ele>208.89500427246</ele>
        <time>2010-04-10T12:36:09Z</time>
      </trkpt>
      <trkpt lat="45.05401" lon="4.77856">
        <ele>210.77600097656</ele>
        <time>2010-04-10T12:36:16Z</time>
      </trkpt>
      <trkpt lat="45.05402" lon="4.77826">
        <ele>212.84399414062</ele>
        <time>2010-04-10T12:36:23Z</time>
      </trkpt>
      <trkpt lat="45.05396" lon="4.77801">
        <ele>213.8390045166</ele>
        <time>2010-04-10T12:36:29Z</time>
      </trkpt>
      <trkpt lat="45.05382" lon="4.77766">
        <ele>216.36500549316</ele>
        <time>2010-04-10T12:36:37Z</time>
      </trkpt>
      <trkpt lat="45.05368" lon="4.77715">
        <ele>220.11999511719</ele>
        <time>2010-04-10T12:36:47Z</time>
      </trkpt>
      <trkpt lat="45.05368" lon="4.77684">
        <ele>222.80900573731</ele>
        <time>2010-04-10T12:36:53Z</time>
      </trkpt>
      <trkpt lat="45.05368" lon="4.77664">
        <ele>224.59100341797</ele>
        <time>2010-04-10T12:36:58Z</time>
      </trkpt>
      <trkpt lat="45.05359" lon="4.77646">
        <ele>225.02699279785</ele>
        <time>2010-04-10T12:37:03Z</time>
      </trkpt>
      <trkpt lat="45.05341" lon="4.77625">
        <ele>227.58099365234</ele>
        <time>2010-04-10T12:37:10Z</time>
      </trkpt>
      <trkpt lat="45.05335" lon="4.776">
        <ele>230.52200317383</ele>
        <time>2010-04-10T12:37:16Z</time>
      </trkpt>
      <trkpt lat="45.05331" lon="4.77568">
        <ele>232.12699890137</ele>
        <time>2010-04-10T12:37:24Z</time>
      </trkpt>
      <trkpt lat="45.05328" lon="4.77548">
        <ele>234.79899597168</ele>
        <time>2010-04-10T12:37:29Z</time>
      </trkpt>
      <trkpt lat="45.05329" lon="4.77529">
        <ele>236.8869934082</ele>
        <time>2010-04-10T12:37:33Z</time>
      </trkpt>
      <trkpt lat="45.05331" lon="4.7752">
        <ele>238.00799560547</ele>
        <time>2010-04-10T12:37:35Z</time>
      </trkpt>
      <trkpt lat="45.05343" lon="4.77488">
        <ele>239.17100524902</ele>
        <time>2010-04-10T12:37:42Z</time>
      </trkpt>
      <trkpt lat="45.05362" lon="4.77455">
        <ele>241.19099426269</ele>
        <time>2010-04-10T12:37:50Z</time>
      </trkpt>
      <trkpt lat="45.05383" lon="4.77425">
        <ele>244.27499389648</ele>
        <time>2010-04-10T12:37:59Z</time>
      </trkpt>
      <trkpt lat="45.05402" lon="4.77406">
        <ele>246.59899902344</ele>
        <time>2010-04-10T12:38:06Z</time>
      </trkpt>
      <trkpt lat="45.05421" lon="4.77382">
        <ele>248.81300354004</ele>
        <time>2010-04-10T12:38:14Z</time>
      </trkpt>
      <trkpt lat="45.0543" lon="4.77365">
        <ele>250.80099487305</ele>
        <time>2010-04-10T12:38:19Z</time>
      </trkpt>
      <trkpt lat="45.0544" lon="4.77347">
        <ele>252.09700012207</ele>
        <time>2010-04-10T12:38:25Z</time>
      </trkpt>
      <trkpt lat="45.05457" lon="4.77324">
        <ele>254.04800415039</ele>
        <time>2010-04-10T12:38:33Z</time>
      </trkpt>
      <trkpt lat="45.0548" lon="4.77302">
        <ele>256.37200927734</ele>
        <time>2010-04-10T12:38:42Z</time>
      </trkpt>
      <trkpt lat="45.05499" lon="4.77274">
        <ele>258.61700439453</ele>
        <time>2010-04-10T12:38:51Z</time>
      </trkpt>
      <trkpt lat="45.05505" lon="4.7725">
        <ele>260.65798950195</ele>
        <time>2010-04-10T12:38:57Z</time>
      </trkpt>
      <trkpt lat="45.05508" lon="4.77225">
        <ele>262.64999389648</ele>
        <time>2010-04-10T12:39:03Z</time>
      </trkpt>
      <trkpt lat="45.05508" lon="4.77192">
        <ele>264.97698974609</ele>
        <time>2010-04-10T12:39:11Z</time>
      </trkpt>
      <trkpt lat="45.05504" lon="4.77163">
        <ele>266.63101196289</ele>
        <time>2010-04-10T12:39:19Z</time>
      </trkpt>
      <trkpt lat="45.05502" lon="4.77124">
        <ele>269.34600830078</ele>
        <time>2010-04-10T12:39:29Z</time>
      </trkpt>
      <trkpt lat="45.05499" lon="4.77092">
        <ele>271.81600952148</ele>
        <time>2010-04-10T12:39:37Z</time>
      </trkpt>
      <trkpt lat="45.0549" lon="4.77056">
        <ele>275.1669921875</ele>
        <time>2010-04-10T12:39:46Z</time>
      </trkpt>
      <trkpt lat="45.05482" lon="4.77018">
        <ele>277.62100219727</ele>
        <time>2010-04-10T12:39:55Z</time>
      </trkpt>
      <trkpt lat="45.05477" lon="4.76982">
        <ele>279.95300292969</ele>
        <time>2010-04-10T12:40:03Z</time>
      </trkpt>
      <trkpt lat="45.05471" lon="4.76957">
        <ele>281.55700683594</ele>
        <time>2010-04-10T12:40:09Z</time>
      </trkpt>
      <trkpt lat="45.05459" lon="4.76936">
        <ele>283.32000732422</ele>
        <time>2010-04-10T12:40:15Z</time>
      </trkpt>
      <trkpt lat="45.05442" lon="4.76917">
        <ele>285.99099731445</ele>
        <time>2010-04-10T12:40:22Z</time>
      </trkpt>
      <trkpt lat="45.05426" lon="4.76911">
        <ele>288.33700561523</ele>
        <time>2010-04-10T12:40:27Z</time>
      </trkpt>
      <trkpt lat="45.05423" lon="4.7691">
        <ele>288.43701171875</ele>
        <time>2010-04-10T12:40:28Z</time>
      </trkpt>
      <trkpt lat="45.05413" lon="4.76908">
        <ele>289.84698486328</ele>
        <time>2010-04-10T12:40:31Z</time>
      </trkpt>
      <trkpt lat="45.05396" lon="4.76913">
        <ele>291.60400390625</ele>
        <time>2010-04-10T12:40:36Z</time>
      </trkpt>
      <trkpt lat="45.05372" lon="4.76915">
        <ele>293.86999511719</ele>
        <time>2010-04-10T12:40:43Z</time>
      </trkpt>
      <trkpt lat="45.0537" lon="4.76913">
        <ele>294.29098510742</ele>
        <time>2010-04-10T12:40:44Z</time>
      </trkpt>
      <trkpt lat="45.05365" lon="4.76896">
        <ele>295.9460144043</ele>
        <time>2010-04-10T12:40:49Z</time>
      </trkpt>
      <trkpt lat="45.0537" lon="4.76888">
        <ele>296.75399780273</ele>
        <time>2010-04-10T12:40:52Z</time>
      </trkpt>
      <trkpt lat="45.05391" lon="4.76866">
        <ele>299.27700805664</ele>
        <time>2010-04-10T12:41:01Z</time>
      </trkpt>
      <trkpt lat="45.05409" lon="4.76841">
        <ele>301.52301025391</ele>
        <time>2010-04-10T12:41:10Z</time>
      </trkpt>
      <trkpt lat="45.05419" lon="4.76815">
        <ele>302.91198730469</ele>
        <time>2010-04-10T12:41:17Z</time>
      </trkpt>
      <trkpt lat="45.0542" lon="4.76811">
        <ele>303.1960144043</ele>
        <time>2010-04-10T12:41:18Z</time>
      </trkpt>
      <trkpt lat="45.05423" lon="4.76783">
        <ele>304.53100585938</ele>
        <time>2010-04-10T12:41:24Z</time>
      </trkpt>
      <trkpt lat="45.05433" lon="4.7674">
        <ele>306.76699829102</ele>
        <time>2010-04-10T12:41:33Z</time>
      </trkpt>
      <trkpt lat="45.05447" lon="4.76701">
        <ele>307.54901123047</ele>
        <time>2010-04-10T12:41:41Z</time>
      </trkpt>
      <trkpt lat="45.05463" lon="4.76672">
        <ele>307.98300170898</ele>
        <time>2010-04-10T12:41:47Z</time>
      </trkpt>
      <trkpt lat="45.0549" lon="4.7663">
        <ele>309.35299682617</ele>
        <time>2010-04-10T12:41:55Z</time>
      </trkpt>
      <trkpt lat="45.05501" lon="4.76602">
        <ele>311.46701049805</ele>
        <time>2010-04-10T12:42:01Z</time>
      </trkpt>
      <trkpt lat="45.05509" lon="4.76571">
        <ele>314.38101196289</ele>
        <time>2010-04-10T12:42:09Z</time>
      </trkpt>
      <trkpt lat="45.05513" lon="4.76551">
        <ele>315.79501342773</ele>
        <time>2010-04-10T12:42:14Z</time>
      </trkpt>
      <trkpt lat="45.05518" lon="4.76525">
        <ele>316.70999145508</ele>
        <time>2010-04-10T12:42:20Z</time>
      </trkpt>
      <trkpt lat="45.05523" lon="4.765">
        <ele>319.03100585938</ele>
        <time>2010-04-10T12:42:26Z</time>
      </trkpt>
      <trkpt lat="45.05528" lon="4.76473">
        <ele>320.89199829102</ele>
        <time>2010-04-10T12:42:33Z</time>
      </trkpt>
      <trkpt lat="45.05536" lon="4.76446">
        <ele>323.26998901367</ele>
        <time>2010-04-10T12:42:40Z</time>
      </trkpt>
      <trkpt lat="45.05545" lon="4.76416">
        <ele>324.63400268555</ele>
        <time>2010-04-10T12:42:48Z</time>
      </trkpt>
      <trkpt lat="45.0555" lon="4.76406">
        <ele>326.0710144043</ele>
        <time>2010-04-10T12:42:51Z</time>
      </trkpt>
      <trkpt lat="45.05556" lon="4.76384">
        <ele>328.15798950195</ele>
        <time>2010-04-10T12:42:57Z</time>
      </trkpt>
      <trkpt lat="45.05561" lon="4.76364">
        <ele>329.66500854492</ele>
        <time>2010-04-10T12:43:03Z</time>
      </trkpt>
      <trkpt lat="45.05563" lon="4.76337">
        <ele>331.43701171875</ele>
        <time>2010-04-10T12:43:10Z</time>
      </trkpt>
      <trkpt lat="45.05564" lon="4.76315">
        <ele>332.66198730469</ele>
        <time>2010-04-10T12:43:15Z</time>
      </trkpt>
      <trkpt lat="45.05568" lon="4.76284">
        <ele>334.62298583984</ele>
        <time>2010-04-10T12:43:22Z</time>
      </trkpt>
      <trkpt lat="45.05579" lon="4.7625">
        <ele>336.98001098633</ele>
        <time>2010-04-10T12:43:30Z</time>
      </trkpt>
      <trkpt lat="45.05595" lon="4.76215">
        <ele>338.9700012207</ele>
        <time>2010-04-10T12:43:39Z</time>
      </trkpt>
      <trkpt lat="45.05609" lon="4.76184">
        <ele>341.15399169922</ele>
        <time>2010-04-10T12:43:47Z</time>
      </trkpt>
      <trkpt lat="45.05619" lon="4.76162">
        <ele>343.09799194336</ele>
        <time>2010-04-10T12:43:53Z</time>
      </trkpt>
      <trkpt lat="45.05626" lon="4.76134">
        <ele>344.82901000977</ele>
        <time>2010-04-10T12:44:00Z</time>
      </trkpt>
      <trkpt lat="45.05634" lon="4.76098">
        <ele>347.29098510742</ele>
        <time>2010-04-10T12:44:08Z</time>
      </trkpt>
      <trkpt lat="45.05645" lon="4.76052">
        <ele>350.1549987793</ele>
        <time>2010-04-10T12:44:17Z</time>
      </trkpt>
      <trkpt lat="45.05655" lon="4.76024">
        <ele>352.18701171875</ele>
        <time>2010-04-10T12:44:23Z</time>
      </trkpt>
      <trkpt lat="45.05667" lon="4.75999">
        <ele>353.87100219727</ele>
        <time>2010-04-10T12:44:30Z</time>
      </trkpt>
      <trkpt lat="45.05674" lon="4.75987">
        <ele>355.0539855957</ele>
        <time>2010-04-10T12:44:34Z</time>
      </trkpt>
      <trkpt lat="45.05683" lon="4.7599">
        <ele>356.41400146484</ele>
        <time>2010-04-10T12:44:38Z</time>
      </trkpt>
      <trkpt lat="45.05682" lon="4.75999">
        <ele>356.5299987793</ele>
        <time>2010-04-10T12:44:41Z</time>
      </trkpt>
      <trkpt lat="45.05673" lon="4.76024">
        <ele>358.13598632812</ele>
        <time>2010-04-10T12:44:48Z</time>
      </trkpt>
      <trkpt lat="45.05667" lon="4.76049">
        <ele>359.45901489258</ele>
        <time>2010-04-10T12:44:54Z</time>
      </trkpt>
      <trkpt lat="45.05664" lon="4.76076">
        <ele>360.75201416016</ele>
        <time>2010-04-10T12:45:00Z</time>
      </trkpt>
      <trkpt lat="45.05672" lon="4.76105">
        <ele>363.09698486328</ele>
        <time>2010-04-10T12:45:07Z</time>
      </trkpt>
      <trkpt lat="45.05674" lon="4.76109">
        <ele>363.22900390625</ele>
        <time>2010-04-10T12:45:08Z</time>
      </trkpt>
      <trkpt lat="45.05688" lon="4.76127">
        <ele>365.29598999023</ele>
        <time>2010-04-10T12:45:14Z</time>
      </trkpt>
      <trkpt lat="45.05708" lon="4.76143">
        <ele>365.69799804688</ele>
        <time>2010-04-10T12:45:21Z</time>
      </trkpt>
      <trkpt lat="45.05722" lon="4.76163">
        <ele>367.90399169922</ele>
        <time>2010-04-10T12:45:27Z</time>
      </trkpt>
      <trkpt lat="45.05725" lon="4.76185">
        <ele>369.94000244141</ele>
        <time>2010-04-10T12:45:33Z</time>
      </trkpt>
      <trkpt lat="45.05722" lon="4.76209">
        <ele>372.0419921875</ele>
        <time>2010-04-10T12:45:40Z</time>
      </trkpt>
      <trkpt lat="45.05722" lon="4.76229">
        <ele>372.20999145508</ele>
        <time>2010-04-10T12:45:45Z</time>
      </trkpt>
      <trkpt lat="45.05733" lon="4.76246">
        <ele>373.43899536133</ele>
        <time>2010-04-10T12:45:50Z</time>
      </trkpt>
      <trkpt lat="45.05756" lon="4.7626">
        <ele>376.17199707031</ele>
        <time>2010-04-10T12:45:58Z</time>
      </trkpt>
      <trkpt lat="45.0577" lon="4.76257">
        <ele>376.25100708008</ele>
        <time>2010-04-10T12:46:04Z</time>
      </trkpt>
      <trkpt lat="45.05782" lon="4.76251">
        <ele>378.04699707031</ele>
        <time>2010-04-10T12:46:12Z</time>
      </trkpt>
      <trkpt lat="45.05794" lon="4.76243">
        <ele>378.73001098633</ele>
        <time>2010-04-10T12:46:19Z</time>
      </trkpt>
      <trkpt lat="45.0581" lon="4.7623">
        <ele>380.69500732422</ele>
        <time>2010-04-10T12:46:25Z</time>
      </trkpt>
      <trkpt lat="45.05825" lon="4.76209">
        <ele>380.74099731445</ele>
        <time>2010-04-10T12:46:31Z</time>
      </trkpt>
      <trkpt lat="45.05835" lon="4.76179">
        <ele>383.63299560547</ele>
        <time>2010-04-10T12:46:38Z</time>
      </trkpt>
      <trkpt lat="45.05842" lon="4.7615">
        <ele>386.04800415039</ele>
        <time>2010-04-10T12:46:44Z</time>
      </trkpt>
      <trkpt lat="45.05848" lon="4.76118">
        <ele>386.78799438477</ele>
        <time>2010-04-10T12:46:50Z</time>
      </trkpt>
      <trkpt lat="45.05852" lon="4.76082">
        <ele>388.57800292969</ele>
        <time>2010-04-10T12:46:57Z</time>
      </trkpt>
      <trkpt lat="45.05855" lon="4.76054">
        <ele>389.38598632812</ele>
        <time>2010-04-10T12:47:03Z</time>
      </trkpt>
      <trkpt lat="45.05864" lon="4.75999">
        <ele>392.67599487305</ele>
        <time>2010-04-10T12:47:14Z</time>
      </trkpt>
      <trkpt lat="45.05875" lon="4.75947">
        <ele>395.38198852539</ele>
        <time>2010-04-10T12:47:24Z</time>
      </trkpt>
      <trkpt lat="45.05878" lon="4.75931">
        <ele>397.4700012207</ele>
        <time>2010-04-10T12:47:28Z</time>
      </trkpt>
      <trkpt lat="45.05879" lon="4.75899">
        <ele>399.5710144043</ele>
        <time>2010-04-10T12:47:36Z</time>
      </trkpt>
      <trkpt lat="45.05878" lon="4.7587">
        <ele>401.59201049805</ele>
        <time>2010-04-10T12:47:43Z</time>
      </trkpt>
      <trkpt lat="45.05875" lon="4.75831">
        <ele>403.58200073242</ele>
        <time>2010-04-10T12:47:52Z</time>
      </trkpt>
      <trkpt lat="45.0587" lon="4.75813">
        <ele>404.56500244141</ele>
        <time>2010-04-10T12:47:57Z</time>
      </trkpt>
      <trkpt lat="45.05861" lon="4.75792">
        <ele>406.03601074219</ele>
        <time>2010-04-10T12:48:03Z</time>
      </trkpt>
      <trkpt lat="45.05846" lon="4.75762">
        <ele>408.38101196289</ele>
        <time>2010-04-10T12:48:11Z</time>
      </trkpt>
      <trkpt lat="45.05832" lon="4.75729">
        <ele>410.67001342773</ele>
        <time>2010-04-10T12:48:19Z</time>
      </trkpt>
      <trkpt lat="45.05824" lon="4.75704">
        <ele>412.35699462891</ele>
        <time>2010-04-10T12:48:25Z</time>
      </trkpt>
      <trkpt lat="45.05817" lon="4.75679">
        <ele>413.18499755859</ele>
        <time>2010-04-10T12:48:31Z</time>
      </trkpt>
      <trkpt lat="45.05806" lon="4.7564">
        <ele>414.44400024414</ele>
        <time>2010-04-10T12:48:39Z</time>
      </trkpt>
      <trkpt lat="45.05795" lon="4.75607">
        <ele>416.28100585938</ele>
        <time>2010-04-10T12:48:46Z</time>
      </trkpt>
      <trkpt lat="45.05783" lon="4.75575">
        <ele>418.04998779297</ele>
        <time>2010-04-10T12:48:53Z</time>
      </trkpt>
      <trkpt lat="45.05773" lon="4.75548">
        <ele>419.70599365234</ele>
        <time>2010-04-10T12:48:59Z</time>
      </trkpt>
      <trkpt lat="45.05764" lon="4.75526">
        <ele>421.39099121094</ele>
        <time>2010-04-10T12:49:04Z</time>
      </trkpt>
      <trkpt lat="45.05748" lon="4.75485">
        <ele>423.33801269531</ele>
        <time>2010-04-10T12:49:13Z</time>
      </trkpt>
      <trkpt lat="45.05745" lon="4.75454">
        <ele>424.88198852539</ele>
        <time>2010-04-10T12:49:19Z</time>
      </trkpt>
      <trkpt lat="45.05755" lon="4.75427">
        <ele>426.02099609375</ele>
        <time>2010-04-10T12:49:25Z</time>
      </trkpt>
      <trkpt lat="45.05769" lon="4.75393">
        <ele>427.16299438477</ele>
        <time>2010-04-10T12:49:32Z</time>
      </trkpt>
      <trkpt lat="45.05771" lon="4.75369">
        <ele>427.43200683594</ele>
        <time>2010-04-10T12:49:36Z</time>
      </trkpt>
      <trkpt lat="45.05766" lon="4.75306">
        <ele>429.06799316406</ele>
        <time>2010-04-10T12:49:46Z</time>
      </trkpt>
      <trkpt lat="45.05756" lon="4.75277">
        <ele>430.14401245117</ele>
        <time>2010-04-10T12:49:52Z</time>
      </trkpt>
      <trkpt lat="45.05751" lon="4.75266">
        <ele>430.38900756836</ele>
        <time>2010-04-10T12:49:56Z</time>
      </trkpt>
      <trkpt lat="45.05743" lon="4.75253">
        <ele>429.63500976562</ele>
        <time>2010-04-10T12:50:03Z</time>
      </trkpt>
      <trkpt lat="45.05735" lon="4.7524">
        <ele>428.86898803711</ele>
        <time>2010-04-10T12:50:09Z</time>
      </trkpt>
      <trkpt lat="45.05724" lon="4.75223">
        <ele>429.09201049805</ele>
        <time>2010-04-10T12:50:15Z</time>
      </trkpt>
      <trkpt lat="45.05716" lon="4.7521">
        <ele>429.20098876953</ele>
        <time>2010-04-10T12:50:20Z</time>
      </trkpt>
      <trkpt lat="45.05711" lon="4.75197">
        <ele>429.8630065918</ele>
        <time>2010-04-10T12:50:25Z</time>
      </trkpt>
      <trkpt lat="45.05703" lon="4.75175">
        <ele>429.65301513672</ele>
        <time>2010-04-10T12:50:33Z</time>
      </trkpt>
      <trkpt lat="45.05694" lon="4.75151">
        <ele>429.28201293945</ele>
        <time>2010-04-10T12:50:39Z</time>
      </trkpt>
      <trkpt lat="45.05688" lon="4.75127">
        <ele>429.26901245117</ele>
        <time>2010-04-10T12:50:44Z</time>
      </trkpt>
      <trkpt lat="45.05684" lon="4.75109">
        <ele>428.4460144043</ele>
        <time>2010-04-10T12:50:47Z</time>
      </trkpt>
      <trkpt lat="45.05667" lon="4.75069">
        <ele>424.93899536133</ele>
        <time>2010-04-10T12:50:52Z</time>
      </trkpt>
      <trkpt lat="45.05655" lon="4.75051">
        <ele>423.79400634766</ele>
        <time>2010-04-10T12:50:54Z</time>
      </trkpt>
      <trkpt lat="45.05644" lon="4.75032">
        <ele>422.76901245117</ele>
        <time>2010-04-10T12:50:56Z</time>
      </trkpt>
      <trkpt lat="45.05634" lon="4.74998">
        <ele>422.86499023438</ele>
        <time>2010-04-10T12:50:59Z</time>
      </trkpt>
      <trkpt lat="45.05626" lon="4.74943">
        <ele>424.03201293945</ele>
        <time>2010-04-10T12:51:04Z</time>
      </trkpt>
      <trkpt lat="45.05621" lon="4.74915">
        <ele>424.35000610352</ele>
        <time>2010-04-10T12:51:07Z</time>
      </trkpt>
      <trkpt lat="45.05618" lon="4.749">
        <ele>425.16198730469</ele>
        <time>2010-04-10T12:51:09Z</time>
      </trkpt>
      <trkpt lat="45.05613" lon="4.74873">
        <ele>425.88198852539</ele>
        <time>2010-04-10T12:51:14Z</time>
      </trkpt>
      <trkpt lat="45.05615" lon="4.74872">
        <ele>425.79098510742</ele>
        <time>2010-04-10T12:51:19Z</time>
      </trkpt>
      <trkpt lat="45.05615" lon="4.74873">
        <ele>426.0710144043</ele>
        <time>2010-04-10T12:51:21Z</time>
      </trkpt>
      <trkpt lat="45.05616" lon="4.74889">
        <ele>424.00900268555</ele>
        <time>2010-04-10T12:56:10Z</time>
      </trkpt>
      <trkpt lat="45.05619" lon="4.74911">
        <ele>422.90301513672</ele>
        <time>2010-04-10T12:56:14Z</time>
      </trkpt>
      <trkpt lat="45.05623" lon="4.74939">
        <ele>422.9580078125</ele>
        <time>2010-04-10T12:56:18Z</time>
      </trkpt>
      <trkpt lat="45.05634" lon="4.7495">
        <ele>420.71499633789</ele>
        <time>2010-04-10T12:56:21Z</time>
      </trkpt>
      <trkpt lat="45.05639" lon="4.74946">
        <ele>420.82598876953</ele>
        <time>2010-04-10T12:56:22Z</time>
      </trkpt>
      <trkpt lat="45.05648" lon="4.74927">
        <ele>419.22399902344</ele>
        <time>2010-04-10T12:56:25Z</time>
      </trkpt>
      <trkpt lat="45.0567" lon="4.74879">
        <ele>416.89199829102</ele>
        <time>2010-04-10T12:56:32Z</time>
      </trkpt>
      <trkpt lat="45.05677" lon="4.74854">
        <ele>416.89801025391</ele>
        <time>2010-04-10T12:56:35Z</time>
      </trkpt>
      <trkpt lat="45.0568" lon="4.74834">
        <ele>415.46798706055</ele>
        <time>2010-04-10T12:56:37Z</time>
      </trkpt>
      <trkpt lat="45.0569" lon="4.74804">
        <ele>414.39199829102</ele>
        <time>2010-04-10T12:56:40Z</time>
      </trkpt>
      <trkpt lat="45.05725" lon="4.74751">
        <ele>409.13900756836</ele>
        <time>2010-04-10T12:56:46Z</time>
      </trkpt>
      <trkpt lat="45.05738" lon="4.74706">
        <ele>408.39099121094</ele>
        <time>2010-04-10T12:56:50Z</time>
      </trkpt>
      <trkpt lat="45.05729" lon="4.74667">
        <ele>407.56900024414</ele>
        <time>2010-04-10T12:56:53Z</time>
      </trkpt>
      <trkpt lat="45.05725" lon="4.74655">
        <ele>406.29998779297</ele>
        <time>2010-04-10T12:56:54Z</time>
      </trkpt>
      <trkpt lat="45.05715" lon="4.74614">
        <ele>402.21499633789</ele>
        <time>2010-04-10T12:56:57Z</time>
      </trkpt>
      <trkpt lat="45.05699" lon="4.74563">
        <ele>401.85198974609</ele>
        <time>2010-04-10T12:57:01Z</time>
      </trkpt>
      <trkpt lat="45.05672" lon="4.74518">
        <ele>400.33898925781</ele>
        <time>2010-04-10T12:57:05Z</time>
      </trkpt>
      <trkpt lat="45.05655" lon="4.74482">
        <ele>397.98400878906</ele>
        <time>2010-04-10T12:57:08Z</time>
      </trkpt>
      <trkpt lat="45.05658" lon="4.74452">
        <ele>396.49499511719</ele>
        <time>2010-04-10T12:57:10Z</time>
      </trkpt>
      <trkpt lat="45.05661" lon="4.74438">
        <ele>395.91101074219</ele>
        <time>2010-04-10T12:57:11Z</time>
      </trkpt>
      <trkpt lat="45.05667" lon="4.74409">
        <ele>394.12899780273</ele>
        <time>2010-04-10T12:57:13Z</time>
      </trkpt>
      <trkpt lat="45.05671" lon="4.7438">
        <ele>393.55099487305</ele>
        <time>2010-04-10T12:57:15Z</time>
      </trkpt>
      <trkpt lat="45.05666" lon="4.74338">
        <ele>391.96099853516</ele>
        <time>2010-04-10T12:57:18Z</time>
      </trkpt>
      <trkpt lat="45.05659" lon="4.74326">
        <ele>391.73699951172</ele>
        <time>2010-04-10T12:57:19Z</time>
      </trkpt>
      <trkpt lat="45.05652" lon="4.74314">
        <ele>391.17199707031</ele>
        <time>2010-04-10T12:57:20Z</time>
      </trkpt>
      <trkpt lat="45.05627" lon="4.74277">
        <ele>391.05801391602</ele>
        <time>2010-04-10T12:57:24Z</time>
      </trkpt>
      <trkpt lat="45.05623" lon="4.74273">
        <ele>391.4700012207</ele>
        <time>2010-04-10T12:57:25Z</time>
      </trkpt>
      <trkpt lat="45.05625" lon="4.74272">
        <ele>391.38400268555</ele>
        <time>2010-04-10T12:57:29Z</time>
      </trkpt>
      <trkpt lat="45.0564" lon="4.74288">
        <ele>389.83200073242</ele>
        <time>2010-04-10T12:59:54Z</time>
      </trkpt>
      <trkpt lat="45.05646" lon="4.74297">
        <ele>388.70098876953</ele>
        <time>2010-04-10T12:59:56Z</time>
      </trkpt>
      <trkpt lat="45.05663" lon="4.74319">
        <ele>389.04699707031</ele>
        <time>2010-04-10T13:00:00Z</time>
      </trkpt>
      <trkpt lat="45.05676" lon="4.74339">
        <ele>387.82501220703</ele>
        <time>2010-04-10T13:00:03Z</time>
      </trkpt>
      <trkpt lat="45.05685" lon="4.74376">
        <ele>387.0950012207</ele>
        <time>2010-04-10T13:00:07Z</time>
      </trkpt>
      <trkpt lat="45.05684" lon="4.74386">
        <ele>386.40798950195</ele>
        <time>2010-04-10T13:00:08Z</time>
      </trkpt>
      <trkpt lat="45.05681" lon="4.7444">
        <ele>384.8869934082</ele>
        <time>2010-04-10T13:00:13Z</time>
      </trkpt>
      <trkpt lat="45.05693" lon="4.74485">
        <ele>382.82299804688</ele>
        <time>2010-04-10T13:00:17Z</time>
      </trkpt>
      <trkpt lat="45.05699" lon="4.74495">
        <ele>382.78100585938</ele>
        <time>2010-04-10T13:00:18Z</time>
      </trkpt>
      <trkpt lat="45.0573" lon="4.74559">
        <ele>379.53601074219</ele>
        <time>2010-04-10T13:00:24Z</time>
      </trkpt>
      <trkpt lat="45.05749" lon="4.7462">
        <ele>378.67999267578</ele>
        <time>2010-04-10T13:00:29Z</time>
      </trkpt>
      <trkpt lat="45.05772" lon="4.74662">
        <ele>377.62298583984</ele>
        <time>2010-04-10T13:00:33Z</time>
      </trkpt>
      <trkpt lat="45.05781" lon="4.74686">
        <ele>377.30700683594</ele>
        <time>2010-04-10T13:00:35Z</time>
      </trkpt>
      <trkpt lat="45.05788" lon="4.74713">
        <ele>375.68899536133</ele>
        <time>2010-04-10T13:00:37Z</time>
      </trkpt>
      <trkpt lat="45.05788" lon="4.74757">
        <ele>376.14401245117</ele>
        <time>2010-04-10T13:00:40Z</time>
      </trkpt>
      <trkpt lat="45.05774" lon="4.74799">
        <ele>375.04299926758</ele>
        <time>2010-04-10T13:00:43Z</time>
      </trkpt>
      <trkpt lat="45.05758" lon="4.7484">
        <ele>372.40600585938</ele>
        <time>2010-04-10T13:00:46Z</time>
      </trkpt>
      <trkpt lat="45.05751" lon="4.74883">
        <ele>371.54299926758</ele>
        <time>2010-04-10T13:00:49Z</time>
      </trkpt>
      <trkpt lat="45.05759" lon="4.74926">
        <ele>370.01098632812</ele>
        <time>2010-04-10T13:00:52Z</time>
      </trkpt>
      <trkpt lat="45.0578" lon="4.74958">
        <ele>368.44198608398</ele>
        <time>2010-04-10T13:00:55Z</time>
      </trkpt>
      <trkpt lat="45.05811" lon="4.74976">
        <ele>366.38400268555</ele>
        <time>2010-04-10T13:00:58Z</time>
      </trkpt>
      <trkpt lat="45.05843" lon="4.74974">
        <ele>365.43701171875</ele>
        <time>2010-04-10T13:01:01Z</time>
      </trkpt>
      <trkpt lat="45.05864" lon="4.74964">
        <ele>364.57501220703</ele>
        <time>2010-04-10T13:01:03Z</time>
      </trkpt>
      <trkpt lat="45.05873" lon="4.74957">
        <ele>364.10198974609</ele>
        <time>2010-04-10T13:01:04Z</time>
      </trkpt>
      <trkpt lat="45.05932" lon="4.74927">
        <ele>362.24798583984</ele>
        <time>2010-04-10T13:01:10Z</time>
      </trkpt>
      <trkpt lat="45.05952" lon="4.74923">
        <ele>361.19400024414</ele>
        <time>2010-04-10T13:01:12Z</time>
      </trkpt>
      <trkpt lat="45.05973" lon="4.74919">
        <ele>361.23098754883</ele>
        <time>2010-04-10T13:01:14Z</time>
      </trkpt>
      <trkpt lat="45.06012" lon="4.74895">
        <ele>359.07000732422</ele>
        <time>2010-04-10T13:01:18Z</time>
      </trkpt>
      <trkpt lat="45.06021" lon="4.74887">
        <ele>358.41400146484</ele>
        <time>2010-04-10T13:01:19Z</time>
      </trkpt>
      <trkpt lat="45.06041" lon="4.74875">
        <ele>357.70401000977</ele>
        <time>2010-04-10T13:01:21Z</time>
      </trkpt>
      <trkpt lat="45.06063" lon="4.7487">
        <ele>356.98199462891</ele>
        <time>2010-04-10T13:01:23Z</time>
      </trkpt>
      <trkpt lat="45.06116" lon="4.74858">
        <ele>355.60900878906</ele>
        <time>2010-04-10T13:01:28Z</time>
      </trkpt>
      <trkpt lat="45.06127" lon="4.74854">
        <ele>355.59698486328</ele>
        <time>2010-04-10T13:01:29Z</time>
      </trkpt>
      <trkpt lat="45.06174" lon="4.74813">
        <ele>353.55899047852</ele>
        <time>2010-04-10T13:01:34Z</time>
      </trkpt>
      <trkpt lat="45.06215" lon="4.74784">
        <ele>351.35598754883</ele>
        <time>2010-04-10T13:01:38Z</time>
      </trkpt>
      <trkpt lat="45.06225" lon="4.74777">
        <ele>350.74899291992</ele>
        <time>2010-04-10T13:01:39Z</time>
      </trkpt>
      <trkpt lat="45.06261" lon="4.74739">
        <ele>348.97198486328</ele>
        <time>2010-04-10T13:01:43Z</time>
      </trkpt>
      <trkpt lat="45.06293" lon="4.74709">
        <ele>347.2080078125</ele>
        <time>2010-04-10T13:01:47Z</time>
      </trkpt>
      <trkpt lat="45.06306" lon="4.74712">
        <ele>346.25698852539</ele>
        <time>2010-04-10T13:01:49Z</time>
      </trkpt>
      <trkpt lat="45.06311" lon="4.74706">
        <ele>348.09399414062</ele>
        <time>2010-04-10T13:01:51Z</time>
      </trkpt>
      <trkpt lat="45.06308" lon="4.74692">
        <ele>348.17700195312</ele>
        <time>2010-04-10T13:01:53Z</time>
      </trkpt>
      <trkpt lat="45.06296" lon="4.74683">
        <ele>345.60699462891</ele>
        <time>2010-04-10T13:01:55Z</time>
      </trkpt>
      <trkpt lat="45.06288" lon="4.74682">
        <ele>344.75500488281</ele>
        <time>2010-04-10T13:01:56Z</time>
      </trkpt>
      <trkpt lat="45.06272" lon="4.74691">
        <ele>343.15100097656</ele>
        <time>2010-04-10T13:01:58Z</time>
      </trkpt>
      <trkpt lat="45.06255" lon="4.74722">
        <ele>341.83599853516</ele>
        <time>2010-04-10T13:02:01Z</time>
      </trkpt>
      <trkpt lat="45.06232" lon="4.74751">
        <ele>339.65899658203</ele>
        <time>2010-04-10T13:02:04Z</time>
      </trkpt>
      <trkpt lat="45.0618" lon="4.74774">
        <ele>337.5299987793</ele>
        <time>2010-04-10T13:02:09Z</time>
      </trkpt>
      <trkpt lat="45.06137" lon="4.74798">
        <ele>334.28799438477</ele>
        <time>2010-04-10T13:02:13Z</time>
      </trkpt>
      <trkpt lat="45.06117" lon="4.74816">
        <ele>333.3039855957</ele>
        <time>2010-04-10T13:02:15Z</time>
      </trkpt>
      <trkpt lat="45.0607" lon="4.74828">
        <ele>330.74700927734</ele>
        <time>2010-04-10T13:02:19Z</time>
      </trkpt>
      <trkpt lat="45.06033" lon="4.74825">
        <ele>329.02899169922</ele>
        <time>2010-04-10T13:02:22Z</time>
      </trkpt>
      <trkpt lat="45.05985" lon="4.74841">
        <ele>326.96301269531</ele>
        <time>2010-04-10T13:02:26Z</time>
      </trkpt>
      <trkpt lat="45.05949" lon="4.74848">
        <ele>325.16000366211</ele>
        <time>2010-04-10T13:02:29Z</time>
      </trkpt>
      <trkpt lat="45.05889" lon="4.74849">
        <ele>323.78698730469</ele>
        <time>2010-04-10T13:02:34Z</time>
      </trkpt>
      <trkpt lat="45.0586" lon="4.74822">
        <ele>320.28298950195</ele>
        <time>2010-04-10T13:02:37Z</time>
      </trkpt>
      <trkpt lat="45.0586" lon="4.74788">
        <ele>319.01300048828</ele>
        <time>2010-04-10T13:02:39Z</time>
      </trkpt>
      <trkpt lat="45.05864" lon="4.74773">
        <ele>318.74099731445</ele>
        <time>2010-04-10T13:02:40Z</time>
      </trkpt>
      <trkpt lat="45.0588" lon="4.74728">
        <ele>317.15100097656</ele>
        <time>2010-04-10T13:02:43Z</time>
      </trkpt>
      <trkpt lat="45.05879" lon="4.74681">
        <ele>315.65399169922</ele>
        <time>2010-04-10T13:02:46Z</time>
      </trkpt>
      <trkpt lat="45.05861" lon="4.74634">
        <ele>313.7799987793</ele>
        <time>2010-04-10T13:02:49Z</time>
      </trkpt>
      <trkpt lat="45.05838" lon="4.74575">
        <ele>311.26000976562</ele>
        <time>2010-04-10T13:02:53Z</time>
      </trkpt>
      <trkpt lat="45.05835" lon="4.74542">
        <ele>309.81201171875</ele>
        <time>2010-04-10T13:02:55Z</time>
      </trkpt>
      <trkpt lat="45.05838" lon="4.7451">
        <ele>308.1789855957</ele>
        <time>2010-04-10T13:02:57Z</time>
      </trkpt>
      <trkpt lat="45.05832" lon="4.74479">
        <ele>307.80499267578</ele>
        <time>2010-04-10T13:02:59Z</time>
      </trkpt>
      <trkpt lat="45.05825" lon="4.74446">
        <ele>305.67199707031</ele>
        <time>2010-04-10T13:03:01Z</time>
      </trkpt>
      <trkpt lat="45.05817" lon="4.74395">
        <ele>303.68899536133</ele>
        <time>2010-04-10T13:03:04Z</time>
      </trkpt>
      <trkpt lat="45.05817" lon="4.7436">
        <ele>301.70999145508</ele>
        <time>2010-04-10T13:03:06Z</time>
      </trkpt>
      <trkpt lat="45.05819" lon="4.74267">
        <ele>301.3030090332</ele>
        <time>2010-04-10T13:03:11Z</time>
      </trkpt>
      <trkpt lat="45.05809" lon="4.74213">
        <ele>300.88299560547</ele>
        <time>2010-04-10T13:03:14Z</time>
      </trkpt>
      <trkpt lat="45.05783" lon="4.74167">
        <ele>297.67098999023</ele>
        <time>2010-04-10T13:03:17Z</time>
      </trkpt>
      <trkpt lat="45.0575" lon="4.74133">
        <ele>295.5950012207</ele>
        <time>2010-04-10T13:03:20Z</time>
      </trkpt>
      <trkpt lat="45.05739" lon="4.7412">
        <ele>294.20098876953</ele>
        <time>2010-04-10T13:03:21Z</time>
      </trkpt>
      <trkpt lat="45.057" lon="4.74068">
        <ele>291.29400634766</ele>
        <time>2010-04-10T13:03:25Z</time>
      </trkpt>
      <trkpt lat="45.05681" lon="4.74047">
        <ele>290.90399169922</ele>
        <time>2010-04-10T13:03:27Z</time>
      </trkpt>
      <trkpt lat="45.05674" lon="4.74013">
        <ele>288.99798583984</ele>
        <time>2010-04-10T13:03:30Z</time>
      </trkpt>
      <trkpt lat="45.0569" lon="4.74003">
        <ele>286.9049987793</ele>
        <time>2010-04-10T13:03:32Z</time>
      </trkpt>
      <trkpt lat="45.05709" lon="4.74005">
        <ele>284.80499267578</ele>
        <time>2010-04-10T13:03:34Z</time>
      </trkpt>
      <trkpt lat="45.0576" lon="4.74015">
        <ele>283.95498657227</ele>
        <time>2010-04-10T13:03:39Z</time>
      </trkpt>
      <trkpt lat="45.05809" lon="4.74018">
        <ele>284.03500366211</ele>
        <time>2010-04-10T13:03:44Z</time>
      </trkpt>
      <trkpt lat="45.05836" lon="4.74018">
        <ele>284.27200317383</ele>
        <time>2010-04-10T13:03:47Z</time>
      </trkpt>
      <trkpt lat="45.05859" lon="4.74004">
        <ele>283.14801025391</ele>
        <time>2010-04-10T13:03:50Z</time>
      </trkpt>
      <trkpt lat="45.05868" lon="4.73979">
        <ele>281.21398925781</ele>
        <time>2010-04-10T13:03:52Z</time>
      </trkpt>
      <trkpt lat="45.05886" lon="4.73882">
        <ele>278.51098632812</ele>
        <time>2010-04-10T13:03:58Z</time>
      </trkpt>
      <trkpt lat="45.05901" lon="4.73811">
        <ele>275.20498657227</ele>
        <time>2010-04-10T13:04:02Z</time>
      </trkpt>
      <trkpt lat="45.05896" lon="4.73755">
        <ele>273.31900024414</ele>
        <time>2010-04-10T13:04:05Z</time>
      </trkpt>
      <trkpt lat="45.05881" lon="4.73725">
        <ele>272.89700317383</ele>
        <time>2010-04-10T13:04:07Z</time>
      </trkpt>
      <trkpt lat="45.05832" lon="4.73632">
        <ele>267.05599975586</ele>
        <time>2010-04-10T13:04:13Z</time>
      </trkpt>
      <trkpt lat="45.05824" lon="4.73617">
        <ele>266.30599975586</ele>
        <time>2010-04-10T13:04:14Z</time>
      </trkpt>
      <trkpt lat="45.05806" lon="4.73547">
        <ele>264.56600952148</ele>
        <time>2010-04-10T13:04:18Z</time>
      </trkpt>
      <trkpt lat="45.0581" lon="4.73512">
        <ele>263.40798950195</ele>
        <time>2010-04-10T13:04:20Z</time>
      </trkpt>
      <trkpt lat="45.05819" lon="4.73478">
        <ele>262.59298706055</ele>
        <time>2010-04-10T13:04:22Z</time>
      </trkpt>
      <trkpt lat="45.05828" lon="4.73408">
        <ele>260.95001220703</ele>
        <time>2010-04-10T13:04:26Z</time>
      </trkpt>
      <trkpt lat="45.05827" lon="4.73337">
        <ele>258.89300537109</ele>
        <time>2010-04-10T13:04:30Z</time>
      </trkpt>
      <trkpt lat="45.05819" lon="4.73277">
        <ele>257.13400268555</ele>
        <time>2010-04-10T13:04:34Z</time>
      </trkpt>
      <trkpt lat="45.05838" lon="4.73263">
        <ele>257.0539855957</ele>
        <time>2010-04-10T13:04:36Z</time>
      </trkpt>
      <trkpt lat="45.05849" lon="4.73259">
        <ele>257.50900268555</ele>
        <time>2010-04-10T13:04:37Z</time>
      </trkpt>
      <trkpt lat="45.05878" lon="4.7323">
        <ele>258.12701416016</ele>
        <time>2010-04-10T13:04:41Z</time>
      </trkpt>
      <trkpt lat="45.0588" lon="4.73206">
        <ele>259.09600830078</ele>
        <time>2010-04-10T13:04:43Z</time>
      </trkpt>
      <trkpt lat="45.05879" lon="4.73195">
        <ele>259.81399536133</ele>
        <time>2010-04-10T13:04:44Z</time>
      </trkpt>
      <trkpt lat="45.05879" lon="4.73154">
        <ele>261.40600585938</ele>
        <time>2010-04-10T13:04:48Z</time>
      </trkpt>
      <trkpt lat="45.05892" lon="4.7313">
        <ele>262.71600341797</ele>
        <time>2010-04-10T13:04:51Z</time>
      </trkpt>
      <trkpt lat="45.05898" lon="4.73124">
        <ele>262.63101196289</ele>
        <time>2010-04-10T13:04:52Z</time>
      </trkpt>
      <trkpt lat="45.05945" lon="4.73084">
        <ele>265.27801513672</ele>
        <time>2010-04-10T13:05:00Z</time>
      </trkpt>
      <trkpt lat="45.05983" lon="4.73048">
        <ele>266.73599243164</ele>
        <time>2010-04-10T13:05:07Z</time>
      </trkpt>
      <trkpt lat="45.06006" lon="4.73006">
        <ele>267.75299072266</ele>
        <time>2010-04-10T13:05:13Z</time>
      </trkpt>
      <trkpt lat="45.06016" lon="4.72985">
        <ele>268.50100708008</ele>
        <time>2010-04-10T13:05:16Z</time>
      </trkpt>
      <trkpt lat="45.06043" lon="4.72955">
        <ele>270.15301513672</ele>
        <time>2010-04-10T13:05:22Z</time>
      </trkpt>
      <trkpt lat="45.06063" lon="4.72953">
        <ele>271.64401245117</ele>
        <time>2010-04-10T13:05:26Z</time>
      </trkpt>
      <trkpt lat="45.06073" lon="4.72956">
        <ele>272.26800537109</ele>
        <time>2010-04-10T13:05:28Z</time>
      </trkpt>
      <trkpt lat="45.06091" lon="4.7295">
        <ele>272.59100341797</ele>
        <time>2010-04-10T13:05:32Z</time>
      </trkpt>
      <trkpt lat="45.06096" lon="4.72931">
        <ele>273.20199584961</ele>
        <time>2010-04-10T13:05:35Z</time>
      </trkpt>
      <trkpt lat="45.06095" lon="4.72924">
        <ele>273.82998657227</ele>
        <time>2010-04-10T13:05:36Z</time>
      </trkpt>
      <trkpt lat="45.06083" lon="4.72894">
        <ele>274.43399047852</ele>
        <time>2010-04-10T13:05:41Z</time>
      </trkpt>
      <trkpt lat="45.06065" lon="4.72851">
        <ele>275.19000244141</ele>
        <time>2010-04-10T13:05:48Z</time>
      </trkpt>
      <trkpt lat="45.06059" lon="4.72825">
        <ele>276.28698730469</ele>
        <time>2010-04-10T13:05:52Z</time>
      </trkpt>
      <trkpt lat="45.0605" lon="4.72786">
        <ele>277.41101074219</ele>
        <time>2010-04-10T13:05:58Z</time>
      </trkpt>
      <trkpt lat="45.06035" lon="4.72731">
        <ele>279.16400146484</ele>
        <time>2010-04-10T13:06:06Z</time>
      </trkpt>
      <trkpt lat="45.06031" lon="4.72717">
        <ele>279.70300292969</ele>
        <time>2010-04-10T13:06:08Z</time>
      </trkpt>
      <trkpt lat="45.0602" lon="4.72688">
        <ele>280.07598876953</ele>
        <time>2010-04-10T13:06:12Z</time>
      </trkpt>
      <trkpt lat="45.06015" lon="4.72665">
        <ele>280.69900512695</ele>
        <time>2010-04-10T13:06:15Z</time>
      </trkpt>
      <trkpt lat="45.06021" lon="4.72635">
        <ele>281.38500976562</ele>
        <time>2010-04-10T13:06:19Z</time>
      </trkpt>
      <trkpt lat="45.06034" lon="4.7262">
        <ele>281.90798950195</ele>
        <time>2010-04-10T13:06:22Z</time>
      </trkpt>
      <trkpt lat="45.06065" lon="4.72608">
        <ele>283.125</ele>
        <time>2010-04-10T13:06:28Z</time>
      </trkpt>
      <trkpt lat="45.06079" lon="4.72595">
        <ele>283.42199707031</ele>
        <time>2010-04-10T13:06:32Z</time>
      </trkpt>
      <trkpt lat="45.06089" lon="4.72583">
        <ele>285.26300048828</ele>
        <time>2010-04-10T13:06:36Z</time>
      </trkpt>
      <trkpt lat="45.06097" lon="4.72589">
        <ele>286.95300292969</ele>
        <time>2010-04-10T13:06:40Z</time>
      </trkpt>
      <trkpt lat="45.06099" lon="4.72608">
        <ele>288.66299438477</ele>
        <time>2010-04-10T13:06:45Z</time>
      </trkpt>
      <trkpt lat="45.06092" lon="4.72615">
        <ele>289.6130065918</ele>
        <time>2010-04-10T13:06:48Z</time>
      </trkpt>
      <trkpt lat="45.06065" lon="4.72623">
        <ele>291.99899291992</ele>
        <time>2010-04-10T13:06:56Z</time>
      </trkpt>
      <trkpt lat="45.06045" lon="4.72634">
        <ele>292.29000854492</ele>
        <time>2010-04-10T13:07:02Z</time>
      </trkpt>
      <trkpt lat="45.06041" lon="4.72637">
        <ele>292.80899047852</ele>
        <time>2010-04-10T13:07:03Z</time>
      </trkpt>
      <trkpt lat="45.06035" lon="4.72664">
        <ele>293.29400634766</ele>
        <time>2010-04-10T13:07:08Z</time>
      </trkpt>
      <trkpt lat="45.06038" lon="4.72675">
        <ele>293.82998657227</ele>
        <time>2010-04-10T13:07:10Z</time>
      </trkpt>
      <trkpt lat="45.06049" lon="4.72701">
        <ele>295.6780090332</ele>
        <time>2010-04-10T13:07:16Z</time>
      </trkpt>
      <trkpt lat="45.06056" lon="4.72715">
        <ele>297.31600952148</ele>
        <time>2010-04-10T13:07:20Z</time>
      </trkpt>
      <trkpt lat="45.06068" lon="4.72743">
        <ele>299.86599731445</ele>
        <time>2010-04-10T13:07:28Z</time>
      </trkpt>
      <trkpt lat="45.06079" lon="4.72767">
        <ele>301.28799438477</ele>
        <time>2010-04-10T13:07:35Z</time>
      </trkpt>
      <trkpt lat="45.06089" lon="4.72786">
        <ele>302.35998535156</ele>
        <time>2010-04-10T13:07:40Z</time>
      </trkpt>
      <trkpt lat="45.06103" lon="4.72822">
        <ele>304.52801513672</ele>
        <time>2010-04-10T13:07:49Z</time>
      </trkpt>
      <trkpt lat="45.06114" lon="4.72843">
        <ele>306.6960144043</ele>
        <time>2010-04-10T13:07:55Z</time>
      </trkpt>
      <trkpt lat="45.06129" lon="4.72866">
        <ele>308.75601196289</ele>
        <time>2010-04-10T13:08:02Z</time>
      </trkpt>
      <trkpt lat="45.06147" lon="4.72892">
        <ele>311.04901123047</ele>
        <time>2010-04-10T13:08:10Z</time>
      </trkpt>
      <trkpt lat="45.06162" lon="4.72909">
        <ele>313.3030090332</ele>
        <time>2010-04-10T13:08:17Z</time>
      </trkpt>
      <trkpt lat="45.06179" lon="4.72923">
        <ele>315.0299987793</ele>
        <time>2010-04-10T13:08:24Z</time>
      </trkpt>
      <trkpt lat="45.06196" lon="4.72937">
        <ele>316.6969909668</ele>
        <time>2010-04-10T13:08:31Z</time>
      </trkpt>
      <trkpt lat="45.06215" lon="4.72955">
        <ele>318.99600219727</ele>
        <time>2010-04-10T13:08:39Z</time>
      </trkpt>
      <trkpt lat="45.06234" lon="4.72967">
        <ele>320.45001220703</ele>
        <time>2010-04-10T13:08:46Z</time>
      </trkpt>
      <trkpt lat="45.06245" lon="4.72977">
        <ele>321.5950012207</ele>
        <time>2010-04-10T13:08:50Z</time>
      </trkpt>
      <trkpt lat="45.06246" lon="4.72996">
        <ele>323.76300048828</ele>
        <time>2010-04-10T13:08:56Z</time>
      </trkpt>
      <trkpt lat="45.06249" lon="4.73028">
        <ele>326.40301513672</ele>
        <time>2010-04-10T13:09:05Z</time>
      </trkpt>
      <trkpt lat="45.06253" lon="4.73042">
        <ele>326.74899291992</ele>
        <time>2010-04-10T13:09:09Z</time>
      </trkpt>
      <trkpt lat="45.06251" lon="4.73066">
        <ele>328.86700439453</ele>
        <time>2010-04-10T13:09:15Z</time>
      </trkpt>
      <trkpt lat="45.06248" lon="4.73097">
        <ele>330.73199462891</ele>
        <time>2010-04-10T13:09:22Z</time>
      </trkpt>
      <trkpt lat="45.06247" lon="4.73128">
        <ele>331.66598510742</ele>
        <time>2010-04-10T13:09:29Z</time>
      </trkpt>
      <trkpt lat="45.06237" lon="4.73137">
        <ele>332.4880065918</ele>
        <time>2010-04-10T13:09:33Z</time>
      </trkpt>
      <trkpt lat="45.06226" lon="4.73132">
        <ele>333.69299316406</ele>
        <time>2010-04-10T13:09:37Z</time>
      </trkpt>
      <trkpt lat="45.06215" lon="4.73124">
        <ele>334.66400146484</ele>
        <time>2010-04-10T13:09:42Z</time>
      </trkpt>
      <trkpt lat="45.06194" lon="4.7312">
        <ele>336.19198608398</ele>
        <time>2010-04-10T13:09:49Z</time>
      </trkpt>
      <trkpt lat="45.06174" lon="4.73118">
        <ele>337.6789855957</ele>
        <time>2010-04-10T13:09:55Z</time>
      </trkpt>
      <trkpt lat="45.06159" lon="4.73116">
        <ele>339.24398803711</ele>
        <time>2010-04-10T13:10:00Z</time>
      </trkpt>
      <trkpt lat="45.0614" lon="4.73115">
        <ele>341.02398681641</ele>
        <time>2010-04-10T13:10:07Z</time>
      </trkpt>
      <trkpt lat="45.06122" lon="4.73115">
        <ele>342.68399047852</ele>
        <time>2010-04-10T13:10:14Z</time>
      </trkpt>
      <trkpt lat="45.06118" lon="4.73129">
        <ele>343.60198974609</ele>
        <time>2010-04-10T13:10:19Z</time>
      </trkpt>
      <trkpt lat="45.06126" lon="4.73129">
        <ele>343.74301147461</ele>
        <time>2010-04-10T13:10:22Z</time>
      </trkpt>
      <trkpt lat="45.06142" lon="4.7313">
        <ele>345.11499023438</ele>
        <time>2010-04-10T13:10:28Z</time>
      </trkpt>
      <trkpt lat="45.0616" lon="4.73135">
        <ele>346.79501342773</ele>
        <time>2010-04-10T13:10:34Z</time>
      </trkpt>
      <trkpt lat="45.06174" lon="4.73141">
        <ele>348.10998535156</ele>
        <time>2010-04-10T13:10:38Z</time>
      </trkpt>
      <trkpt lat="45.06195" lon="4.73154">
        <ele>349.14401245117</ele>
        <time>2010-04-10T13:10:44Z</time>
      </trkpt>
      <trkpt lat="45.06215" lon="4.73179">
        <ele>352.50698852539</ele>
        <time>2010-04-10T13:10:52Z</time>
      </trkpt>
      <trkpt lat="45.06226" lon="4.73194">
        <ele>353.03298950195</ele>
        <time>2010-04-10T13:10:56Z</time>
      </trkpt>
      <trkpt lat="45.06245" lon="4.73209">
        <ele>354.63299560547</ele>
        <time>2010-04-10T13:11:00Z</time>
      </trkpt>
      <trkpt lat="45.06257" lon="4.73214">
        <ele>355.26098632812</ele>
        <time>2010-04-10T13:11:02Z</time>
      </trkpt>
      <trkpt lat="45.06268" lon="4.73218">
        <ele>356.45498657227</ele>
        <time>2010-04-10T13:11:04Z</time>
      </trkpt>
      <trkpt lat="45.0628" lon="4.73239">
        <ele>357.48400878906</ele>
        <time>2010-04-10T13:11:08Z</time>
      </trkpt>
      <trkpt lat="45.06279" lon="4.73245">
        <ele>356.91000366211</ele>
        <time>2010-04-10T13:11:09Z</time>
      </trkpt>
      <trkpt lat="45.06283" lon="4.733">
        <ele>354.78298950195</ele>
        <time>2010-04-10T13:11:15Z</time>
      </trkpt>
      <trkpt lat="45.06296" lon="4.73327">
        <ele>352.53201293945</ele>
        <time>2010-04-10T13:11:18Z</time>
      </trkpt>
      <trkpt lat="45.06316" lon="4.73358">
        <ele>352.30099487305</ele>
        <time>2010-04-10T13:11:22Z</time>
      </trkpt>
      <trkpt lat="45.06322" lon="4.73394">
        <ele>351.26000976562</ele>
        <time>2010-04-10T13:11:26Z</time>
      </trkpt>
      <trkpt lat="45.0631" lon="4.7342">
        <ele>347.1960144043</ele>
        <time>2010-04-10T13:11:29Z</time>
      </trkpt>
      <trkpt lat="45.06306" lon="4.73456">
        <ele>343.57501220703</ele>
        <time>2010-04-10T13:11:32Z</time>
      </trkpt>
      <trkpt lat="45.06308" lon="4.73481">
        <ele>340.74499511719</ele>
        <time>2010-04-10T13:11:34Z</time>
      </trkpt>
      <trkpt lat="45.06321" lon="4.73523">
        <ele>336.60598754883</ele>
        <time>2010-04-10T13:11:38Z</time>
      </trkpt>
      <trkpt lat="45.06325" lon="4.73546">
        <ele>334.34698486328</ele>
        <time>2010-04-10T13:11:40Z</time>
      </trkpt>
      <trkpt lat="45.06333" lon="4.73617">
        <ele>327.44000244141</ele>
        <time>2010-04-10T13:11:45Z</time>
      </trkpt>
      <trkpt lat="45.06332" lon="4.73675">
        <ele>326.30899047852</ele>
        <time>2010-04-10T13:11:49Z</time>
      </trkpt>
      <trkpt lat="45.06327" lon="4.73749">
        <ele>322</ele>
        <time>2010-04-10T13:11:54Z</time>
      </trkpt>
      <trkpt lat="45.06335" lon="4.73802">
        <ele>320.25601196289</ele>
        <time>2010-04-10T13:11:58Z</time>
      </trkpt>
      <trkpt lat="45.06355" lon="4.7383">
        <ele>316.82299804688</ele>
        <time>2010-04-10T13:12:01Z</time>
      </trkpt>
      <trkpt lat="45.06374" lon="4.7384">
        <ele>316.12200927734</ele>
        <time>2010-04-10T13:12:03Z</time>
      </trkpt>
      <trkpt lat="45.06407" lon="4.73838">
        <ele>312.4049987793</ele>
        <time>2010-04-10T13:12:06Z</time>
      </trkpt>
      <trkpt lat="45.06436" lon="4.73837">
        <ele>310.53201293945</ele>
        <time>2010-04-10T13:12:10Z</time>
      </trkpt>
      <trkpt lat="45.06447" lon="4.73865">
        <ele>307.0950012207</ele>
        <time>2010-04-10T13:12:13Z</time>
      </trkpt>
      <trkpt lat="45.06452" lon="4.73901">
        <ele>303.38500976562</ele>
        <time>2010-04-10T13:12:16Z</time>
      </trkpt>
      <trkpt lat="45.06465" lon="4.73907">
        <ele>301.74499511719</ele>
        <time>2010-04-10T13:12:19Z</time>
      </trkpt>
      <trkpt lat="45.06469" lon="4.739">
        <ele>300.68200683594</ele>
        <time>2010-04-10T13:12:20Z</time>
      </trkpt>
      <trkpt lat="45.06472" lon="4.73891">
        <ele>299.20098876953</ele>
        <time>2010-04-10T13:12:21Z</time>
      </trkpt>
      <trkpt lat="45.06477" lon="4.73868">
        <ele>296.74600219727</ele>
        <time>2010-04-10T13:12:23Z</time>
      </trkpt>
      <trkpt lat="45.06484" lon="4.73811">
        <ele>290.69100952148</ele>
        <time>2010-04-10T13:12:27Z</time>
      </trkpt>
      <trkpt lat="45.06475" lon="4.73783">
        <ele>288.45098876953</ele>
        <time>2010-04-10T13:12:29Z</time>
      </trkpt>
      <trkpt lat="45.0647" lon="4.73752">
        <ele>285.78799438477</ele>
        <time>2010-04-10T13:12:33Z</time>
      </trkpt>
      <trkpt lat="45.06477" lon="4.73752">
        <ele>284.19400024414</ele>
        <time>2010-04-10T13:12:34Z</time>
      </trkpt>
      <trkpt lat="45.06493" lon="4.73761">
        <ele>281.37100219727</ele>
        <time>2010-04-10T13:12:36Z</time>
      </trkpt>
      <trkpt lat="45.0651" lon="4.73795">
        <ele>276.53399658203</ele>
        <time>2010-04-10T13:12:39Z</time>
      </trkpt>
      <trkpt lat="45.0652" lon="4.73853">
        <ele>270.95700073242</ele>
        <time>2010-04-10T13:12:44Z</time>
      </trkpt>
      <trkpt lat="45.06525" lon="4.73925">
        <ele>263.36099243164</ele>
        <time>2010-04-10T13:12:49Z</time>
      </trkpt>
      <trkpt lat="45.06527" lon="4.73933">
        <ele>263.25299072266</ele>
        <time>2010-04-10T13:12:50Z</time>
      </trkpt>
      <trkpt lat="45.06536" lon="4.7394">
        <ele>261.57800292969</ele>
        <time>2010-04-10T13:12:53Z</time>
      </trkpt>
      <trkpt lat="45.06544" lon="4.73926">
        <ele>260.14599609375</ele>
        <time>2010-04-10T13:12:55Z</time>
      </trkpt>
      <trkpt lat="45.06559" lon="4.73916">
        <ele>255.72099304199</ele>
        <time>2010-04-10T13:12:57Z</time>
      </trkpt>
      <trkpt lat="45.06569" lon="4.73914">
        <ele>252.99800109863</ele>
        <time>2010-04-10T13:12:58Z</time>
      </trkpt>
      <trkpt lat="45.06622" lon="4.73927">
        <ele>245.66999816894</ele>
        <time>2010-04-10T13:13:03Z</time>
      </trkpt>
      <trkpt lat="45.06656" lon="4.7393">
        <ele>243.81599426269</ele>
        <time>2010-04-10T13:13:07Z</time>
      </trkpt>
      <trkpt lat="45.06677" lon="4.73925">
        <ele>242.69599914551</ele>
        <time>2010-04-10T13:13:10Z</time>
      </trkpt>
      <trkpt lat="45.06699" lon="4.73935">
        <ele>239.3869934082</ele>
        <time>2010-04-10T13:13:14Z</time>
      </trkpt>
      <trkpt lat="45.06707" lon="4.73952">
        <ele>238.11099243164</ele>
        <time>2010-04-10T13:13:16Z</time>
      </trkpt>
      <trkpt lat="45.06717" lon="4.73985">
        <ele>234.44400024414</ele>
        <time>2010-04-10T13:13:19Z</time>
      </trkpt>
      <trkpt lat="45.06725" lon="4.74039">
        <ele>231.66900634766</ele>
        <time>2010-04-10T13:13:23Z</time>
      </trkpt>
      <trkpt lat="45.06726" lon="4.74053">
        <ele>231.16400146484</ele>
        <time>2010-04-10T13:13:24Z</time>
      </trkpt>
      <trkpt lat="45.06724" lon="4.74093">
        <ele>229.88499450684</ele>
        <time>2010-04-10T13:13:27Z</time>
      </trkpt>
      <trkpt lat="45.0672" lon="4.74134">
        <ele>226.96600341797</ele>
        <time>2010-04-10T13:13:30Z</time>
      </trkpt>
      <trkpt lat="45.067" lon="4.74189">
        <ele>221.93400573731</ele>
        <time>2010-04-10T13:13:34Z</time>
      </trkpt>
      <trkpt lat="45.06666" lon="4.74243">
        <ele>216.11700439453</ele>
        <time>2010-04-10T13:13:38Z</time>
      </trkpt>
      <trkpt lat="45.06651" lon="4.74266">
        <ele>215.61399841309</ele>
        <time>2010-04-10T13:13:40Z</time>
      </trkpt>
      <trkpt lat="45.06649" lon="4.74276">
        <ele>214.91999816894</ele>
        <time>2010-04-10T13:13:43Z</time>
      </trkpt>
      <trkpt lat="45.06664" lon="4.74265">
        <ele>213.94700622559</ele>
        <time>2010-04-10T13:13:47Z</time>
      </trkpt>
      <trkpt lat="45.06673" lon="4.74254">
        <ele>212.8690032959</ele>
        <time>2010-04-10T13:13:49Z</time>
      </trkpt>
      <trkpt lat="45.06695" lon="4.74236">
        <ele>212.37100219727</ele>
        <time>2010-04-10T13:13:53Z</time>
      </trkpt>
      <trkpt lat="45.06726" lon="4.74209">
        <ele>211.47999572754</ele>
        <time>2010-04-10T13:13:58Z</time>
      </trkpt>
      <trkpt lat="45.06757" lon="4.74179">
        <ele>209.98399353027</ele>
        <time>2010-04-10T13:14:03Z</time>
      </trkpt>
      <trkpt lat="45.06768" lon="4.74166">
        <ele>210.41400146484</ele>
        <time>2010-04-10T13:14:05Z</time>
      </trkpt>
      <trkpt lat="45.06804" lon="4.74117">
        <ele>211.41999816894</ele>
        <time>2010-04-10T13:14:12Z</time>
      </trkpt>
      <trkpt lat="45.06826" lon="4.74088">
        <ele>210.76100158691</ele>
        <time>2010-04-10T13:14:16Z</time>
      </trkpt>
      <trkpt lat="45.0686" lon="4.74026">
        <ele>210.06199645996</ele>
        <time>2010-04-10T13:14:23Z</time>
      </trkpt>
      <trkpt lat="45.06888" lon="4.7398">
        <ele>209.47099304199</ele>
        <time>2010-04-10T13:14:29Z</time>
      </trkpt>
      <trkpt lat="45.06889" lon="4.7396">
        <ele>210.71299743652</ele>
        <time>2010-04-10T13:14:32Z</time>
      </trkpt>
      <trkpt lat="45.06886" lon="4.73955">
        <ele>210.96099853516</ele>
        <time>2010-04-10T13:14:33Z</time>
      </trkpt>
      <trkpt lat="45.06877" lon="4.7394">
        <ele>211.11000061035</ele>
        <time>2010-04-10T13:14:36Z</time>
      </trkpt>
      <trkpt lat="45.06873" lon="4.73916">
        <ele>209.91900634766</ele>
        <time>2010-04-10T13:14:40Z</time>
      </trkpt>
      <trkpt lat="45.06875" lon="4.73903">
        <ele>210.39999389648</ele>
        <time>2010-04-10T13:14:42Z</time>
      </trkpt>
      <trkpt lat="45.06878" lon="4.73884">
        <ele>210.94099426269</ele>
        <time>2010-04-10T13:14:47Z</time>
      </trkpt>
      <trkpt lat="45.06878" lon="4.73867">
        <ele>212.07800292969</ele>
        <time>2010-04-10T13:14:52Z</time>
      </trkpt>
      <trkpt lat="45.06878" lon="4.73861">
        <ele>212.96000671387</ele>
        <time>2010-04-10T13:14:54Z</time>
      </trkpt>
      <trkpt lat="45.06877" lon="4.73848">
        <ele>214.62800598144</ele>
        <time>2010-04-10T13:14:59Z</time>
      </trkpt>
      <trkpt lat="45.06872" lon="4.73836">
        <ele>217.17199707031</ele>
        <time>2010-04-10T13:15:05Z</time>
      </trkpt>
      <trkpt lat="45.06866" lon="4.73829">
        <ele>218.52600097656</ele>
        <time>2010-04-10T13:15:09Z</time>
      </trkpt>
      <trkpt lat="45.06862" lon="4.73823">
        <ele>219.83700561523</ele>
        <time>2010-04-10T13:15:12Z</time>
      </trkpt>
      <trkpt lat="45.06857" lon="4.73812">
        <ele>221.83000183106</ele>
        <time>2010-04-10T13:15:17Z</time>
      </trkpt>
      <trkpt lat="45.06855" lon="4.73801">
        <ele>223.14199829102</ele>
        <time>2010-04-10T13:15:21Z</time>
      </trkpt>
      <trkpt lat="45.06849" lon="4.73776">
        <ele>226.05400085449</ele>
        <time>2010-04-10T13:15:30Z</time>
      </trkpt>
      <trkpt lat="45.06844" lon="4.73757">
        <ele>227.78700256348</ele>
        <time>2010-04-10T13:15:37Z</time>
      </trkpt>
      <trkpt lat="45.0684" lon="4.73736">
        <ele>229.6190032959</ele>
        <time>2010-04-10T13:15:45Z</time>
      </trkpt>
      <trkpt lat="45.06841" lon="4.73722">
        <ele>231.28500366211</ele>
        <time>2010-04-10T13:15:51Z</time>
      </trkpt>
      <trkpt lat="45.06853" lon="4.7372">
        <ele>233.21200561523</ele>
        <time>2010-04-10T13:15:58Z</time>
      </trkpt>
      <trkpt lat="45.06863" lon="4.73728">
        <ele>234.72799682617</ele>
        <time>2010-04-10T13:16:04Z</time>
      </trkpt>
      <trkpt lat="45.06878" lon="4.73739">
        <ele>235.86999511719</ele>
        <time>2010-04-10T13:16:11Z</time>
      </trkpt>
      <trkpt lat="45.06889" lon="4.73745">
        <ele>236.89100646973</ele>
        <time>2010-04-10T13:16:16Z</time>
      </trkpt>
      <trkpt lat="45.06902" lon="4.73757">
        <ele>239.39100646973</ele>
        <time>2010-04-10T13:16:24Z</time>
      </trkpt>
      <trkpt lat="45.06916" lon="4.73766">
        <ele>241.0890045166</ele>
        <time>2010-04-10T13:16:31Z</time>
      </trkpt>
      <trkpt lat="45.06926" lon="4.73773">
        <ele>242.44400024414</ele>
        <time>2010-04-10T13:16:37Z</time>
      </trkpt>
      <trkpt lat="45.0694" lon="4.73781">
        <ele>244.51899719238</ele>
        <time>2010-04-10T13:16:44Z</time>
      </trkpt>
      <trkpt lat="45.06955" lon="4.73793">
        <ele>246.43499755859</ele>
        <time>2010-04-10T13:16:52Z</time>
      </trkpt>
      <trkpt lat="45.06966" lon="4.73799">
        <ele>248.10200500488</ele>
        <time>2010-04-10T13:16:58Z</time>
      </trkpt>
      <trkpt lat="45.0698" lon="4.73807">
        <ele>249.50799560547</ele>
        <time>2010-04-10T13:17:05Z</time>
      </trkpt>
      <trkpt lat="45.06992" lon="4.73817">
        <ele>249.57699584961</ele>
        <time>2010-04-10T13:17:12Z</time>
      </trkpt>
      <trkpt lat="45.07005" lon="4.73831">
        <ele>249.55200195312</ele>
        <time>2010-04-10T13:17:19Z</time>
      </trkpt>
      <trkpt lat="45.07018" lon="4.73849">
        <ele>250.69700622559</ele>
        <time>2010-04-10T13:17:26Z</time>
      </trkpt>
      <trkpt lat="45.07027" lon="4.73861">
        <ele>251.77699279785</ele>
        <time>2010-04-10T13:17:32Z</time>
      </trkpt>
      <trkpt lat="45.07035" lon="4.73871">
        <ele>253.70599365234</ele>
        <time>2010-04-10T13:17:37Z</time>
      </trkpt>
      <trkpt lat="45.07051" lon="4.73887">
        <ele>256.00201416016</ele>
        <time>2010-04-10T13:17:46Z</time>
      </trkpt>
      <trkpt lat="45.07059" lon="4.73893">
        <ele>257.92001342773</ele>
        <time>2010-04-10T13:17:50Z</time>
      </trkpt>
      <trkpt lat="45.07069" lon="4.73901">
        <ele>257.99798583984</ele>
        <time>2010-04-10T13:17:55Z</time>
      </trkpt>
      <trkpt lat="45.07086" lon="4.7392">
        <ele>258.61199951172</ele>
        <time>2010-04-10T13:18:02Z</time>
      </trkpt>
      <trkpt lat="45.07092" lon="4.73928">
        <ele>258.45001220703</ele>
        <time>2010-04-10T13:18:04Z</time>
      </trkpt>
      <trkpt lat="45.07109" lon="4.73952">
        <ele>257.52600097656</ele>
        <time>2010-04-10T13:18:09Z</time>
      </trkpt>
      <trkpt lat="45.07122" lon="4.73975">
        <ele>258.61499023438</ele>
        <time>2010-04-10T13:18:14Z</time>
      </trkpt>
      <trkpt lat="45.07133" lon="4.73993">
        <ele>259.8330078125</ele>
        <time>2010-04-10T13:18:20Z</time>
      </trkpt>
      <trkpt lat="45.07144" lon="4.74014">
        <ele>261.70098876953</ele>
        <time>2010-04-10T13:18:27Z</time>
      </trkpt>
      <trkpt lat="45.07151" lon="4.74026">
        <ele>263.22399902344</ele>
        <time>2010-04-10T13:18:32Z</time>
      </trkpt>
      <trkpt lat="45.07156" lon="4.74037">
        <ele>264.94000244141</ele>
        <time>2010-04-10T13:18:37Z</time>
      </trkpt>
      <trkpt lat="45.07162" lon="4.7405">
        <ele>266.73300170898</ele>
        <time>2010-04-10T13:18:43Z</time>
      </trkpt>
      <trkpt lat="45.07166" lon="4.74062">
        <ele>268.72601318359</ele>
        <time>2010-04-10T13:18:49Z</time>
      </trkpt>
      <trkpt lat="45.07167" lon="4.74065">
        <ele>268.99600219727</ele>
        <time>2010-04-10T13:18:50Z</time>
      </trkpt>
      <trkpt lat="45.07171" lon="4.74078">
        <ele>271.08401489258</ele>
        <time>2010-04-10T13:18:56Z</time>
      </trkpt>
      <trkpt lat="45.07178" lon="4.74095">
        <ele>273.78900146484</ele>
        <time>2010-04-10T13:19:04Z</time>
      </trkpt>
      <trkpt lat="45.07184" lon="4.74112">
        <ele>276.04699707031</ele>
        <time>2010-04-10T13:19:12Z</time>
      </trkpt>
      <trkpt lat="45.07191" lon="4.74131">
        <ele>277.91400146484</ele>
        <time>2010-04-10T13:19:20Z</time>
      </trkpt>
      <trkpt lat="45.07195" lon="4.7415">
        <ele>279.32901000977</ele>
        <time>2010-04-10T13:19:26Z</time>
      </trkpt>
      <trkpt lat="45.07198" lon="4.74176">
        <ele>280.00601196289</ele>
        <time>2010-04-10T13:19:33Z</time>
      </trkpt>
      <trkpt lat="45.07194" lon="4.74194">
        <ele>281.50100708008</ele>
        <time>2010-04-10T13:19:39Z</time>
      </trkpt>
      <trkpt lat="45.07188" lon="4.74207">
        <ele>283.5830078125</ele>
        <time>2010-04-10T13:19:46Z</time>
      </trkpt>
      <trkpt lat="45.07178" lon="4.74225">
        <ele>286.22698974609</ele>
        <time>2010-04-10T13:19:55Z</time>
      </trkpt>
      <trkpt lat="45.07173" lon="4.74237">
        <ele>287.83200073242</ele>
        <time>2010-04-10T13:20:01Z</time>
      </trkpt>
      <trkpt lat="45.07171" lon="4.74242">
        <ele>288.90798950195</ele>
        <time>2010-04-10T13:20:04Z</time>
      </trkpt>
      <trkpt lat="45.0717" lon="4.74252">
        <ele>289.99700927734</ele>
        <time>2010-04-10T13:20:08Z</time>
      </trkpt>
      <trkpt lat="45.07169" lon="4.74259">
        <ele>291.03601074219</ele>
        <time>2010-04-10T13:20:11Z</time>
      </trkpt>
      <trkpt lat="45.07172" lon="4.74274">
        <ele>293.0119934082</ele>
        <time>2010-04-10T13:20:18Z</time>
      </trkpt>
      <trkpt lat="45.07175" lon="4.7428">
        <ele>293.80499267578</ele>
        <time>2010-04-10T13:20:21Z</time>
      </trkpt>
      <trkpt lat="45.07185" lon="4.74296">
        <ele>296.18701171875</ele>
        <time>2010-04-10T13:20:31Z</time>
      </trkpt>
      <trkpt lat="45.07188" lon="4.74302">
        <ele>297.13101196289</ele>
        <time>2010-04-10T13:20:34Z</time>
      </trkpt>
      <trkpt lat="45.0719" lon="4.74322">
        <ele>299.21798706055</ele>
        <time>2010-04-10T13:20:43Z</time>
      </trkpt>
      <trkpt lat="45.0719" lon="4.74341">
        <ele>300.96499633789</ele>
        <time>2010-04-10T13:20:51Z</time>
      </trkpt>
      <trkpt lat="45.0719" lon="4.74357">
        <ele>302.60400390625</ele>
        <time>2010-04-10T13:20:57Z</time>
      </trkpt>
      <trkpt lat="45.07191" lon="4.74365">
        <ele>303.83099365234</ele>
        <time>2010-04-10T13:21:00Z</time>
      </trkpt>
      <trkpt lat="45.07193" lon="4.7437">
        <ele>304.81298828125</ele>
        <time>2010-04-10T13:21:02Z</time>
      </trkpt>
      <trkpt lat="45.07199" lon="4.74384">
        <ele>306.07501220703</ele>
        <time>2010-04-10T13:21:08Z</time>
      </trkpt>
      <trkpt lat="45.07209" lon="4.74404">
        <ele>306.62600708008</ele>
        <time>2010-04-10T13:21:15Z</time>
      </trkpt>
      <trkpt lat="45.07219" lon="4.74423">
        <ele>307.16198730469</ele>
        <time>2010-04-10T13:21:21Z</time>
      </trkpt>
      <trkpt lat="45.07236" lon="4.7445">
        <ele>306.8039855957</ele>
        <time>2010-04-10T13:21:28Z</time>
      </trkpt>
      <trkpt lat="45.07259" lon="4.74483">
        <ele>305.15899658203</ele>
        <time>2010-04-10T13:21:35Z</time>
      </trkpt>
      <trkpt lat="45.07269" lon="4.74492">
        <ele>303.75</ele>
        <time>2010-04-10T13:21:37Z</time>
      </trkpt>
      <trkpt lat="45.07279" lon="4.74505">
        <ele>302.80899047852</ele>
        <time>2010-04-10T13:21:39Z</time>
      </trkpt>
      <trkpt lat="45.07295" lon="4.74535">
        <ele>303.40600585938</ele>
        <time>2010-04-10T13:21:43Z</time>
      </trkpt>
      <trkpt lat="45.073" lon="4.7454">
        <ele>303.65600585938</ele>
        <time>2010-04-10T13:21:44Z</time>
      </trkpt>
      <trkpt lat="45.07314" lon="4.74548">
        <ele>305.3330078125</ele>
        <time>2010-04-10T13:21:47Z</time>
      </trkpt>
      <trkpt lat="45.07328" lon="4.74558">
        <ele>306.98400878906</ele>
        <time>2010-04-10T13:21:52Z</time>
      </trkpt>
      <trkpt lat="45.0734" lon="4.74576">
        <ele>308.16400146484</ele>
        <time>2010-04-10T13:21:59Z</time>
      </trkpt>
      <trkpt lat="45.07338" lon="4.7459">
        <ele>309.28799438477</ele>
        <time>2010-04-10T13:22:03Z</time>
      </trkpt>
      <trkpt lat="45.07336" lon="4.74613">
        <ele>310.65899658203</ele>
        <time>2010-04-10T13:22:09Z</time>
      </trkpt>
      <trkpt lat="45.07343" lon="4.7464">
        <ele>311.70901489258</ele>
        <time>2010-04-10T13:22:16Z</time>
      </trkpt>
      <trkpt lat="45.07354" lon="4.74664">
        <ele>313.86599731445</ele>
        <time>2010-04-10T13:22:24Z</time>
      </trkpt>
      <trkpt lat="45.07366" lon="4.74684">
        <ele>316.48400878906</ele>
        <time>2010-04-10T13:22:31Z</time>
      </trkpt>
      <trkpt lat="45.07377" lon="4.74694">
        <ele>317.71099853516</ele>
        <time>2010-04-10T13:22:36Z</time>
      </trkpt>
      <trkpt lat="45.07384" lon="4.74713">
        <ele>320.6130065918</ele>
        <time>2010-04-10T13:22:42Z</time>
      </trkpt>
      <trkpt lat="45.07394" lon="4.74741">
        <ele>322.14099121094</ele>
        <time>2010-04-10T13:22:51Z</time>
      </trkpt>
      <trkpt lat="45.07399" lon="4.74762">
        <ele>324.84201049805</ele>
        <time>2010-04-10T13:22:59Z</time>
      </trkpt>
      <trkpt lat="45.07404" lon="4.74778">
        <ele>326.72500610352</ele>
        <time>2010-04-10T13:23:05Z</time>
      </trkpt>
      <trkpt lat="45.07409" lon="4.74796">
        <ele>327.89401245117</ele>
        <time>2010-04-10T13:23:12Z</time>
      </trkpt>
      <trkpt lat="45.07416" lon="4.74812">
        <ele>330.13299560547</ele>
        <time>2010-04-10T13:23:19Z</time>
      </trkpt>
      <trkpt lat="45.07426" lon="4.74828">
        <ele>332.01599121094</ele>
        <time>2010-04-10T13:23:27Z</time>
      </trkpt>
      <trkpt lat="45.07437" lon="4.74843">
        <ele>334.41900634766</ele>
        <time>2010-04-10T13:23:35Z</time>
      </trkpt>
      <trkpt lat="45.07445" lon="4.7486">
        <ele>335.99301147461</ele>
        <time>2010-04-10T13:23:42Z</time>
      </trkpt>
      <trkpt lat="45.07457" lon="4.74876">
        <ele>338.18798828125</ele>
        <time>2010-04-10T13:23:50Z</time>
      </trkpt>
      <trkpt lat="45.0746" lon="4.7488">
        <ele>339.16400146484</ele>
        <time>2010-04-10T13:23:52Z</time>
      </trkpt>
      <trkpt lat="45.07465" lon="4.74898">
        <ele>341.13000488281</ele>
        <time>2010-04-10T13:23:59Z</time>
      </trkpt>
      <trkpt lat="45.07458" lon="4.74913">
        <ele>341.61801147461</ele>
        <time>2010-04-10T13:24:05Z</time>
      </trkpt>
      <trkpt lat="45.07442" lon="4.74928">
        <ele>342.41198730469</ele>
        <time>2010-04-10T13:24:13Z</time>
      </trkpt>
      <trkpt lat="45.07426" lon="4.74928">
        <ele>343.15899658203</ele>
        <time>2010-04-10T13:24:19Z</time>
      </trkpt>
      <trkpt lat="45.0741" lon="4.74925">
        <ele>344.45999145508</ele>
        <time>2010-04-10T13:24:25Z</time>
      </trkpt>
      <trkpt lat="45.07387" lon="4.74924">
        <ele>345.73498535156</ele>
        <time>2010-04-10T13:24:33Z</time>
      </trkpt>
      <trkpt lat="45.07365" lon="4.74925">
        <ele>347.57299804688</ele>
        <time>2010-04-10T13:24:42Z</time>
      </trkpt>
      <trkpt lat="45.07349" lon="4.74925">
        <ele>349.15798950195</ele>
        <time>2010-04-10T13:24:49Z</time>
      </trkpt>
      <trkpt lat="45.07338" lon="4.74924">
        <ele>351.08599853516</ele>
        <time>2010-04-10T13:24:55Z</time>
      </trkpt>
      <trkpt lat="45.07324" lon="4.7492">
        <ele>353.89801025391</ele>
        <time>2010-04-10T13:25:02Z</time>
      </trkpt>
      <trkpt lat="45.07318" lon="4.74919">
        <ele>355.1669921875</ele>
        <time>2010-04-10T13:25:05Z</time>
      </trkpt>
      <trkpt lat="45.07303" lon="4.74917">
        <ele>358.32998657227</ele>
        <time>2010-04-10T13:25:13Z</time>
      </trkpt>
      <trkpt lat="45.0729" lon="4.74915">
        <ele>359.76098632812</ele>
        <time>2010-04-10T13:25:20Z</time>
      </trkpt>
      <trkpt lat="45.07276" lon="4.74913">
        <ele>361.53201293945</ele>
        <time>2010-04-10T13:25:27Z</time>
      </trkpt>
      <trkpt lat="45.07263" lon="4.74914">
        <ele>363.22900390625</ele>
        <time>2010-04-10T13:25:34Z</time>
      </trkpt>
      <trkpt lat="45.07248" lon="4.74916">
        <ele>365.7380065918</ele>
        <time>2010-04-10T13:25:42Z</time>
      </trkpt>
      <trkpt lat="45.0723" lon="4.74917">
        <ele>368.34100341797</ele>
        <time>2010-04-10T13:25:50Z</time>
      </trkpt>
      <trkpt lat="45.07215" lon="4.74917">
        <ele>369.83599853516</ele>
        <time>2010-04-10T13:25:57Z</time>
      </trkpt>
      <trkpt lat="45.07197" lon="4.74919">
        <ele>371.78399658203</ele>
        <time>2010-04-10T13:26:05Z</time>
      </trkpt>
      <trkpt lat="45.07181" lon="4.74922">
        <ele>373.50299072266</ele>
        <time>2010-04-10T13:26:12Z</time>
      </trkpt>
      <trkpt lat="45.07166" lon="4.74931">
        <ele>375.00601196289</ele>
        <time>2010-04-10T13:26:19Z</time>
      </trkpt>
      <trkpt lat="45.0716" lon="4.74949">
        <ele>376.64999389648</ele>
        <time>2010-04-10T13:26:25Z</time>
      </trkpt>
      <trkpt lat="45.0716" lon="4.74952">
        <ele>376.88000488281</ele>
        <time>2010-04-10T13:26:26Z</time>
      </trkpt>
      <trkpt lat="45.07169" lon="4.74962">
        <ele>377.65798950195</ele>
        <time>2010-04-10T13:26:31Z</time>
      </trkpt>
      <trkpt lat="45.07189" lon="4.74968">
        <ele>378.67401123047</ele>
        <time>2010-04-10T13:26:38Z</time>
      </trkpt>
      <trkpt lat="45.07213" lon="4.74974">
        <ele>380.88101196289</ele>
        <time>2010-04-10T13:26:47Z</time>
      </trkpt>
      <trkpt lat="45.07234" lon="4.7498">
        <ele>382.12600708008</ele>
        <time>2010-04-10T13:26:55Z</time>
      </trkpt>
      <trkpt lat="45.07251" lon="4.74987">
        <ele>384.18600463867</ele>
        <time>2010-04-10T13:27:02Z</time>
      </trkpt>
      <trkpt lat="45.07267" lon="4.74996">
        <ele>384.56298828125</ele>
        <time>2010-04-10T13:27:08Z</time>
      </trkpt>
      <trkpt lat="45.07295" lon="4.75011">
        <ele>385.11401367188</ele>
        <time>2010-04-10T13:27:17Z</time>
      </trkpt>
      <trkpt lat="45.07323" lon="4.75027">
        <ele>386.15399169922</ele>
        <time>2010-04-10T13:27:26Z</time>
      </trkpt>
      <trkpt lat="45.07343" lon="4.7504">
        <ele>387.15399169922</ele>
        <time>2010-04-10T13:27:33Z</time>
      </trkpt>
      <trkpt lat="45.07355" lon="4.75051">
        <ele>387.93899536133</ele>
        <time>2010-04-10T13:27:38Z</time>
      </trkpt>
      <trkpt lat="45.07362" lon="4.75057">
        <ele>389.34899902344</ele>
        <time>2010-04-10T13:27:41Z</time>
      </trkpt>
      <trkpt lat="45.07379" lon="4.75073">
        <ele>390.35598754883</ele>
        <time>2010-04-10T13:27:48Z</time>
      </trkpt>
      <trkpt lat="45.07401" lon="4.75094">
        <ele>391.84600830078</ele>
        <time>2010-04-10T13:27:57Z</time>
      </trkpt>
      <trkpt lat="45.07418" lon="4.75106">
        <ele>392.85998535156</ele>
        <time>2010-04-10T13:28:03Z</time>
      </trkpt>
      <trkpt lat="45.07449" lon="4.75119">
        <ele>394.5</ele>
        <time>2010-04-10T13:28:12Z</time>
      </trkpt>
      <trkpt lat="45.07473" lon="4.75125">
        <ele>394.89700317383</ele>
        <time>2010-04-10T13:28:18Z</time>
      </trkpt>
      <trkpt lat="45.07504" lon="4.75129">
        <ele>395.25698852539</ele>
        <time>2010-04-10T13:28:25Z</time>
      </trkpt>
      <trkpt lat="45.07531" lon="4.75128">
        <ele>395.80999755859</ele>
        <time>2010-04-10T13:28:31Z</time>
      </trkpt>
      <trkpt lat="45.07547" lon="4.75116">
        <ele>396.53601074219</ele>
        <time>2010-04-10T13:28:35Z</time>
      </trkpt>
      <trkpt lat="45.07549" lon="4.7511">
        <ele>396.42001342773</ele>
        <time>2010-04-10T13:28:36Z</time>
      </trkpt>
      <trkpt lat="45.07555" lon="4.75059">
        <ele>398.14300537109</ele>
        <time>2010-04-10T13:28:44Z</time>
      </trkpt>
      <trkpt lat="45.0756" lon="4.75024">
        <ele>397.77398681641</ele>
        <time>2010-04-10T13:28:50Z</time>
      </trkpt>
      <trkpt lat="45.07569" lon="4.74996">
        <ele>395.36599731445</ele>
        <time>2010-04-10T13:28:54Z</time>
      </trkpt>
      <trkpt lat="45.07576" lon="4.74971">
        <ele>395.03601074219</ele>
        <time>2010-04-10T13:28:57Z</time>
      </trkpt>
      <trkpt lat="45.07584" lon="4.74927">
        <ele>396.95999145508</ele>
        <time>2010-04-10T13:29:03Z</time>
      </trkpt>
      <trkpt lat="45.07586" lon="4.74906">
        <ele>399.73400878906</ele>
        <time>2010-04-10T13:29:08Z</time>
      </trkpt>
      <trkpt lat="45.07589" lon="4.74882">
        <ele>401.61700439453</ele>
        <time>2010-04-10T13:29:15Z</time>
      </trkpt>
      <trkpt lat="45.07592" lon="4.74858">
        <ele>404.27700805664</ele>
        <time>2010-04-10T13:29:22Z</time>
      </trkpt>
      <trkpt lat="45.07598" lon="4.74841">
        <ele>405.34799194336</ele>
        <time>2010-04-10T13:29:27Z</time>
      </trkpt>
      <trkpt lat="45.07605" lon="4.74828">
        <ele>405.72198486328</ele>
        <time>2010-04-10T13:29:31Z</time>
      </trkpt>
      <trkpt lat="45.07621" lon="4.74812">
        <ele>406.39199829102</ele>
        <time>2010-04-10T13:29:37Z</time>
      </trkpt>
      <trkpt lat="45.07638" lon="4.74793">
        <ele>408.26400756836</ele>
        <time>2010-04-10T13:29:44Z</time>
      </trkpt>
      <trkpt lat="45.07658" lon="4.74769">
        <ele>410.91299438477</ele>
        <time>2010-04-10T13:29:53Z</time>
      </trkpt>
      <trkpt lat="45.07678" lon="4.74747">
        <ele>412.8330078125</ele>
        <time>2010-04-10T13:30:01Z</time>
      </trkpt>
      <trkpt lat="45.07695" lon="4.74734">
        <ele>414.7919921875</ele>
        <time>2010-04-10T13:30:09Z</time>
      </trkpt>
      <trkpt lat="45.07712" lon="4.7472">
        <ele>416.86499023438</ele>
        <time>2010-04-10T13:30:18Z</time>
      </trkpt>
      <trkpt lat="45.07729" lon="4.74707">
        <ele>419.2799987793</ele>
        <time>2010-04-10T13:30:27Z</time>
      </trkpt>
      <trkpt lat="45.07731" lon="4.74706">
        <ele>419.46701049805</ele>
        <time>2010-04-10T13:30:28Z</time>
      </trkpt>
      <trkpt lat="45.07746" lon="4.74695">
        <ele>421.0299987793</ele>
        <time>2010-04-10T13:30:36Z</time>
      </trkpt>
      <trkpt lat="45.07757" lon="4.74686">
        <ele>422.37600708008</ele>
        <time>2010-04-10T13:30:42Z</time>
      </trkpt>
      <trkpt lat="45.0777" lon="4.74675">
        <ele>423.29598999023</ele>
        <time>2010-04-10T13:30:48Z</time>
      </trkpt>
      <trkpt lat="45.07783" lon="4.7466">
        <ele>425.20401000977</ele>
        <time>2010-04-10T13:30:55Z</time>
      </trkpt>
      <trkpt lat="45.07801" lon="4.74638">
        <ele>426.86599731445</ele>
        <time>2010-04-10T13:31:04Z</time>
      </trkpt>
      <trkpt lat="45.07815" lon="4.74618">
        <ele>429.04598999023</ele>
        <time>2010-04-10T13:31:12Z</time>
      </trkpt>
      <trkpt lat="45.07818" lon="4.74614">
        <ele>430.16400146484</ele>
        <time>2010-04-10T13:31:14Z</time>
      </trkpt>
      <trkpt lat="45.0783" lon="4.74598">
        <ele>432.42999267578</ele>
        <time>2010-04-10T13:31:22Z</time>
      </trkpt>
      <trkpt lat="45.07845" lon="4.74587">
        <ele>434.93600463867</ele>
        <time>2010-04-10T13:31:30Z</time>
      </trkpt>
      <trkpt lat="45.07862" lon="4.74581">
        <ele>438.07800292969</ele>
        <time>2010-04-10T13:31:39Z</time>
      </trkpt>
      <trkpt lat="45.07877" lon="4.74573">
        <ele>439.85800170898</ele>
        <time>2010-04-10T13:31:46Z</time>
      </trkpt>
      <trkpt lat="45.07891" lon="4.74562">
        <ele>440.14498901367</ele>
        <time>2010-04-10T13:31:52Z</time>
      </trkpt>
      <trkpt lat="45.07909" lon="4.7455">
        <ele>440.88900756836</ele>
        <time>2010-04-10T13:31:58Z</time>
      </trkpt>
      <trkpt lat="45.07928" lon="4.7454">
        <ele>442.50799560547</ele>
        <time>2010-04-10T13:32:04Z</time>
      </trkpt>
      <trkpt lat="45.07947" lon="4.74536">
        <ele>441.81500244141</ele>
        <time>2010-04-10T13:32:09Z</time>
      </trkpt>
      <trkpt lat="45.07955" lon="4.74535">
        <ele>441.31201171875</ele>
        <time>2010-04-10T13:32:11Z</time>
      </trkpt>
      <trkpt lat="45.07985" lon="4.74528">
        <ele>442.31100463867</ele>
        <time>2010-04-10T13:32:19Z</time>
      </trkpt>
      <trkpt lat="45.07996" lon="4.74527">
        <ele>443.10699462891</ele>
        <time>2010-04-10T13:32:22Z</time>
      </trkpt>
      <trkpt lat="45.08014" lon="4.74527">
        <ele>442.56900024414</ele>
        <time>2010-04-10T13:32:26Z</time>
      </trkpt>
      <trkpt lat="45.08027" lon="4.74524">
        <ele>442.56298828125</ele>
        <time>2010-04-10T13:32:29Z</time>
      </trkpt>
      <trkpt lat="45.08048" lon="4.7451">
        <ele>443.40301513672</ele>
        <time>2010-04-10T13:32:34Z</time>
      </trkpt>
      <trkpt lat="45.08058" lon="4.74488">
        <ele>443.74600219727</ele>
        <time>2010-04-10T13:32:38Z</time>
      </trkpt>
      <trkpt lat="45.08059" lon="4.74475">
        <ele>444.69500732422</ele>
        <time>2010-04-10T13:32:40Z</time>
      </trkpt>
      <trkpt lat="45.08057" lon="4.74438">
        <ele>443.83599853516</ele>
        <time>2010-04-10T13:32:45Z</time>
      </trkpt>
      <trkpt lat="45.08055" lon="4.744">
        <ele>442.19900512695</ele>
        <time>2010-04-10T13:32:49Z</time>
      </trkpt>
      <trkpt lat="45.08059" lon="4.74356">
        <ele>440.34899902344</ele>
        <time>2010-04-10T13:32:53Z</time>
      </trkpt>
      <trkpt lat="45.08065" lon="4.74335">
        <ele>439.73699951172</ele>
        <time>2010-04-10T13:32:55Z</time>
      </trkpt>
      <trkpt lat="45.08084" lon="4.74272">
        <ele>439.74398803711</ele>
        <time>2010-04-10T13:33:01Z</time>
      </trkpt>
      <trkpt lat="45.08099" lon="4.7424">
        <ele>440.07400512695</ele>
        <time>2010-04-10T13:33:05Z</time>
      </trkpt>
      <trkpt lat="45.08101" lon="4.74232">
        <ele>440.03399658203</ele>
        <time>2010-04-10T13:33:06Z</time>
      </trkpt>
      <trkpt lat="45.08108" lon="4.74201">
        <ele>440.45300292969</ele>
        <time>2010-04-10T13:33:10Z</time>
      </trkpt>
      <trkpt lat="45.08112" lon="4.74168">
        <ele>440.63101196289</ele>
        <time>2010-04-10T13:33:14Z</time>
      </trkpt>
      <trkpt lat="45.08128" lon="4.74137">
        <ele>438.82901000977</ele>
        <time>2010-04-10T13:33:18Z</time>
      </trkpt>
      <trkpt lat="45.08151" lon="4.74113">
        <ele>438.31698608398</ele>
        <time>2010-04-10T13:33:22Z</time>
      </trkpt>
      <trkpt lat="45.08179" lon="4.74101">
        <ele>437.51800537109</ele>
        <time>2010-04-10T13:33:26Z</time>
      </trkpt>
      <trkpt lat="45.08193" lon="4.74107">
        <ele>437.06600952148</ele>
        <time>2010-04-10T13:33:28Z</time>
      </trkpt>
      <trkpt lat="45.08234" lon="4.74129">
        <ele>437.26000976562</ele>
        <time>2010-04-10T13:33:34Z</time>
      </trkpt>
      <trkpt lat="45.08279" lon="4.74143">
        <ele>437.06600952148</ele>
        <time>2010-04-10T13:33:41Z</time>
      </trkpt>
      <trkpt lat="45.08326" lon="4.74154">
        <ele>438.05899047852</ele>
        <time>2010-04-10T13:33:49Z</time>
      </trkpt>
      <trkpt lat="45.0833" lon="4.74155">
        <ele>438.62298583984</ele>
        <time>2010-04-10T13:33:50Z</time>
      </trkpt>
      <trkpt lat="45.08346" lon="4.74164">
        <ele>439.34201049805</ele>
        <time>2010-04-10T13:33:54Z</time>
      </trkpt>
      <trkpt lat="45.0836" lon="4.74171">
        <ele>440.63598632812</ele>
        <time>2010-04-10T13:33:58Z</time>
      </trkpt>
      <trkpt lat="45.08377" lon="4.74176">
        <ele>441.35699462891</ele>
        <time>2010-04-10T13:34:03Z</time>
      </trkpt>
      <trkpt lat="45.08392" lon="4.74177">
        <ele>442.4880065918</ele>
        <time>2010-04-10T13:34:07Z</time>
      </trkpt>
      <trkpt lat="45.08419" lon="4.74176">
        <ele>444.93899536133</ele>
        <time>2010-04-10T13:34:14Z</time>
      </trkpt>
      <trkpt lat="45.08438" lon="4.74173">
        <ele>445.68499755859</ele>
        <time>2010-04-10T13:34:19Z</time>
      </trkpt>
      <trkpt lat="45.08472" lon="4.74166">
        <ele>447.15100097656</ele>
        <time>2010-04-10T13:34:28Z</time>
      </trkpt>
      <trkpt lat="45.08498" lon="4.74161">
        <ele>447.72500610352</ele>
        <time>2010-04-10T13:34:35Z</time>
      </trkpt>
      <trkpt lat="45.08523" lon="4.74151">
        <ele>450.11999511719</ele>
        <time>2010-04-10T13:34:42Z</time>
      </trkpt>
      <trkpt lat="45.08546" lon="4.74132">
        <ele>451.74798583984</ele>
        <time>2010-04-10T13:34:49Z</time>
      </trkpt>
      <trkpt lat="45.08567" lon="4.74109">
        <ele>452.53900146484</ele>
        <time>2010-04-10T13:34:55Z</time>
      </trkpt>
      <trkpt lat="45.08583" lon="4.74092">
        <ele>452.83700561523</ele>
        <time>2010-04-10T13:35:00Z</time>
      </trkpt>
      <trkpt lat="45.08604" lon="4.74076">
        <ele>450.95300292969</ele>
        <time>2010-04-10T13:35:05Z</time>
      </trkpt>
      <trkpt lat="45.08636" lon="4.74063">
        <ele>449.44900512695</ele>
        <time>2010-04-10T13:35:10Z</time>
      </trkpt>
      <trkpt lat="45.08677" lon="4.74052">
        <ele>449.21301269531</ele>
        <time>2010-04-10T13:35:16Z</time>
      </trkpt>
      <trkpt lat="45.08723" lon="4.74041">
        <ele>448.53100585938</ele>
        <time>2010-04-10T13:35:23Z</time>
      </trkpt>
      <trkpt lat="45.08764" lon="4.74039">
        <ele>449.22900390625</ele>
        <time>2010-04-10T13:35:30Z</time>
      </trkpt>
      <trkpt lat="45.08801" lon="4.74044">
        <ele>448.30599975586</ele>
        <time>2010-04-10T13:35:37Z</time>
      </trkpt>
      <trkpt lat="45.08812" lon="4.74047">
        <ele>447.45999145508</ele>
        <time>2010-04-10T13:35:39Z</time>
      </trkpt>
      <trkpt lat="45.08838" lon="4.74045">
        <ele>445.39199829102</ele>
        <time>2010-04-10T13:35:43Z</time>
      </trkpt>
      <trkpt lat="45.08873" lon="4.74037">
        <ele>445.22100830078</ele>
        <time>2010-04-10T13:35:48Z</time>
      </trkpt>
      <trkpt lat="45.08923" lon="4.74027">
        <ele>444.53698730469</ele>
        <time>2010-04-10T13:35:55Z</time>
      </trkpt>
      <trkpt lat="45.08953" lon="4.74014">
        <ele>445.36700439453</ele>
        <time>2010-04-10T13:36:00Z</time>
      </trkpt>
      <trkpt lat="45.08959" lon="4.74011">
        <ele>445.71301269531</ele>
        <time>2010-04-10T13:36:01Z</time>
      </trkpt>
      <trkpt lat="45.08997" lon="4.73981">
        <ele>446.28298950195</ele>
        <time>2010-04-10T13:36:09Z</time>
      </trkpt>
      <trkpt lat="45.0903" lon="4.73953">
        <ele>447.92300415039</ele>
        <time>2010-04-10T13:36:17Z</time>
      </trkpt>
      <trkpt lat="45.09061" lon="4.73938">
        <ele>448.51400756836</ele>
        <time>2010-04-10T13:36:24Z</time>
      </trkpt>
      <trkpt lat="45.09092" lon="4.73934">
        <ele>449.21701049805</ele>
        <time>2010-04-10T13:36:31Z</time>
      </trkpt>
      <trkpt lat="45.09126" lon="4.73917">
        <ele>451.59201049805</ele>
        <time>2010-04-10T13:36:39Z</time>
      </trkpt>
      <trkpt lat="45.09156" lon="4.73892">
        <ele>453.33700561523</ele>
        <time>2010-04-10T13:36:47Z</time>
      </trkpt>
      <trkpt lat="45.09193" lon="4.73866">
        <ele>453.88299560547</ele>
        <time>2010-04-10T13:36:56Z</time>
      </trkpt>
      <trkpt lat="45.09229" lon="4.73841">
        <ele>455.46099853516</ele>
        <time>2010-04-10T13:37:05Z</time>
      </trkpt>
      <trkpt lat="45.09254" lon="4.73824">
        <ele>456.11599731445</ele>
        <time>2010-04-10T13:37:12Z</time>
      </trkpt>
      <trkpt lat="45.0928" lon="4.73807">
        <ele>457.10000610352</ele>
        <time>2010-04-10T13:37:19Z</time>
      </trkpt>
      <trkpt lat="45.09317" lon="4.73788">
        <ele>458.71099853516</ele>
        <time>2010-04-10T13:37:28Z</time>
      </trkpt>
      <trkpt lat="45.09351" lon="4.73774">
        <ele>459.32998657227</ele>
        <time>2010-04-10T13:37:36Z</time>
      </trkpt>
      <trkpt lat="45.0936" lon="4.7377">
        <ele>459.47100830078</ele>
        <time>2010-04-10T13:37:38Z</time>
      </trkpt>
      <trkpt lat="45.09395" lon="4.7375">
        <ele>459.34100341797</ele>
        <time>2010-04-10T13:37:46Z</time>
      </trkpt>
      <trkpt lat="45.09429" lon="4.73726">
        <ele>459.90301513672</ele>
        <time>2010-04-10T13:37:54Z</time>
      </trkpt>
      <trkpt lat="45.09445" lon="4.73714">
        <ele>460.8039855957</ele>
        <time>2010-04-10T13:37:58Z</time>
      </trkpt>
      <trkpt lat="45.09459" lon="4.73707">
        <ele>460.79501342773</ele>
        <time>2010-04-10T13:38:01Z</time>
      </trkpt>
      <trkpt lat="45.09474" lon="4.73705">
        <ele>460.63299560547</ele>
        <time>2010-04-10T13:38:04Z</time>
      </trkpt>
      <trkpt lat="45.09507" lon="4.73711">
        <ele>460.74301147461</ele>
        <time>2010-04-10T13:38:11Z</time>
      </trkpt>
      <trkpt lat="45.09562" lon="4.73721">
        <ele>461.10598754883</ele>
        <time>2010-04-10T13:38:21Z</time>
      </trkpt>
      <trkpt lat="45.09585" lon="4.73726">
        <ele>459.74099731445</ele>
        <time>2010-04-10T13:38:25Z</time>
      </trkpt>
      <trkpt lat="45.09639" lon="4.73732">
        <ele>459.98699951172</ele>
        <time>2010-04-10T13:38:34Z</time>
      </trkpt>
      <trkpt lat="45.09679" lon="4.73721">
        <ele>460.36599731445</ele>
        <time>2010-04-10T13:38:41Z</time>
      </trkpt>
      <trkpt lat="45.09719" lon="4.73707">
        <ele>460.75</ele>
        <time>2010-04-10T13:38:48Z</time>
      </trkpt>
      <trkpt lat="45.09766" lon="4.73681">
        <ele>461.60800170898</ele>
        <time>2010-04-10T13:38:57Z</time>
      </trkpt>
      <trkpt lat="45.09811" lon="4.73647">
        <ele>463.61700439453</ele>
        <time>2010-04-10T13:39:07Z</time>
      </trkpt>
      <trkpt lat="45.09834" lon="4.73625">
        <ele>464.65701293945</ele>
        <time>2010-04-10T13:39:13Z</time>
      </trkpt>
      <trkpt lat="45.09864" lon="4.73593">
        <ele>464.02899169922</ele>
        <time>2010-04-10T13:39:20Z</time>
      </trkpt>
      <trkpt lat="45.09896" lon="4.73555">
        <ele>463.60800170898</ele>
        <time>2010-04-10T13:39:27Z</time>
      </trkpt>
      <trkpt lat="45.09922" lon="4.73526">
        <ele>463.48001098633</ele>
        <time>2010-04-10T13:39:32Z</time>
      </trkpt>
      <trkpt lat="45.09962" lon="4.73495">
        <ele>463.35800170898</ele>
        <time>2010-04-10T13:39:39Z</time>
      </trkpt>
      <trkpt lat="45.10002" lon="4.73474">
        <ele>464.11898803711</ele>
        <time>2010-04-10T13:39:46Z</time>
      </trkpt>
      <trkpt lat="45.10041" lon="4.73448">
        <ele>464.76599121094</ele>
        <time>2010-04-10T13:39:54Z</time>
      </trkpt>
      <trkpt lat="45.10077" lon="4.73425">
        <ele>465.8450012207</ele>
        <time>2010-04-10T13:40:02Z</time>
      </trkpt>
      <trkpt lat="45.10105" lon="4.73409">
        <ele>467.14300537109</ele>
        <time>2010-04-10T13:40:08Z</time>
      </trkpt>
      <trkpt lat="45.10146" lon="4.73387">
        <ele>466.17199707031</ele>
        <time>2010-04-10T13:40:16Z</time>
      </trkpt>
      <trkpt lat="45.10192" lon="4.73364">
        <ele>466.53601074219</ele>
        <time>2010-04-10T13:40:25Z</time>
      </trkpt>
      <trkpt lat="45.10206" lon="4.73357">
        <ele>466.34698486328</ele>
        <time>2010-04-10T13:40:28Z</time>
      </trkpt>
      <trkpt lat="45.10237" lon="4.73336">
        <ele>468.00900268555</ele>
        <time>2010-04-10T13:40:35Z</time>
      </trkpt>
      <trkpt lat="45.10246" lon="4.7333">
        <ele>467.59201049805</ele>
        <time>2010-04-10T13:40:37Z</time>
      </trkpt>
      <trkpt lat="45.1026" lon="4.73317">
        <ele>466.10699462891</ele>
        <time>2010-04-10T13:40:40Z</time>
      </trkpt>
      <trkpt lat="45.10291" lon="4.73282">
        <ele>464.02099609375</ele>
        <time>2010-04-10T13:40:46Z</time>
      </trkpt>
      <trkpt lat="45.10315" lon="4.73255">
        <ele>462.3450012207</ele>
        <time>2010-04-10T13:40:50Z</time>
      </trkpt>
      <trkpt lat="45.10334" lon="4.73234">
        <ele>460.29699707031</ele>
        <time>2010-04-10T13:40:53Z</time>
      </trkpt>
      <trkpt lat="45.10364" lon="4.73197">
        <ele>459.50799560547</ele>
        <time>2010-04-10T13:40:58Z</time>
      </trkpt>
      <trkpt lat="45.10375" lon="4.73182">
        <ele>459.13900756836</ele>
        <time>2010-04-10T13:41:00Z</time>
      </trkpt>
      <trkpt lat="45.10385" lon="4.73167">
        <ele>459.40200805664</ele>
        <time>2010-04-10T13:41:02Z</time>
      </trkpt>
      <trkpt lat="45.10413" lon="4.73149">
        <ele>457.19400024414</ele>
        <time>2010-04-10T13:41:07Z</time>
      </trkpt>
      <trkpt lat="45.10419" lon="4.73167">
        <ele>455.33999633789</ele>
        <time>2010-04-10T13:41:09Z</time>
      </trkpt>
      <trkpt lat="45.10424" lon="4.732">
        <ele>453.63000488281</ele>
        <time>2010-04-10T13:41:12Z</time>
      </trkpt>
      <trkpt lat="45.10423" lon="4.7325">
        <ele>450.45599365234</ele>
        <time>2010-04-10T13:41:16Z</time>
      </trkpt>
      <trkpt lat="45.10423" lon="4.73276">
        <ele>449.6669921875</ele>
        <time>2010-04-10T13:41:18Z</time>
      </trkpt>
      <trkpt lat="45.10423" lon="4.73303">
        <ele>447.86401367188</ele>
        <time>2010-04-10T13:41:20Z</time>
      </trkpt>
      <trkpt lat="45.10423" lon="4.73357">
        <ele>445.66400146484</ele>
        <time>2010-04-10T13:41:24Z</time>
      </trkpt>
      <trkpt lat="45.10424" lon="4.73384">
        <ele>444.80801391602</ele>
        <time>2010-04-10T13:41:26Z</time>
      </trkpt>
      <trkpt lat="45.10437" lon="4.73435">
        <ele>440.89300537109</ele>
        <time>2010-04-10T13:41:30Z</time>
      </trkpt>
      <trkpt lat="45.1045" lon="4.73457">
        <ele>440.09399414062</ele>
        <time>2010-04-10T13:41:32Z</time>
      </trkpt>
      <trkpt lat="45.10455" lon="4.73468">
        <ele>438.71499633789</ele>
        <time>2010-04-10T13:41:33Z</time>
      </trkpt>
      <trkpt lat="45.10464" lon="4.73494">
        <ele>437.61499023438</ele>
        <time>2010-04-10T13:41:35Z</time>
      </trkpt>
      <trkpt lat="45.10475" lon="4.73533">
        <ele>438.59399414062</ele>
        <time>2010-04-10T13:41:38Z</time>
      </trkpt>
      <trkpt lat="45.10473" lon="4.73567">
        <ele>438.77301025391</ele>
        <time>2010-04-10T13:41:41Z</time>
      </trkpt>
      <trkpt lat="45.10458" lon="4.73579">
        <ele>439.99301147461</ele>
        <time>2010-04-10T13:41:43Z</time>
      </trkpt>
      <trkpt lat="45.1044" lon="4.73599">
        <ele>440.77801513672</ele>
        <time>2010-04-10T13:41:46Z</time>
      </trkpt>
      <trkpt lat="45.10431" lon="4.73617">
        <ele>441.34600830078</ele>
        <time>2010-04-10T13:41:48Z</time>
      </trkpt>
      <trkpt lat="45.10416" lon="4.73655">
        <ele>442.35800170898</ele>
        <time>2010-04-10T13:41:52Z</time>
      </trkpt>
      <trkpt lat="45.10397" lon="4.73707">
        <ele>443.56100463867</ele>
        <time>2010-04-10T13:41:58Z</time>
      </trkpt>
      <trkpt lat="45.10394" lon="4.73714">
        <ele>443.55899047852</ele>
        <time>2010-04-10T13:41:59Z</time>
      </trkpt>
      <trkpt lat="45.10369" lon="4.73748">
        <ele>445.68301391602</ele>
        <time>2010-04-10T13:42:05Z</time>
      </trkpt>
      <trkpt lat="45.10352" lon="4.73768">
        <ele>445.08999633789</ele>
        <time>2010-04-10T13:42:09Z</time>
      </trkpt>
      <trkpt lat="45.10342" lon="4.73778">
        <ele>444.21099853516</ele>
        <time>2010-04-10T13:42:11Z</time>
      </trkpt>
      <trkpt lat="45.10335" lon="4.73803">
        <ele>441.98300170898</ele>
        <time>2010-04-10T13:42:14Z</time>
      </trkpt>
      <trkpt lat="45.10344" lon="4.73821">
        <ele>439.43798828125</ele>
        <time>2010-04-10T13:42:16Z</time>
      </trkpt>
      <trkpt lat="45.10365" lon="4.73867">
        <ele>438.95700073242</ele>
        <time>2010-04-10T13:42:21Z</time>
      </trkpt>
      <trkpt lat="45.10364" lon="4.73877">
        <ele>438.84698486328</ele>
        <time>2010-04-10T13:42:22Z</time>
      </trkpt>
      <trkpt lat="45.10357" lon="4.73923">
        <ele>440.31900024414</ele>
        <time>2010-04-10T13:42:27Z</time>
      </trkpt>
      <trkpt lat="45.10352" lon="4.73948">
        <ele>441.66598510742</ele>
        <time>2010-04-10T13:42:30Z</time>
      </trkpt>
      <trkpt lat="45.10349" lon="4.73956">
        <ele>442.10800170898</ele>
        <time>2010-04-10T13:42:31Z</time>
      </trkpt>
      <trkpt lat="45.10332" lon="4.73995">
        <ele>443.375</ele>
        <time>2010-04-10T13:42:37Z</time>
      </trkpt>
      <trkpt lat="45.10327" lon="4.74017">
        <ele>445.76098632812</ele>
        <time>2010-04-10T13:42:41Z</time>
      </trkpt>
      <trkpt lat="45.10328" lon="4.74036">
        <ele>446.96099853516</ele>
        <time>2010-04-10T13:42:45Z</time>
      </trkpt>
      <trkpt lat="45.10339" lon="4.74075">
        <ele>448.46398925781</ele>
        <time>2010-04-10T13:42:53Z</time>
      </trkpt>
      <trkpt lat="45.10345" lon="4.741">
        <ele>449.60198974609</ele>
        <time>2010-04-10T13:42:58Z</time>
      </trkpt>
      <trkpt lat="45.10347" lon="4.74133">
        <ele>451.60000610352</ele>
        <time>2010-04-10T13:43:04Z</time>
      </trkpt>
      <trkpt lat="45.10349" lon="4.74181">
        <ele>452.56399536133</ele>
        <time>2010-04-10T13:43:12Z</time>
      </trkpt>
      <trkpt lat="45.10351" lon="4.74198">
        <ele>453.01300048828</ele>
        <time>2010-04-10T13:43:15Z</time>
      </trkpt>
      <trkpt lat="45.10359" lon="4.74233">
        <ele>453.26699829102</ele>
        <time>2010-04-10T13:43:21Z</time>
      </trkpt>
      <trkpt lat="45.10385" lon="4.7429">
        <ele>452.20001220703</ele>
        <time>2010-04-10T13:43:30Z</time>
      </trkpt>
      <trkpt lat="45.10411" lon="4.74347">
        <ele>453.24398803711</ele>
        <time>2010-04-10T13:43:39Z</time>
      </trkpt>
      <trkpt lat="45.10426" lon="4.74379">
        <ele>455.20999145508</ele>
        <time>2010-04-10T13:43:45Z</time>
      </trkpt>
      <trkpt lat="45.10428" lon="4.74383">
        <ele>455.31698608398</ele>
        <time>2010-04-10T13:43:46Z</time>
      </trkpt>
      <trkpt lat="45.10452" lon="4.74415">
        <ele>456.69500732422</ele>
        <time>2010-04-10T13:43:54Z</time>
      </trkpt>
      <trkpt lat="45.10476" lon="4.74443">
        <ele>457.84298706055</ele>
        <time>2010-04-10T13:44:02Z</time>
      </trkpt>
      <trkpt lat="45.10489" lon="4.74465">
        <ele>458.96398925781</ele>
        <time>2010-04-10T13:44:08Z</time>
      </trkpt>
      <trkpt lat="45.10497" lon="4.74495">
        <ele>460.78698730469</ele>
        <time>2010-04-10T13:44:14Z</time>
      </trkpt>
      <trkpt lat="45.105" lon="4.74517">
        <ele>461.72198486328</ele>
        <time>2010-04-10T13:44:18Z</time>
      </trkpt>
      <trkpt lat="45.10508" lon="4.74556">
        <ele>461.20401000977</ele>
        <time>2010-04-10T13:44:25Z</time>
      </trkpt>
      <trkpt lat="45.10521" lon="4.74604">
        <ele>459.2619934082</ele>
        <time>2010-04-10T13:44:32Z</time>
      </trkpt>
      <trkpt lat="45.10539" lon="4.74662">
        <ele>458.41400146484</ele>
        <time>2010-04-10T13:44:39Z</time>
      </trkpt>
      <trkpt lat="45.10562" lon="4.74712">
        <ele>455.87298583984</ele>
        <time>2010-04-10T13:44:45Z</time>
      </trkpt>
      <trkpt lat="45.10567" lon="4.74721">
        <ele>454.68301391602</ele>
        <time>2010-04-10T13:44:46Z</time>
      </trkpt>
      <trkpt lat="45.10598" lon="4.74763">
        <ele>451.70999145508</ele>
        <time>2010-04-10T13:44:51Z</time>
      </trkpt>
      <trkpt lat="45.10625" lon="4.74814">
        <ele>449.52099609375</ele>
        <time>2010-04-10T13:44:56Z</time>
      </trkpt>
      <trkpt lat="45.10661" lon="4.74892">
        <ele>451.09399414062</ele>
        <time>2010-04-10T13:45:04Z</time>
      </trkpt>
      <trkpt lat="45.10673" lon="4.74919">
        <ele>451.7080078125</ele>
        <time>2010-04-10T13:45:07Z</time>
      </trkpt>
      <trkpt lat="45.10675" lon="4.74946">
        <ele>453.20098876953</ele>
        <time>2010-04-10T13:45:10Z</time>
      </trkpt>
      <trkpt lat="45.10669" lon="4.74962">
        <ele>453.2380065918</ele>
        <time>2010-04-10T13:45:12Z</time>
      </trkpt>
      <trkpt lat="45.10644" lon="4.75023">
        <ele>453.47299194336</ele>
        <time>2010-04-10T13:45:19Z</time>
      </trkpt>
      <trkpt lat="45.10617" lon="4.75086">
        <ele>453.62600708008</ele>
        <time>2010-04-10T13:45:26Z</time>
      </trkpt>
      <trkpt lat="45.10592" lon="4.75144">
        <ele>454.3030090332</ele>
        <time>2010-04-10T13:45:33Z</time>
      </trkpt>
      <trkpt lat="45.10574" lon="4.75199">
        <ele>455.30700683594</ele>
        <time>2010-04-10T13:45:40Z</time>
      </trkpt>
      <trkpt lat="45.10561" lon="4.7526">
        <ele>456.10900878906</ele>
        <time>2010-04-10T13:45:47Z</time>
      </trkpt>
      <trkpt lat="45.10558" lon="4.75279">
        <ele>455.64801025391</ele>
        <time>2010-04-10T13:45:49Z</time>
      </trkpt>
      <trkpt lat="45.10549" lon="4.75305">
        <ele>456.12899780273</ele>
        <time>2010-04-10T13:45:52Z</time>
      </trkpt>
      <trkpt lat="45.10532" lon="4.75332">
        <ele>457.80999755859</ele>
        <time>2010-04-10T13:45:56Z</time>
      </trkpt>
      <trkpt lat="45.10491" lon="4.75383">
        <ele>459.08599853516</ele>
        <time>2010-04-10T13:46:05Z</time>
      </trkpt>
      <trkpt lat="45.10463" lon="4.75435">
        <ele>459.43499755859</ele>
        <time>2010-04-10T13:46:12Z</time>
      </trkpt>
      <trkpt lat="45.1044" lon="4.75491">
        <ele>458.0950012207</ele>
        <time>2010-04-10T13:46:18Z</time>
      </trkpt>
      <trkpt lat="45.10422" lon="4.7554">
        <ele>457.8039855957</ele>
        <time>2010-04-10T13:46:23Z</time>
      </trkpt>
      <trkpt lat="45.10392" lon="4.75615">
        <ele>457.58099365234</ele>
        <time>2010-04-10T13:46:31Z</time>
      </trkpt>
      <trkpt lat="45.10364" lon="4.75684">
        <ele>457.47100830078</ele>
        <time>2010-04-10T13:46:38Z</time>
      </trkpt>
      <trkpt lat="45.10354" lon="4.75703">
        <ele>456.52398681641</ele>
        <time>2010-04-10T13:46:40Z</time>
      </trkpt>
      <trkpt lat="45.10312" lon="4.75777">
        <ele>456.41000366211</ele>
        <time>2010-04-10T13:46:48Z</time>
      </trkpt>
      <trkpt lat="45.10295" lon="4.75818">
        <ele>454.41598510742</ele>
        <time>2010-04-10T13:46:52Z</time>
      </trkpt>
      <trkpt lat="45.10273" lon="4.75885">
        <ele>452.71798706055</ele>
        <time>2010-04-10T13:46:58Z</time>
      </trkpt>
      <trkpt lat="45.10251" lon="4.75925">
        <ele>451.21899414062</ele>
        <time>2010-04-10T13:47:02Z</time>
      </trkpt>
      <trkpt lat="45.10208" lon="4.75976">
        <ele>449.18301391602</ele>
        <time>2010-04-10T13:47:08Z</time>
      </trkpt>
      <trkpt lat="45.10164" lon="4.76027">
        <ele>448.62701416016</ele>
        <time>2010-04-10T13:47:14Z</time>
      </trkpt>
      <trkpt lat="45.10112" lon="4.76069">
        <ele>448.46398925781</ele>
        <time>2010-04-10T13:47:20Z</time>
      </trkpt>
      <trkpt lat="45.10061" lon="4.76093">
        <ele>447.65600585938</ele>
        <time>2010-04-10T13:47:25Z</time>
      </trkpt>
      <trkpt lat="45.10007" lon="4.76095">
        <ele>447.97198486328</ele>
        <time>2010-04-10T13:47:30Z</time>
      </trkpt>
      <trkpt lat="45.09975" lon="4.76088">
        <ele>446.5719909668</ele>
        <time>2010-04-10T13:47:33Z</time>
      </trkpt>
      <trkpt lat="45.09917" lon="4.76054">
        <ele>448.47299194336</ele>
        <time>2010-04-10T13:47:39Z</time>
      </trkpt>
      <trkpt lat="45.09833" lon="4.75996">
        <ele>447.82299804688</ele>
        <time>2010-04-10T13:47:48Z</time>
      </trkpt>
      <trkpt lat="45.09778" lon="4.75964">
        <ele>444.44799804688</ele>
        <time>2010-04-10T13:47:53Z</time>
      </trkpt>
      <trkpt lat="45.09741" lon="4.75952">
        <ele>441.68399047852</ele>
        <time>2010-04-10T13:47:56Z</time>
      </trkpt>
      <trkpt lat="45.09716" lon="4.75947">
        <ele>440.57998657227</ele>
        <time>2010-04-10T13:47:58Z</time>
      </trkpt>
      <trkpt lat="45.09665" lon="4.75937">
        <ele>439.4469909668</ele>
        <time>2010-04-10T13:48:02Z</time>
      </trkpt>
      <trkpt lat="45.09652" lon="4.75936">
        <ele>438.93099975586</ele>
        <time>2010-04-10T13:48:03Z</time>
      </trkpt>
      <trkpt lat="45.096" lon="4.75944">
        <ele>436.71798706055</ele>
        <time>2010-04-10T13:48:07Z</time>
      </trkpt>
      <trkpt lat="45.09553" lon="4.75972">
        <ele>433.80899047852</ele>
        <time>2010-04-10T13:48:11Z</time>
      </trkpt>
      <trkpt lat="45.09527" lon="4.7601">
        <ele>433.3039855957</ele>
        <time>2010-04-10T13:48:14Z</time>
      </trkpt>
      <trkpt lat="45.09508" lon="4.76054">
        <ele>432.26901245117</ele>
        <time>2010-04-10T13:48:17Z</time>
      </trkpt>
      <trkpt lat="45.09473" lon="4.76163">
        <ele>427.62899780273</ele>
        <time>2010-04-10T13:48:24Z</time>
      </trkpt>
      <trkpt lat="45.09462" lon="4.76193">
        <ele>427.98901367188</ele>
        <time>2010-04-10T13:48:26Z</time>
      </trkpt>
      <trkpt lat="45.0943" lon="4.76241">
        <ele>427.07299804688</ele>
        <time>2010-04-10T13:48:30Z</time>
      </trkpt>
      <trkpt lat="45.09397" lon="4.76259">
        <ele>425.23300170898</ele>
        <time>2010-04-10T13:48:33Z</time>
      </trkpt>
      <trkpt lat="45.09385" lon="4.76262">
        <ele>424.98300170898</ele>
        <time>2010-04-10T13:48:34Z</time>
      </trkpt>
      <trkpt lat="45.09341" lon="4.76289">
        <ele>423.34799194336</ele>
        <time>2010-04-10T13:48:38Z</time>
      </trkpt>
      <trkpt lat="45.09335" lon="4.76322">
        <ele>421.32800292969</ele>
        <time>2010-04-10T13:48:40Z</time>
      </trkpt>
      <trkpt lat="45.09336" lon="4.76338">
        <ele>420.86700439453</ele>
        <time>2010-04-10T13:48:41Z</time>
      </trkpt>
      <trkpt lat="45.09335" lon="4.76387">
        <ele>418.84298706055</ele>
        <time>2010-04-10T13:48:44Z</time>
      </trkpt>
      <trkpt lat="45.09319" lon="4.76408">
        <ele>418.24700927734</ele>
        <time>2010-04-10T13:48:46Z</time>
      </trkpt>
      <trkpt lat="45.093" lon="4.76423">
        <ele>418.52899169922</ele>
        <time>2010-04-10T13:48:48Z</time>
      </trkpt>
      <trkpt lat="45.0926" lon="4.76452">
        <ele>416.02801513672</ele>
        <time>2010-04-10T13:48:52Z</time>
      </trkpt>
      <trkpt lat="45.09215" lon="4.76461">
        <ele>413.98300170898</ele>
        <time>2010-04-10T13:48:56Z</time>
      </trkpt>
      <trkpt lat="45.09204" lon="4.76456">
        <ele>413.91000366211</ele>
        <time>2010-04-10T13:48:57Z</time>
      </trkpt>
      <trkpt lat="45.09146" lon="4.76455">
        <ele>411.07901000977</ele>
        <time>2010-04-10T13:49:02Z</time>
      </trkpt>
      <trkpt lat="45.09129" lon="4.76478">
        <ele>409.81698608398</ele>
        <time>2010-04-10T13:49:04Z</time>
      </trkpt>
      <trkpt lat="45.09121" lon="4.76517">
        <ele>408.38198852539</ele>
        <time>2010-04-10T13:49:06Z</time>
      </trkpt>
      <trkpt lat="45.09129" lon="4.76548">
        <ele>407.79800415039</ele>
        <time>2010-04-10T13:49:08Z</time>
      </trkpt>
      <trkpt lat="45.09143" lon="4.76572">
        <ele>406.36099243164</ele>
        <time>2010-04-10T13:49:10Z</time>
      </trkpt>
      <trkpt lat="45.09157" lon="4.76594">
        <ele>405.04098510742</ele>
        <time>2010-04-10T13:49:12Z</time>
      </trkpt>
      <trkpt lat="45.09171" lon="4.76616">
        <ele>405.66198730469</ele>
        <time>2010-04-10T13:49:14Z</time>
      </trkpt>
      <trkpt lat="45.09177" lon="4.76627">
        <ele>404.25500488281</ele>
        <time>2010-04-10T13:49:15Z</time>
      </trkpt>
      <trkpt lat="45.09187" lon="4.76681">
        <ele>402.11599731445</ele>
        <time>2010-04-10T13:49:19Z</time>
      </trkpt>
      <trkpt lat="45.09177" lon="4.76707">
        <ele>404.31399536133</ele>
        <time>2010-04-10T13:49:21Z</time>
      </trkpt>
      <trkpt lat="45.09152" lon="4.76759">
        <ele>402.20999145508</ele>
        <time>2010-04-10T13:49:25Z</time>
      </trkpt>
      <trkpt lat="45.09141" lon="4.76822">
        <ele>399.46398925781</ele>
        <time>2010-04-10T13:49:29Z</time>
      </trkpt>
      <trkpt lat="45.09134" lon="4.76872">
        <ele>397.64300537109</ele>
        <time>2010-04-10T13:49:32Z</time>
      </trkpt>
      <trkpt lat="45.09108" lon="4.76946">
        <ele>395.08099365234</ele>
        <time>2010-04-10T13:49:37Z</time>
      </trkpt>
      <trkpt lat="45.09095" lon="4.76975">
        <ele>394.27700805664</ele>
        <time>2010-04-10T13:49:39Z</time>
      </trkpt>
      <trkpt lat="45.09052" lon="4.77073">
        <ele>391.22100830078</ele>
        <time>2010-04-10T13:49:46Z</time>
      </trkpt>
      <trkpt lat="45.09036" lon="4.77133">
        <ele>389.42001342773</ele>
        <time>2010-04-10T13:49:50Z</time>
      </trkpt>
      <trkpt lat="45.09015" lon="4.77209">
        <ele>383.76098632812</ele>
        <time>2010-04-10T13:49:55Z</time>
      </trkpt>
      <trkpt lat="45.09005" lon="4.77219">
        <ele>383.54000854492</ele>
        <time>2010-04-10T13:49:56Z</time>
      </trkpt>
      <trkpt lat="45.08983" lon="4.77229">
        <ele>384.27899169922</ele>
        <time>2010-04-10T13:49:58Z</time>
      </trkpt>
      <trkpt lat="45.08948" lon="4.77222">
        <ele>383.65301513672</ele>
        <time>2010-04-10T13:50:01Z</time>
      </trkpt>
      <trkpt lat="45.0885" lon="4.77179">
        <ele>384.13900756836</ele>
        <time>2010-04-10T13:50:10Z</time>
      </trkpt>
      <trkpt lat="45.08793" lon="4.77153">
        <ele>386.21398925781</ele>
        <time>2010-04-10T13:50:16Z</time>
      </trkpt>
      <trkpt lat="45.08751" lon="4.77136">
        <ele>387.33898925781</ele>
        <time>2010-04-10T13:50:21Z</time>
      </trkpt>
      <trkpt lat="45.08735" lon="4.77129">
        <ele>388.07699584961</ele>
        <time>2010-04-10T13:50:23Z</time>
      </trkpt>
      <trkpt lat="45.08713" lon="4.77123">
        <ele>389.1130065918</ele>
        <time>2010-04-10T13:50:26Z</time>
      </trkpt>
      <trkpt lat="45.08685" lon="4.77127">
        <ele>390.95300292969</ele>
        <time>2010-04-10T13:50:30Z</time>
      </trkpt>
      <trkpt lat="45.08667" lon="4.77136">
        <ele>392.33499145508</ele>
        <time>2010-04-10T13:50:33Z</time>
      </trkpt>
      <trkpt lat="45.08644" lon="4.77151">
        <ele>394.92999267578</ele>
        <time>2010-04-10T13:50:38Z</time>
      </trkpt>
      <trkpt lat="45.08641" lon="4.77154">
        <ele>395.17498779297</ele>
        <time>2010-04-10T13:50:39Z</time>
      </trkpt>
      <trkpt lat="45.08611" lon="4.77174">
        <ele>397.875</ele>
        <time>2010-04-10T13:50:48Z</time>
      </trkpt>
      <trkpt lat="45.08595" lon="4.77185">
        <ele>399.42001342773</ele>
        <time>2010-04-10T13:50:53Z</time>
      </trkpt>
      <trkpt lat="45.08572" lon="4.77203">
        <ele>401.5530090332</ele>
        <time>2010-04-10T13:51:01Z</time>
      </trkpt>
      <trkpt lat="45.08541" lon="4.77225">
        <ele>402.89099121094</ele>
        <time>2010-04-10T13:51:10Z</time>
      </trkpt>
      <trkpt lat="45.08525" lon="4.77241">
        <ele>403.76501464844</ele>
        <time>2010-04-10T13:51:16Z</time>
      </trkpt>
      <trkpt lat="45.08519" lon="4.77264">
        <ele>405.95199584961</ele>
        <time>2010-04-10T13:51:23Z</time>
      </trkpt>
      <trkpt lat="45.08518" lon="4.77268">
        <ele>406.12600708008</ele>
        <time>2010-04-10T13:51:24Z</time>
      </trkpt>
      <trkpt lat="45.08524" lon="4.77277">
        <ele>406.19900512695</ele>
        <time>2010-04-10T13:51:29Z</time>
      </trkpt>
      <trkpt lat="45.0853" lon="4.77279">
        <ele>405.84899902344</ele>
        <time>2010-04-10T13:51:33Z</time>
      </trkpt>
      <trkpt lat="45.08535" lon="4.77279">
        <ele>405.98599243164</ele>
        <time>2010-04-10T13:51:37Z</time>
      </trkpt>
      <trkpt lat="45.08536" lon="4.7728">
        <ele>405.48400878906</ele>
        <time>2010-04-10T13:51:41Z</time>
      </trkpt>
      <trkpt lat="45.08536" lon="4.77281">
        <ele>406.5299987793</ele>
        <time>2010-04-10T13:52:08Z</time>
      </trkpt>
      <trkpt lat="45.08533" lon="4.77281">
        <ele>406.25299072266</ele>
        <time>2010-04-10T13:52:10Z</time>
      </trkpt>
      <trkpt lat="45.08526" lon="4.77278">
        <ele>406.74600219727</ele>
        <time>2010-04-10T13:52:16Z</time>
      </trkpt>
      <trkpt lat="45.0852" lon="4.77275">
        <ele>407.23300170898</ele>
        <time>2010-04-10T13:52:20Z</time>
      </trkpt>
      <trkpt lat="45.08517" lon="4.77281">
        <ele>405.07501220703</ele>
        <time>2010-04-10T13:52:23Z</time>
      </trkpt>
      <trkpt lat="45.08522" lon="4.77289">
        <ele>407.06799316406</ele>
        <time>2010-04-10T13:52:26Z</time>
      </trkpt>
      <trkpt lat="45.08532" lon="4.77298">
        <ele>407.25</ele>
        <time>2010-04-10T13:52:30Z</time>
      </trkpt>
      <trkpt lat="45.08533" lon="4.77305">
        <ele>407.76800537109</ele>
        <time>2010-04-10T13:52:34Z</time>
      </trkpt>
      <trkpt lat="45.08533" lon="4.77305">
        <ele>407.35699462891</ele>
        <time>2010-04-10T13:52:36Z</time>
      </trkpt>
      <trkpt lat="45.08533" lon="4.77303">
        <ele>407.78201293945</ele>
        <time>2010-04-10T13:57:37Z</time>
      </trkpt>
      <trkpt lat="45.08533" lon="4.77296">
        <ele>407.57598876953</ele>
        <time>2010-04-10T13:59:13Z</time>
      </trkpt>
      <trkpt lat="45.08532" lon="4.77295">
        <ele>407.33700561523</ele>
        <time>2010-04-10T13:59:14Z</time>
      </trkpt>
      <trkpt lat="45.08521" lon="4.77283">
        <ele>407.09600830078</ele>
        <time>2010-04-10T13:59:22Z</time>
      </trkpt>
      <trkpt lat="45.08519" lon="4.7728">
        <ele>406.9580078125</ele>
        <time>2010-04-10T13:59:23Z</time>
      </trkpt>
      <trkpt lat="45.0852" lon="4.77265">
        <ele>405.82699584961</ele>
        <time>2010-04-10T13:59:27Z</time>
      </trkpt>
      <trkpt lat="45.08527" lon="4.77243">
        <ele>404.90899658203</ele>
        <time>2010-04-10T13:59:32Z</time>
      </trkpt>
      <trkpt lat="45.08522" lon="4.77234">
        <ele>404.15399169922</ele>
        <time>2010-04-10T13:59:37Z</time>
      </trkpt>
      <trkpt lat="45.08516" lon="4.77237">
        <ele>404.71600341797</ele>
        <time>2010-04-10T13:59:39Z</time>
      </trkpt>
      <trkpt lat="45.08498" lon="4.77247">
        <ele>404.73599243164</ele>
        <time>2010-04-10T13:59:44Z</time>
      </trkpt>
      <trkpt lat="45.0849" lon="4.77249">
        <ele>405.05999755859</ele>
        <time>2010-04-10T13:59:46Z</time>
      </trkpt>
      <trkpt lat="45.08481" lon="4.7725">
        <ele>406.00100708008</ele>
        <time>2010-04-10T13:59:48Z</time>
      </trkpt>
      <trkpt lat="45.08459" lon="4.77253">
        <ele>407.37600708008</ele>
        <time>2010-04-10T13:59:53Z</time>
      </trkpt>
      <trkpt lat="45.0843" lon="4.77249">
        <ele>408.64599609375</ele>
        <time>2010-04-10T14:00:00Z</time>
      </trkpt>
      <trkpt lat="45.084" lon="4.77244">
        <ele>408.60800170898</ele>
        <time>2010-04-10T14:00:06Z</time>
      </trkpt>
      <trkpt lat="45.08366" lon="4.77234">
        <ele>408.89801025391</ele>
        <time>2010-04-10T14:00:13Z</time>
      </trkpt>
      <trkpt lat="45.0835" lon="4.7723">
        <ele>409.31100463867</ele>
        <time>2010-04-10T14:00:18Z</time>
      </trkpt>
      <trkpt lat="45.08331" lon="4.77226">
        <ele>409.58099365234</ele>
        <time>2010-04-10T14:00:24Z</time>
      </trkpt>
      <trkpt lat="45.08316" lon="4.77224">
        <ele>408.98199462891</ele>
        <time>2010-04-10T14:00:28Z</time>
      </trkpt>
      <trkpt lat="45.08297" lon="4.77221">
        <ele>408.58898925781</ele>
        <time>2010-04-10T14:00:33Z</time>
      </trkpt>
      <trkpt lat="45.08275" lon="4.77217">
        <ele>408.51000976562</ele>
        <time>2010-04-10T14:00:38Z</time>
      </trkpt>
      <trkpt lat="45.08247" lon="4.77211">
        <ele>408.09899902344</ele>
        <time>2010-04-10T14:00:45Z</time>
      </trkpt>
      <trkpt lat="45.08229" lon="4.77208">
        <ele>408.20001220703</ele>
        <time>2010-04-10T14:00:50Z</time>
      </trkpt>
      <trkpt lat="45.08225" lon="4.77206">
        <ele>408.39700317383</ele>
        <time>2010-04-10T14:00:51Z</time>
      </trkpt>
      <trkpt lat="45.08209" lon="4.7721">
        <ele>408.31799316406</ele>
        <time>2010-04-10T14:00:55Z</time>
      </trkpt>
      <trkpt lat="45.08199" lon="4.77231">
        <ele>407.26400756836</ele>
        <time>2010-04-10T14:00:59Z</time>
      </trkpt>
      <trkpt lat="45.08189" lon="4.77238">
        <ele>406.50601196289</ele>
        <time>2010-04-10T14:01:01Z</time>
      </trkpt>
      <trkpt lat="45.08144" lon="4.77263">
        <ele>403.34899902344</ele>
        <time>2010-04-10T14:01:08Z</time>
      </trkpt>
      <trkpt lat="45.08115" lon="4.77289">
        <ele>399.52700805664</ele>
        <time>2010-04-10T14:01:12Z</time>
      </trkpt>
      <trkpt lat="45.08107" lon="4.77297">
        <ele>399.13900756836</ele>
        <time>2010-04-10T14:01:13Z</time>
      </trkpt>
      <trkpt lat="45.08094" lon="4.77316">
        <ele>397.98199462891</ele>
        <time>2010-04-10T14:01:15Z</time>
      </trkpt>
      <trkpt lat="45.08085" lon="4.77347">
        <ele>397.36401367188</ele>
        <time>2010-04-10T14:01:18Z</time>
      </trkpt>
      <trkpt lat="45.08092" lon="4.77372">
        <ele>398.62399291992</ele>
        <time>2010-04-10T14:01:21Z</time>
      </trkpt>
      <trkpt lat="45.08098" lon="4.77384">
        <ele>399.57699584961</ele>
        <time>2010-04-10T14:01:23Z</time>
      </trkpt>
      <trkpt lat="45.08106" lon="4.77409">
        <ele>399.91900634766</ele>
        <time>2010-04-10T14:01:27Z</time>
      </trkpt>
      <trkpt lat="45.0811" lon="4.77431">
        <ele>398.04098510742</ele>
        <time>2010-04-10T14:01:30Z</time>
      </trkpt>
      <trkpt lat="45.08114" lon="4.7745">
        <ele>397.72399902344</ele>
        <time>2010-04-10T14:01:32Z</time>
      </trkpt>
      <trkpt lat="45.08121" lon="4.77494">
        <ele>393.84201049805</ele>
        <time>2010-04-10T14:01:36Z</time>
      </trkpt>
      <trkpt lat="45.0813" lon="4.77531">
        <ele>390.80899047852</ele>
        <time>2010-04-10T14:01:39Z</time>
      </trkpt>
      <trkpt lat="45.08138" lon="4.77552">
        <ele>389.3450012207</ele>
        <time>2010-04-10T14:01:41Z</time>
      </trkpt>
      <trkpt lat="45.08159" lon="4.77613">
        <ele>383.02099609375</ele>
        <time>2010-04-10T14:01:46Z</time>
      </trkpt>
      <trkpt lat="45.08168" lon="4.77641">
        <ele>382.28698730469</ele>
        <time>2010-04-10T14:01:48Z</time>
      </trkpt>
      <trkpt lat="45.08169" lon="4.7766">
        <ele>383.1969909668</ele>
        <time>2010-04-10T14:01:50Z</time>
      </trkpt>
      <trkpt lat="45.08168" lon="4.7767">
        <ele>381.98300170898</ele>
        <time>2010-04-10T14:01:52Z</time>
      </trkpt>
      <trkpt lat="45.0818" lon="4.77688">
        <ele>381.52600097656</ele>
        <time>2010-04-10T14:01:57Z</time>
      </trkpt>
      <trkpt lat="45.08181" lon="4.77699">
        <ele>380.83499145508</ele>
        <time>2010-04-10T14:01:59Z</time>
      </trkpt>
      <trkpt lat="45.08172" lon="4.77745">
        <ele>378.54000854492</ele>
        <time>2010-04-10T14:02:04Z</time>
      </trkpt>
      <trkpt lat="45.0817" lon="4.77756">
        <ele>379.08898925781</ele>
        <time>2010-04-10T14:02:05Z</time>
      </trkpt>
      <trkpt lat="45.0816" lon="4.77805">
        <ele>375.7619934082</ele>
        <time>2010-04-10T14:02:09Z</time>
      </trkpt>
      <trkpt lat="45.08155" lon="4.77818">
        <ele>374.27398681641</ele>
        <time>2010-04-10T14:02:10Z</time>
      </trkpt>
      <trkpt lat="45.08142" lon="4.77843">
        <ele>373.25</ele>
        <time>2010-04-10T14:02:12Z</time>
      </trkpt>
      <trkpt lat="45.08122" lon="4.77859">
        <ele>372.35598754883</ele>
        <time>2010-04-10T14:02:14Z</time>
      </trkpt>
      <trkpt lat="45.08084" lon="4.77876">
        <ele>367.40200805664</ele>
        <time>2010-04-10T14:02:17Z</time>
      </trkpt>
      <trkpt lat="45.08049" lon="4.77911">
        <ele>362.55200195312</ele>
        <time>2010-04-10T14:02:20Z</time>
      </trkpt>
      <trkpt lat="45.0804" lon="4.77928">
        <ele>361.07299804688</ele>
        <time>2010-04-10T14:02:21Z</time>
      </trkpt>
      <trkpt lat="45.07992" lon="4.77982">
        <ele>357.00100708008</ele>
        <time>2010-04-10T14:02:25Z</time>
      </trkpt>
      <trkpt lat="45.07976" lon="4.77988">
        <ele>357.00100708008</ele>
        <time>2010-04-10T14:02:26Z</time>
      </trkpt>
      <trkpt lat="45.07914" lon="4.78021">
        <ele>352.82501220703</ele>
        <time>2010-04-10T14:02:30Z</time>
      </trkpt>
      <trkpt lat="45.07851" lon="4.78043">
        <ele>348.23001098633</ele>
        <time>2010-04-10T14:02:34Z</time>
      </trkpt>
      <trkpt lat="45.07787" lon="4.78048">
        <ele>345.9460144043</ele>
        <time>2010-04-10T14:02:38Z</time>
      </trkpt>
      <trkpt lat="45.07724" lon="4.78031">
        <ele>340.81500244141</ele>
        <time>2010-04-10T14:02:42Z</time>
      </trkpt>
      <trkpt lat="45.07663" lon="4.78">
        <ele>336.24301147461</ele>
        <time>2010-04-10T14:02:46Z</time>
      </trkpt>
      <trkpt lat="45.07634" lon="4.77981">
        <ele>335.27099609375</ele>
        <time>2010-04-10T14:02:48Z</time>
      </trkpt>
      <trkpt lat="45.07548" lon="4.77916">
        <ele>329.20401000977</ele>
        <time>2010-04-10T14:02:54Z</time>
      </trkpt>
      <trkpt lat="45.07534" lon="4.77905">
        <ele>329.12899780273</ele>
        <time>2010-04-10T14:02:55Z</time>
      </trkpt>
      <trkpt lat="45.07505" lon="4.77885">
        <ele>326.23400878906</ele>
        <time>2010-04-10T14:02:57Z</time>
      </trkpt>
      <trkpt lat="45.07477" lon="4.77859">
        <ele>324.94000244141</ele>
        <time>2010-04-10T14:02:59Z</time>
      </trkpt>
      <trkpt lat="45.07433" lon="4.77837">
        <ele>320.9049987793</ele>
        <time>2010-04-10T14:03:02Z</time>
      </trkpt>
      <trkpt lat="45.07401" lon="4.7785">
        <ele>318.7080078125</ele>
        <time>2010-04-10T14:03:04Z</time>
      </trkpt>
      <trkpt lat="45.07323" lon="4.77874">
        <ele>314.32299804688</ele>
        <time>2010-04-10T14:03:09Z</time>
      </trkpt>
      <trkpt lat="45.07214" lon="4.77884">
        <ele>305.39898681641</ele>
        <time>2010-04-10T14:03:16Z</time>
      </trkpt>
      <trkpt lat="45.07183" lon="4.7789">
        <ele>303.61401367188</ele>
        <time>2010-04-10T14:03:18Z</time>
      </trkpt>
      <trkpt lat="45.07154" lon="4.77904">
        <ele>302.48098754883</ele>
        <time>2010-04-10T14:03:20Z</time>
      </trkpt>
      <trkpt lat="45.07141" lon="4.77915">
        <ele>301.60800170898</ele>
        <time>2010-04-10T14:03:21Z</time>
      </trkpt>
      <trkpt lat="45.07096" lon="4.77928">
        <ele>297.02301025391</ele>
        <time>2010-04-10T14:03:24Z</time>
      </trkpt>
      <trkpt lat="45.07058" lon="4.77952">
        <ele>295.79501342773</ele>
        <time>2010-04-10T14:03:27Z</time>
      </trkpt>
      <trkpt lat="45.07054" lon="4.77992">
        <ele>294.1969909668</ele>
        <time>2010-04-10T14:03:29Z</time>
      </trkpt>
      <trkpt lat="45.07063" lon="4.78027">
        <ele>291.45901489258</ele>
        <time>2010-04-10T14:03:31Z</time>
      </trkpt>
      <trkpt lat="45.0707" lon="4.78043">
        <ele>291.45901489258</ele>
        <time>2010-04-10T14:03:32Z</time>
      </trkpt>
      <trkpt lat="45.07079" lon="4.78058">
        <ele>291.40100097656</ele>
        <time>2010-04-10T14:03:33Z</time>
      </trkpt>
      <trkpt lat="45.07097" lon="4.78087">
        <ele>288.36999511719</ele>
        <time>2010-04-10T14:03:35Z</time>
      </trkpt>
      <trkpt lat="45.07126" lon="4.78152">
        <ele>283.59399414062</ele>
        <time>2010-04-10T14:03:39Z</time>
      </trkpt>
      <trkpt lat="45.07136" lon="4.78163">
        <ele>283.39099121094</ele>
        <time>2010-04-10T14:03:40Z</time>
      </trkpt>
      <trkpt lat="45.07148" lon="4.78173">
        <ele>283.28799438477</ele>
        <time>2010-04-10T14:03:41Z</time>
      </trkpt>
      <trkpt lat="45.07205" lon="4.78226">
        <ele>281.45498657227</ele>
        <time>2010-04-10T14:03:46Z</time>
      </trkpt>
      <trkpt lat="45.07215" lon="4.7824">
        <ele>279.50299072266</ele>
        <time>2010-04-10T14:03:47Z</time>
      </trkpt>
      <trkpt lat="45.07267" lon="4.78307">
        <ele>274.73498535156</ele>
        <time>2010-04-10T14:03:52Z</time>
      </trkpt>
      <trkpt lat="45.07278" lon="4.7832">
        <ele>274.28399658203</ele>
        <time>2010-04-10T14:03:53Z</time>
      </trkpt>
      <trkpt lat="45.07298" lon="4.78371">
        <ele>269.72799682617</ele>
        <time>2010-04-10T14:03:56Z</time>
      </trkpt>
      <trkpt lat="45.073" lon="4.78389">
        <ele>269.68701171875</ele>
        <time>2010-04-10T14:03:57Z</time>
      </trkpt>
      <trkpt lat="45.07293" lon="4.78416">
        <ele>269.66799926758</ele>
        <time>2010-04-10T14:03:59Z</time>
      </trkpt>
      <trkpt lat="45.0727" lon="4.7842">
        <ele>269.15899658203</ele>
        <time>2010-04-10T14:04:01Z</time>
      </trkpt>
      <trkpt lat="45.0725" lon="4.78404">
        <ele>268.02801513672</ele>
        <time>2010-04-10T14:04:03Z</time>
      </trkpt>
      <trkpt lat="45.07215" lon="4.78384">
        <ele>265.42599487305</ele>
        <time>2010-04-10T14:04:06Z</time>
      </trkpt>
      <trkpt lat="45.0719" lon="4.78372">
        <ele>262.43399047852</ele>
        <time>2010-04-10T14:04:08Z</time>
      </trkpt>
      <trkpt lat="45.07134" lon="4.78362">
        <ele>256.88500976562</ele>
        <time>2010-04-10T14:04:12Z</time>
      </trkpt>
      <trkpt lat="45.0712" lon="4.78364">
        <ele>257.61700439453</ele>
        <time>2010-04-10T14:04:13Z</time>
      </trkpt>
      <trkpt lat="45.07084" lon="4.78394">
        <ele>255.0950012207</ele>
        <time>2010-04-10T14:04:16Z</time>
      </trkpt>
      <trkpt lat="45.0707" lon="4.78431">
        <ele>253</ele>
        <time>2010-04-10T14:04:18Z</time>
      </trkpt>
      <trkpt lat="45.07067" lon="4.78451">
        <ele>253</ele>
        <time>2010-04-10T14:04:19Z</time>
      </trkpt>
      <trkpt lat="45.0706" lon="4.7851">
        <ele>247.44799804688</ele>
        <time>2010-04-10T14:04:22Z</time>
      </trkpt>
      <trkpt lat="45.07052" lon="4.78525">
        <ele>247.18699645996</ele>
        <time>2010-04-10T14:04:23Z</time>
      </trkpt>
      <trkpt lat="45.07029" lon="4.78547">
        <ele>245.28999328613</ele>
        <time>2010-04-10T14:04:25Z</time>
      </trkpt>
      <trkpt lat="45.06992" lon="4.786">
        <ele>241.94599914551</ele>
        <time>2010-04-10T14:04:29Z</time>
      </trkpt>
      <trkpt lat="45.06987" lon="4.78637">
        <ele>240.02000427246</ele>
        <time>2010-04-10T14:04:31Z</time>
      </trkpt>
      <trkpt lat="45.06994" lon="4.78675">
        <ele>238.48500061035</ele>
        <time>2010-04-10T14:04:33Z</time>
      </trkpt>
      <trkpt lat="45.07002" lon="4.78691">
        <ele>238.09300231934</ele>
        <time>2010-04-10T14:04:34Z</time>
      </trkpt>
      <trkpt lat="45.07018" lon="4.78763">
        <ele>234.52400207519</ele>
        <time>2010-04-10T14:04:38Z</time>
      </trkpt>
      <trkpt lat="45.07011" lon="4.78821">
        <ele>230.93699645996</ele>
        <time>2010-04-10T14:04:41Z</time>
      </trkpt>
      <trkpt lat="45.07019" lon="4.78858">
        <ele>229.52299499512</ele>
        <time>2010-04-10T14:04:43Z</time>
      </trkpt>
      <trkpt lat="45.07033" lon="4.78892">
        <ele>228.82299804688</ele>
        <time>2010-04-10T14:04:45Z</time>
      </trkpt>
      <trkpt lat="45.07033" lon="4.78925">
        <ele>228.04499816894</ele>
        <time>2010-04-10T14:04:47Z</time>
      </trkpt>
      <trkpt lat="45.07013" lon="4.78939">
        <ele>227.02600097656</ele>
        <time>2010-04-10T14:04:49Z</time>
      </trkpt>
      <trkpt lat="45.06982" lon="4.78963">
        <ele>224.2380065918</ele>
        <time>2010-04-10T14:04:52Z</time>
      </trkpt>
      <trkpt lat="45.06974" lon="4.78976">
        <ele>224.10200500488</ele>
        <time>2010-04-10T14:04:53Z</time>
      </trkpt>
      <trkpt lat="45.06961" lon="4.79026">
        <ele>221.18699645996</ele>
        <time>2010-04-10T14:04:56Z</time>
      </trkpt>
      <trkpt lat="45.0697" lon="4.79061">
        <ele>218.19700622559</ele>
        <time>2010-04-10T14:04:58Z</time>
      </trkpt>
      <trkpt lat="45.06989" lon="4.79088">
        <ele>216.79600524902</ele>
        <time>2010-04-10T14:05:00Z</time>
      </trkpt>
      <trkpt lat="45.07017" lon="4.7911">
        <ele>218.57800292969</ele>
        <time>2010-04-10T14:05:03Z</time>
      </trkpt>
      <trkpt lat="45.07016" lon="4.79116">
        <ele>218.41400146484</ele>
        <time>2010-04-10T14:05:04Z</time>
      </trkpt>
      <trkpt lat="45.07004" lon="4.79118">
        <ele>217.20899963379</ele>
        <time>2010-04-10T14:05:06Z</time>
      </trkpt>
      <trkpt lat="45.06998" lon="4.79113">
        <ele>216.58299255371</ele>
        <time>2010-04-10T14:05:07Z</time>
      </trkpt>
      <trkpt lat="45.06967" lon="4.79085">
        <ele>212.8390045166</ele>
        <time>2010-04-10T14:05:11Z</time>
      </trkpt>
      <trkpt lat="45.06944" lon="4.79054">
        <ele>210.23199462891</ele>
        <time>2010-04-10T14:05:14Z</time>
      </trkpt>
      <trkpt lat="45.06938" lon="4.79023">
        <ele>207.94000244141</ele>
        <time>2010-04-10T14:05:16Z</time>
      </trkpt>
      <trkpt lat="45.06947" lon="4.78939">
        <ele>202.82200622559</ele>
        <time>2010-04-10T14:05:21Z</time>
      </trkpt>
      <trkpt lat="45.06956" lon="4.78926">
        <ele>203.30499267578</ele>
        <time>2010-04-10T14:05:22Z</time>
      </trkpt>
      <trkpt lat="45.06974" lon="4.78864">
        <ele>198.17100524902</ele>
        <time>2010-04-10T14:05:26Z</time>
      </trkpt>
      <trkpt lat="45.06967" lon="4.78848">
        <ele>198.00700378418</ele>
        <time>2010-04-10T14:05:27Z</time>
      </trkpt>
      <trkpt lat="45.06956" lon="4.78796">
        <ele>193.76899719238</ele>
        <time>2010-04-10T14:05:30Z</time>
      </trkpt>
      <trkpt lat="45.06952" lon="4.7876">
        <ele>192.44299316406</ele>
        <time>2010-04-10T14:05:32Z</time>
      </trkpt>
      <trkpt lat="45.06944" lon="4.78745">
        <ele>191.05900573731</ele>
        <time>2010-04-10T14:05:33Z</time>
      </trkpt>
      <trkpt lat="45.06911" lon="4.78667">
        <ele>186.58700561523</ele>
        <time>2010-04-10T14:05:38Z</time>
      </trkpt>
      <trkpt lat="45.06886" lon="4.78515">
        <ele>178.49000549316</ele>
        <time>2010-04-10T14:05:46Z</time>
      </trkpt>
      <trkpt lat="45.06879" lon="4.78477">
        <ele>176.54100036621</ele>
        <time>2010-04-10T14:05:48Z</time>
      </trkpt>
      <trkpt lat="45.06892" lon="4.78422">
        <ele>173.72099304199</ele>
        <time>2010-04-10T14:05:51Z</time>
      </trkpt>
      <trkpt lat="45.06912" lon="4.78397">
        <ele>172.84100341797</ele>
        <time>2010-04-10T14:05:53Z</time>
      </trkpt>
      <trkpt lat="45.06913" lon="4.78366">
        <ele>170.22500610352</ele>
        <time>2010-04-10T14:05:55Z</time>
      </trkpt>
      <trkpt lat="45.06893" lon="4.78348">
        <ele>167.26899719238</ele>
        <time>2010-04-10T14:05:57Z</time>
      </trkpt>
      <trkpt lat="45.06881" lon="4.78346">
        <ele>166.38400268555</ele>
        <time>2010-04-10T14:05:58Z</time>
      </trkpt>
      <trkpt lat="45.06831" lon="4.78338">
        <ele>163.78799438477</ele>
        <time>2010-04-10T14:06:02Z</time>
      </trkpt>
      <trkpt lat="45.06784" lon="4.78307">
        <ele>160.19000244141</ele>
        <time>2010-04-10T14:06:06Z</time>
      </trkpt>
      <trkpt lat="45.06757" lon="4.78263">
        <ele>157.8630065918</ele>
        <time>2010-04-10T14:06:09Z</time>
      </trkpt>
      <trkpt lat="45.06752" lon="4.78244">
        <ele>155.88800048828</ele>
        <time>2010-04-10T14:06:10Z</time>
      </trkpt>
      <trkpt lat="45.06734" lon="4.78143">
        <ele>150.58999633789</ele>
        <time>2010-04-10T14:06:15Z</time>
      </trkpt>
      <trkpt lat="45.06713" lon="4.78096">
        <ele>149.30000305176</ele>
        <time>2010-04-10T14:06:18Z</time>
      </trkpt>
      <trkpt lat="45.06692" lon="4.78095">
        <ele>150.6549987793</ele>
        <time>2010-04-10T14:06:20Z</time>
      </trkpt>
      <trkpt lat="45.06681" lon="4.78099">
        <ele>151.08000183106</ele>
        <time>2010-04-10T14:06:21Z</time>
      </trkpt>
      <trkpt lat="45.06636" lon="4.78121">
        <ele>150.34700012207</ele>
        <time>2010-04-10T14:06:26Z</time>
      </trkpt>
      <trkpt lat="45.06613" lon="4.78142">
        <ele>148.01600646973</ele>
        <time>2010-04-10T14:06:29Z</time>
      </trkpt>
      <trkpt lat="45.06603" lon="4.78151">
        <ele>149.12600708008</ele>
        <time>2010-04-10T14:06:31Z</time>
      </trkpt>
      <trkpt lat="45.06598" lon="4.78158">
        <ele>149.66000366211</ele>
        <time>2010-04-10T14:06:33Z</time>
      </trkpt>
      <trkpt lat="45.06596" lon="4.78164">
        <ele>149.58099365234</ele>
        <time>2010-04-10T14:06:34Z</time>
      </trkpt>
      <trkpt lat="45.06603" lon="4.78178">
        <ele>147.70899963379</ele>
        <time>2010-04-10T14:06:36Z</time>
      </trkpt>
      <trkpt lat="45.06607" lon="4.78185">
        <ele>147.59700012207</ele>
        <time>2010-04-10T14:06:37Z</time>
      </trkpt>
      <trkpt lat="45.06622" lon="4.78224">
        <ele>146.26699829102</ele>
        <time>2010-04-10T14:06:41Z</time>
      </trkpt>
      <trkpt lat="45.06625" lon="4.78237">
        <ele>146.81599426269</ele>
        <time>2010-04-10T14:06:42Z</time>
      </trkpt>
      <trkpt lat="45.06628" lon="4.7831">
        <ele>145.40400695801</ele>
        <time>2010-04-10T14:06:47Z</time>
      </trkpt>
      <trkpt lat="45.06627" lon="4.78343">
        <ele>143.04899597168</ele>
        <time>2010-04-10T14:06:49Z</time>
      </trkpt>
      <trkpt lat="45.06625" lon="4.78377">
        <ele>141.76800537109</ele>
        <time>2010-04-10T14:06:51Z</time>
      </trkpt>
      <trkpt lat="45.06631" lon="4.78445">
        <ele>142.24800109863</ele>
        <time>2010-04-10T14:06:55Z</time>
      </trkpt>
      <trkpt lat="45.06636" lon="4.78479">
        <ele>140.18499755859</ele>
        <time>2010-04-10T14:06:57Z</time>
      </trkpt>
      <trkpt lat="45.0663" lon="4.78543">
        <ele>139.87699890137</ele>
        <time>2010-04-10T14:07:01Z</time>
      </trkpt>
      <trkpt lat="45.06598" lon="4.78653">
        <ele>140.33799743652</ele>
        <time>2010-04-10T14:07:09Z</time>
      </trkpt>
      <trkpt lat="45.06588" lon="4.78677">
        <ele>141.10200500488</ele>
        <time>2010-04-10T14:07:11Z</time>
      </trkpt>
      <trkpt lat="45.06575" lon="4.78699">
        <ele>139.86700439453</ele>
        <time>2010-04-10T14:07:13Z</time>
      </trkpt>
      <trkpt lat="45.06527" lon="4.78791">
        <ele>137.95700073242</ele>
        <time>2010-04-10T14:07:21Z</time>
      </trkpt>
      <trkpt lat="45.06511" lon="4.78842">
        <ele>137.46499633789</ele>
        <time>2010-04-10T14:07:25Z</time>
      </trkpt>
      <trkpt lat="45.06506" lon="4.78868">
        <ele>136.36099243164</ele>
        <time>2010-04-10T14:07:27Z</time>
      </trkpt>
      <trkpt lat="45.06487" lon="4.78964">
        <ele>136.26899719238</ele>
        <time>2010-04-10T14:07:35Z</time>
      </trkpt>
      <trkpt lat="45.06465" lon="4.79063">
        <ele>135.81799316406</ele>
        <time>2010-04-10T14:07:44Z</time>
      </trkpt>
      <trkpt lat="45.06439" lon="4.7913">
        <ele>133.99800109863</ele>
        <time>2010-04-10T14:07:51Z</time>
      </trkpt>
      <trkpt lat="45.06433" lon="4.79169">
        <ele>136.02699279785</ele>
        <time>2010-04-10T14:07:55Z</time>
      </trkpt>
      <trkpt lat="45.06436" lon="4.79218">
        <ele>135.63299560547</ele>
        <time>2010-04-10T14:08:00Z</time>
      </trkpt>
      <trkpt lat="45.06441" lon="4.79236">
        <ele>135.93499755859</ele>
        <time>2010-04-10T14:08:02Z</time>
      </trkpt>
      <trkpt lat="45.06449" lon="4.79262">
        <ele>136.29299926758</ele>
        <time>2010-04-10T14:08:05Z</time>
      </trkpt>
      <trkpt lat="45.06461" lon="4.79287">
        <ele>134.68200683594</ele>
        <time>2010-04-10T14:08:08Z</time>
      </trkpt>
      <trkpt lat="45.06493" lon="4.79329">
        <ele>134.79100036621</ele>
        <time>2010-04-10T14:08:14Z</time>
      </trkpt>
      <trkpt lat="45.06528" lon="4.79371">
        <ele>134.17300415039</ele>
        <time>2010-04-10T14:08:20Z</time>
      </trkpt>
      <trkpt lat="45.06549" lon="4.79417">
        <ele>133.95199584961</ele>
        <time>2010-04-10T14:08:25Z</time>
      </trkpt>
      <trkpt lat="45.06582" lon="4.79517">
        <ele>132.86500549316</ele>
        <time>2010-04-10T14:08:35Z</time>
      </trkpt>
      <trkpt lat="45.06612" lon="4.79606">
        <ele>133.66499328613</ele>
        <time>2010-04-10T14:08:44Z</time>
      </trkpt>
      <trkpt lat="45.06627" lon="4.79642">
        <ele>132.62199401856</ele>
        <time>2010-04-10T14:08:48Z</time>
      </trkpt>
      <trkpt lat="45.06663" lon="4.7972">
        <ele>130.18200683594</ele>
        <time>2010-04-10T14:08:56Z</time>
      </trkpt>
      <trkpt lat="45.0668" lon="4.79763">
        <ele>129.10499572754</ele>
        <time>2010-04-10T14:09:00Z</time>
      </trkpt>
      <trkpt lat="45.06689" lon="4.79798">
        <ele>127.92800140381</ele>
        <time>2010-04-10T14:09:03Z</time>
      </trkpt>
      <trkpt lat="45.06694" lon="4.79869">
        <ele>127.56999969482</ele>
        <time>2010-04-10T14:09:09Z</time>
      </trkpt>
      <trkpt lat="45.06693" lon="4.7998">
        <ele>128.0059967041</ele>
        <time>2010-04-10T14:09:19Z</time>
      </trkpt>
      <trkpt lat="45.06691" lon="4.80105">
        <ele>127.91799926758</ele>
        <time>2010-04-10T14:09:31Z</time>
      </trkpt>
      <trkpt lat="45.06688" lon="4.80212">
        <ele>127.65699768066</ele>
        <time>2010-04-10T14:09:41Z</time>
      </trkpt>
      <trkpt lat="45.06686" lon="4.80308">
        <ele>128.68400573731</ele>
        <time>2010-04-10T14:09:50Z</time>
      </trkpt>
      <trkpt lat="45.06687" lon="4.80379">
        <ele>128.99600219727</ele>
        <time>2010-04-10T14:09:57Z</time>
      </trkpt>
      <trkpt lat="45.06688" lon="4.80459">
        <ele>128.01499938965</ele>
        <time>2010-04-10T14:10:05Z</time>
      </trkpt>
      <trkpt lat="45.06689" lon="4.80538">
        <ele>128.78399658203</ele>
        <time>2010-04-10T14:10:13Z</time>
      </trkpt>
      <trkpt lat="45.06689" lon="4.80625">
        <ele>129.52000427246</ele>
        <time>2010-04-10T14:10:22Z</time>
      </trkpt>
      <trkpt lat="45.06691" lon="4.80709">
        <ele>130.00300598144</ele>
        <time>2010-04-10T14:10:31Z</time>
      </trkpt>
      <trkpt lat="45.06698" lon="4.8079">
        <ele>131.53700256348</ele>
        <time>2010-04-10T14:10:40Z</time>
      </trkpt>
      <trkpt lat="45.067" lon="4.80817">
        <ele>132.14799499512</ele>
        <time>2010-04-10T14:10:43Z</time>
      </trkpt>
      <trkpt lat="45.06696" lon="4.80859">
        <ele>131.43800354004</ele>
        <time>2010-04-10T14:10:48Z</time>
      </trkpt>
      <trkpt lat="45.06706" lon="4.80879">
        <ele>131.59700012207</ele>
        <time>2010-04-10T14:10:51Z</time>
      </trkpt>
      <trkpt lat="45.06712" lon="4.80902">
        <ele>131.99899291992</ele>
        <time>2010-04-10T14:10:54Z</time>
      </trkpt>
      <trkpt lat="45.06714" lon="4.80918">
        <ele>132.78500366211</ele>
        <time>2010-04-10T14:10:56Z</time>
      </trkpt>
      <trkpt lat="45.06721" lon="4.80984">
        <ele>133.21499633789</ele>
        <time>2010-04-10T14:11:04Z</time>
      </trkpt>
      <trkpt lat="45.06725" lon="4.81024">
        <ele>134.20300292969</ele>
        <time>2010-04-10T14:11:09Z</time>
      </trkpt>
      <trkpt lat="45.06734" lon="4.81087">
        <ele>134.27799987793</ele>
        <time>2010-04-10T14:11:17Z</time>
      </trkpt>
      <trkpt lat="45.06759" lon="4.81158">
        <ele>132.81700134277</ele>
        <time>2010-04-10T14:11:26Z</time>
      </trkpt>
      <trkpt lat="45.06775" lon="4.81199">
        <ele>132.92199707031</ele>
        <time>2010-04-10T14:11:31Z</time>
      </trkpt>
      <trkpt lat="45.06787" lon="4.81241">
        <ele>132.52600097656</ele>
        <time>2010-04-10T14:11:36Z</time>
      </trkpt>
      <trkpt lat="45.0681" lon="4.81292">
        <ele>131.40400695801</ele>
        <time>2010-04-10T14:11:42Z</time>
      </trkpt>
      <trkpt lat="45.06814" lon="4.813">
        <ele>130.77600097656</ele>
        <time>2010-04-10T14:11:43Z</time>
      </trkpt>
      <trkpt lat="45.06844" lon="4.81372">
        <ele>130.81399536133</ele>
        <time>2010-04-10T14:11:51Z</time>
      </trkpt>
      <trkpt lat="45.06869" lon="4.8144">
        <ele>129.74800109863</ele>
        <time>2010-04-10T14:11:58Z</time>
      </trkpt>
      <trkpt lat="45.06899" lon="4.81546">
        <ele>128.80799865723</ele>
        <time>2010-04-10T14:12:08Z</time>
      </trkpt>
      <trkpt lat="45.06921" lon="4.81617">
        <ele>128.60200500488</ele>
        <time>2010-04-10T14:12:15Z</time>
      </trkpt>
      <trkpt lat="45.06946" lon="4.81708">
        <ele>128.66600036621</ele>
        <time>2010-04-10T14:12:24Z</time>
      </trkpt>
      <trkpt lat="45.06977" lon="4.81814">
        <ele>128.30200195312</ele>
        <time>2010-04-10T14:12:35Z</time>
      </trkpt>
      <trkpt lat="45.06994" lon="4.81872">
        <ele>127.61499786377</ele>
        <time>2010-04-10T14:12:41Z</time>
      </trkpt>
      <trkpt lat="45.06997" lon="4.81882">
        <ele>127.24199676514</ele>
        <time>2010-04-10T14:12:42Z</time>
      </trkpt>
      <trkpt lat="45.07027" lon="4.81948">
        <ele>125.70099639893</ele>
        <time>2010-04-10T14:12:49Z</time>
      </trkpt>
      <trkpt lat="45.07061" lon="4.81995">
        <ele>125.29000091553</ele>
        <time>2010-04-10T14:12:55Z</time>
      </trkpt>
      <trkpt lat="45.07087" lon="4.82025">
        <ele>123.92900085449</ele>
        <time>2010-04-10T14:12:59Z</time>
      </trkpt>
      <trkpt lat="45.07123" lon="4.82064">
        <ele>122.94699859619</ele>
        <time>2010-04-10T14:13:05Z</time>
      </trkpt>
      <trkpt lat="45.07164" lon="4.82108">
        <ele>123.60199737549</ele>
        <time>2010-04-10T14:13:12Z</time>
      </trkpt>
      <trkpt lat="45.07204" lon="4.82143">
        <ele>124.32099914551</ele>
        <time>2010-04-10T14:13:19Z</time>
      </trkpt>
      <trkpt lat="45.07226" lon="4.82174">
        <ele>124.58599853516</ele>
        <time>2010-04-10T14:13:23Z</time>
      </trkpt>
      <trkpt lat="45.07233" lon="4.82193">
        <ele>124.72100067139</ele>
        <time>2010-04-10T14:13:26Z</time>
      </trkpt>
      <trkpt lat="45.07234" lon="4.82206">
        <ele>125.05699920654</ele>
        <time>2010-04-10T14:13:28Z</time>
      </trkpt>
      <trkpt lat="45.0723" lon="4.82242">
        <ele>125.27200317383</ele>
        <time>2010-04-10T14:13:32Z</time>
      </trkpt>
      <trkpt lat="45.07226" lon="4.82253">
        <ele>124.81099700928</ele>
        <time>2010-04-10T14:13:33Z</time>
      </trkpt>
      <trkpt lat="45.07195" lon="4.8235">
        <ele>122.43699645996</ele>
        <time>2010-04-10T14:13:41Z</time>
      </trkpt>
      <trkpt lat="45.07178" lon="4.82411">
        <ele>121.58499908447</ele>
        <time>2010-04-10T14:13:46Z</time>
      </trkpt>
      <trkpt lat="45.07148" lon="4.82504">
        <ele>121.03099822998</ele>
        <time>2010-04-10T14:13:53Z</time>
      </trkpt>
      <trkpt lat="45.07112" lon="4.82607">
        <ele>121.80100250244</ele>
        <time>2010-04-10T14:14:01Z</time>
      </trkpt>
      <trkpt lat="45.07092" lon="4.82672">
        <ele>121.78900146484</ele>
        <time>2010-04-10T14:14:06Z</time>
      </trkpt>
      <trkpt lat="45.07072" lon="4.82732">
        <ele>122.66100311279</ele>
        <time>2010-04-10T14:14:11Z</time>
      </trkpt>
      <trkpt lat="45.07067" lon="4.82744">
        <ele>122.52400207519</ele>
        <time>2010-04-10T14:14:12Z</time>
      </trkpt>
      <trkpt lat="45.07032" lon="4.82796">
        <ele>122.9820022583</ele>
        <time>2010-04-10T14:14:18Z</time>
      </trkpt>
      <trkpt lat="45.07016" lon="4.82826">
        <ele>123.22100067139</ele>
        <time>2010-04-10T14:14:22Z</time>
      </trkpt>
      <trkpt lat="45.07006" lon="4.82839">
        <ele>123.30500030518</ele>
        <time>2010-04-10T14:14:24Z</time>
      </trkpt>
      <trkpt lat="45.06997" lon="4.82852">
        <ele>123.12899780273</ele>
        <time>2010-04-10T14:14:26Z</time>
      </trkpt>
      <trkpt lat="45.06977" lon="4.82879">
        <ele>123.27400207519</ele>
        <time>2010-04-10T14:14:31Z</time>
      </trkpt>
      <trkpt lat="45.06948" lon="4.82914">
        <ele>123.40699768066</ele>
        <time>2010-04-10T14:14:37Z</time>
      </trkpt>
      <trkpt lat="45.06933" lon="4.82934">
        <ele>122.86399841309</ele>
        <time>2010-04-10T14:14:41Z</time>
      </trkpt>
      <trkpt lat="45.06903" lon="4.82977">
        <ele>123.10099792481</ele>
        <time>2010-04-10T14:14:47Z</time>
      </trkpt>
      <trkpt lat="45.06897" lon="4.82989">
        <ele>123.72200012207</ele>
        <time>2010-04-10T14:14:49Z</time>
      </trkpt>
      <trkpt lat="45.06895" lon="4.82994">
        <ele>123.36699676514</ele>
        <time>2010-04-10T14:14:50Z</time>
      </trkpt>
      <trkpt lat="45.06889" lon="4.83012">
        <ele>123.55699920654</ele>
        <time>2010-04-10T14:14:53Z</time>
      </trkpt>
      <trkpt lat="45.06881" lon="4.83043">
        <ele>123.27100372315</ele>
        <time>2010-04-10T14:14:57Z</time>
      </trkpt>
      <trkpt lat="45.06875" lon="4.83099">
        <ele>123.34200286865</ele>
        <time>2010-04-10T14:15:03Z</time>
      </trkpt>
      <trkpt lat="45.06881" lon="4.83183">
        <ele>122.4700012207</ele>
        <time>2010-04-10T14:15:10Z</time>
      </trkpt>
      <trkpt lat="45.06881" lon="4.83219">
        <ele>124.29399871826</ele>
        <time>2010-04-10T14:15:13Z</time>
      </trkpt>
      <trkpt lat="45.06879" lon="4.83244">
        <ele>124.54699707031</ele>
        <time>2010-04-10T14:15:15Z</time>
      </trkpt>
      <trkpt lat="45.06858" lon="4.83317">
        <ele>124.2679977417</ele>
        <time>2010-04-10T14:15:21Z</time>
      </trkpt>
      <trkpt lat="45.06852" lon="4.83328">
        <ele>123.8690032959</ele>
        <time>2010-04-10T14:15:22Z</time>
      </trkpt>
      <trkpt lat="45.06837" lon="4.83357">
        <ele>124.32399749756</ele>
        <time>2010-04-10T14:15:25Z</time>
      </trkpt>
      <trkpt lat="45.06803" lon="4.83412">
        <ele>125.15000152588</ele>
        <time>2010-04-10T14:15:32Z</time>
      </trkpt>
      <trkpt lat="45.06774" lon="4.83464">
        <ele>124.93000030518</ele>
        <time>2010-04-10T14:15:38Z</time>
      </trkpt>
      <trkpt lat="45.0677" lon="4.83474">
        <ele>124.81300354004</ele>
        <time>2010-04-10T14:15:39Z</time>
      </trkpt>
      <trkpt lat="45.06742" lon="4.83537">
        <ele>125.23100280762</ele>
        <time>2010-04-10T14:15:45Z</time>
      </trkpt>
      <trkpt lat="45.06693" lon="4.83647">
        <ele>126.58200073242</ele>
        <time>2010-04-10T14:15:55Z</time>
      </trkpt>
      <trkpt lat="45.06646" lon="4.83755">
        <ele>125.86499786377</ele>
        <time>2010-04-10T14:16:05Z</time>
      </trkpt>
      <trkpt lat="45.06607" lon="4.83841">
        <ele>125.4940032959</ele>
        <time>2010-04-10T14:16:13Z</time>
      </trkpt>
      <trkpt lat="45.06574" lon="4.83924">
        <ele>125.47200012207</ele>
        <time>2010-04-10T14:16:21Z</time>
      </trkpt>
      <trkpt lat="45.06565" lon="4.83942">
        <ele>125.02100372315</ele>
        <time>2010-04-10T14:16:23Z</time>
      </trkpt>
      <trkpt lat="45.06551" lon="4.83958">
        <ele>126.63800048828</ele>
        <time>2010-04-10T14:16:26Z</time>
      </trkpt>
      <trkpt lat="45.06546" lon="4.83967">
        <ele>126.48999786377</ele>
        <time>2010-04-10T14:16:28Z</time>
      </trkpt>
      <trkpt lat="45.06534" lon="4.83987">
        <ele>126.04399871826</ele>
        <time>2010-04-10T14:16:32Z</time>
      </trkpt>
      <trkpt lat="45.06531" lon="4.84009">
        <ele>125.34100341797</ele>
        <time>2010-04-10T14:16:35Z</time>
      </trkpt>
      <trkpt lat="45.0654" lon="4.84019">
        <ele>125.6129989624</ele>
        <time>2010-04-10T14:16:37Z</time>
      </trkpt>
      <trkpt lat="45.06557" lon="4.84017">
        <ele>125.37999725342</ele>
        <time>2010-04-10T14:16:40Z</time>
      </trkpt>
      <trkpt lat="45.0658" lon="4.84023">
        <ele>125.27400207519</ele>
        <time>2010-04-10T14:16:43Z</time>
      </trkpt>
      <trkpt lat="45.06601" lon="4.84036">
        <ele>126.53099822998</ele>
        <time>2010-04-10T14:16:46Z</time>
      </trkpt>
      <trkpt lat="45.0665" lon="4.84065">
        <ele>128.3869934082</ele>
        <time>2010-04-10T14:16:53Z</time>
      </trkpt>
      <trkpt lat="45.06731" lon="4.84115">
        <ele>126.89499664307</ele>
        <time>2010-04-10T14:17:05Z</time>
      </trkpt>
      <trkpt lat="45.06791" lon="4.84151">
        <ele>126.11000061035</ele>
        <time>2010-04-10T14:17:13Z</time>
      </trkpt>
      <trkpt lat="45.06831" lon="4.84175">
        <ele>124.60800170898</ele>
        <time>2010-04-10T14:17:18Z</time>
      </trkpt>
      <trkpt lat="45.06887" lon="4.84212">
        <ele>122.73500061035</ele>
        <time>2010-04-10T14:17:25Z</time>
      </trkpt>
      <trkpt lat="45.069" lon="4.84242">
        <ele>122.1129989624</ele>
        <time>2010-04-10T14:17:28Z</time>
      </trkpt>
      <trkpt lat="45.06897" lon="4.8426">
        <ele>123.03199768066</ele>
        <time>2010-04-10T14:17:30Z</time>
      </trkpt>
      <trkpt lat="45.06897" lon="4.84262">
        <ele>123.03199768066</ele>
        <time>2010-04-10T14:17:31Z</time>
      </trkpt>
      <trkpt lat="45.06895" lon="4.84265">
        <ele>123.11599731445</ele>
        <time>2010-04-10T14:17:32Z</time>
      </trkpt>
      <trkpt lat="45.0689" lon="4.8428">
        <ele>123.10800170898</ele>
        <time>2010-04-10T14:17:36Z</time>
      </trkpt>
      <trkpt lat="45.06885" lon="4.84295">
        <ele>122.99500274658</ele>
        <time>2010-04-10T14:17:38Z</time>
      </trkpt>
      <trkpt lat="45.06883" lon="4.84303">
        <ele>123.27700042725</ele>
        <time>2010-04-10T14:17:39Z</time>
      </trkpt>
      <trkpt lat="45.06876" lon="4.84334">
        <ele>122.69000244141</ele>
        <time>2010-04-10T14:17:43Z</time>
      </trkpt>
      <trkpt lat="45.06881" lon="4.84356">
        <ele>121.79499816894</ele>
        <time>2010-04-10T14:17:47Z</time>
      </trkpt>
      <trkpt lat="45.06886" lon="4.84356">
        <ele>122.38899993897</ele>
        <time>2010-04-10T14:17:48Z</time>
      </trkpt>
      <trkpt lat="45.06926" lon="4.84352">
        <ele>123.31700134277</ele>
        <time>2010-04-10T14:17:55Z</time>
      </trkpt>
      <trkpt lat="45.06976" lon="4.84347">
        <ele>122.422996521</ele>
        <time>2010-04-10T14:18:03Z</time>
      </trkpt>
      <trkpt lat="45.07016" lon="4.84344">
        <ele>123.83499908447</ele>
        <time>2010-04-10T14:18:10Z</time>
      </trkpt>
      <trkpt lat="45.07023" lon="4.84343">
        <ele>123.85099792481</ele>
        <time>2010-04-10T14:18:12Z</time>
      </trkpt>
      <trkpt lat="45.07038" lon="4.84359">
        <ele>122.7919998169</ele>
        <time>2010-04-10T14:18:16Z</time>
      </trkpt>
      <trkpt lat="45.07038" lon="4.84376">
        <ele>122.92099761963</ele>
        <time>2010-04-10T14:18:18Z</time>
      </trkpt>
      <trkpt lat="45.07031" lon="4.84464">
        <ele>123.17099761963</ele>
        <time>2010-04-10T14:18:27Z</time>
      </trkpt>
      <trkpt lat="45.07019" lon="4.84579">
        <ele>122.67099761963</ele>
        <time>2010-04-10T14:18:38Z</time>
      </trkpt>
      <trkpt lat="45.07019" lon="4.84599">
        <ele>123.54599761963</ele>
        <time>2010-04-10T14:18:40Z</time>
      </trkpt>
      <trkpt lat="45.07034" lon="4.8467">
        <ele>123.76300048828</ele>
        <time>2010-04-10T14:18:47Z</time>
      </trkpt>
      <trkpt lat="45.07042" lon="4.8471">
        <ele>124.30899810791</ele>
        <time>2010-04-10T14:18:51Z</time>
      </trkpt>
      <trkpt lat="45.07048" lon="4.84772">
        <ele>124.38400268555</ele>
        <time>2010-04-10T14:18:57Z</time>
      </trkpt>
      <trkpt lat="45.07055" lon="4.84826">
        <ele>121.99500274658</ele>
        <time>2010-04-10T14:19:02Z</time>
      </trkpt>
      <trkpt lat="45.07065" lon="4.84875">
        <ele>119.84300231934</ele>
        <time>2010-04-10T14:19:06Z</time>
      </trkpt>
      <trkpt lat="45.07079" lon="4.84925">
        <ele>120.5299987793</ele>
        <time>2010-04-10T14:19:10Z</time>
      </trkpt>
      <trkpt lat="45.07089" lon="4.84973">
        <ele>120.6549987793</ele>
        <time>2010-04-10T14:19:14Z</time>
      </trkpt>
      <trkpt lat="45.07086" lon="4.84996">
        <ele>122.47100067139</ele>
        <time>2010-04-10T14:19:16Z</time>
      </trkpt>
      <trkpt lat="45.0708" lon="4.85035">
        <ele>124.5419998169</ele>
        <time>2010-04-10T14:19:20Z</time>
      </trkpt>
      <trkpt lat="45.07078" lon="4.85086">
        <ele>123.85299682617</ele>
        <time>2010-04-10T14:19:25Z</time>
      </trkpt>
      <trkpt lat="45.07085" lon="4.8517">
        <ele>124.08499908447</ele>
        <time>2010-04-10T14:19:33Z</time>
      </trkpt>
      <trkpt lat="45.07091" lon="4.85253">
        <ele>123.84400177002</ele>
        <time>2010-04-10T14:19:41Z</time>
      </trkpt>
      <trkpt lat="45.07093" lon="4.85343">
        <ele>125.07399749756</ele>
        <time>2010-04-10T14:19:50Z</time>
      </trkpt>
      <trkpt lat="45.07097" lon="4.85437">
        <ele>126.22399902344</ele>
        <time>2010-04-10T14:20:00Z</time>
      </trkpt>
      <trkpt lat="45.071" lon="4.8551">
        <ele>128.07800292969</ele>
        <time>2010-04-10T14:20:08Z</time>
      </trkpt>
      <trkpt lat="45.07095" lon="4.85574">
        <ele>128.30200195312</ele>
        <time>2010-04-10T14:20:15Z</time>
      </trkpt>
      <trkpt lat="45.07091" lon="4.85661">
        <ele>128.29899597168</ele>
        <time>2010-04-10T14:20:24Z</time>
      </trkpt>
      <trkpt lat="45.07089" lon="4.85723">
        <ele>130.55400085449</ele>
        <time>2010-04-10T14:20:31Z</time>
      </trkpt>
      <trkpt lat="45.07084" lon="4.8578">
        <ele>131.64199829102</ele>
        <time>2010-04-10T14:20:38Z</time>
      </trkpt>
      <trkpt lat="45.07082" lon="4.85803">
        <ele>132.16000366211</ele>
        <time>2010-04-10T14:20:41Z</time>
      </trkpt>
      <trkpt lat="45.07079" lon="4.85818">
        <ele>133.42100524902</ele>
        <time>2010-04-10T14:20:43Z</time>
      </trkpt>
      <trkpt lat="45.07077" lon="4.85857">
        <ele>133.45599365234</ele>
        <time>2010-04-10T14:20:48Z</time>
      </trkpt>
      <trkpt lat="45.07073" lon="4.85883">
        <ele>131.52099609375</ele>
        <time>2010-04-10T14:20:51Z</time>
      </trkpt>
      <trkpt lat="45.07067" lon="4.85958">
        <ele>131.12100219727</ele>
        <time>2010-04-10T14:20:59Z</time>
      </trkpt>
      <trkpt lat="45.07067" lon="4.85967">
        <ele>130.875</ele>
        <time>2010-04-10T14:21:00Z</time>
      </trkpt>
      <trkpt lat="45.0707" lon="4.86034">
        <ele>131.0890045166</ele>
        <time>2010-04-10T14:21:07Z</time>
      </trkpt>
      <trkpt lat="45.07074" lon="4.86119">
        <ele>131.375</ele>
        <time>2010-04-10T14:21:16Z</time>
      </trkpt>
      <trkpt lat="45.07076" lon="4.86201">
        <ele>131.0359954834</ele>
        <time>2010-04-10T14:21:25Z</time>
      </trkpt>
      <trkpt lat="45.07074" lon="4.86227">
        <ele>130.68899536133</ele>
        <time>2010-04-10T14:21:28Z</time>
      </trkpt>
      <trkpt lat="45.0707" lon="4.8626">
        <ele>131.88600158691</ele>
        <time>2010-04-10T14:21:32Z</time>
      </trkpt>
      <trkpt lat="45.07053" lon="4.86304">
        <ele>132.40699768066</ele>
        <time>2010-04-10T14:21:38Z</time>
      </trkpt>
      <trkpt lat="45.07026" lon="4.86364">
        <ele>133.36399841309</ele>
        <time>2010-04-10T14:21:47Z</time>
      </trkpt>
      <trkpt lat="45.07019" lon="4.86378">
        <ele>134.02499389648</ele>
        <time>2010-04-10T14:21:52Z</time>
      </trkpt>
      <trkpt lat="45.07008" lon="4.86388">
        <ele>133.82800292969</ele>
        <time>2010-04-10T14:21:56Z</time>
      </trkpt>
      <trkpt lat="45.07005" lon="4.86393">
        <ele>133.39599609375</ele>
        <time>2010-04-10T14:21:57Z</time>
      </trkpt>
      <trkpt lat="45.07001" lon="4.86399">
        <ele>133.5</ele>
        <time>2010-04-10T14:21:58Z</time>
      </trkpt>
      <trkpt lat="45.06994" lon="4.8643">
        <ele>133.19700622559</ele>
        <time>2010-04-10T14:22:02Z</time>
      </trkpt>
      <trkpt lat="45.07001" lon="4.86461">
        <ele>132.77799987793</ele>
        <time>2010-04-10T14:22:06Z</time>
      </trkpt>
      <trkpt lat="45.07015" lon="4.86477">
        <ele>133.54600524902</ele>
        <time>2010-04-10T14:22:09Z</time>
      </trkpt>
      <trkpt lat="45.07041" lon="4.8648">
        <ele>133.62600708008</ele>
        <time>2010-04-10T14:22:13Z</time>
      </trkpt>
      <trkpt lat="45.07061" lon="4.86484">
        <ele>132.95100402832</ele>
        <time>2010-04-10T14:22:16Z</time>
      </trkpt>
      <trkpt lat="45.07081" lon="4.86508">
        <ele>132.43499755859</ele>
        <time>2010-04-10T14:22:20Z</time>
      </trkpt>
      <trkpt lat="45.0709" lon="4.86529">
        <ele>134.0119934082</ele>
        <time>2010-04-10T14:22:23Z</time>
      </trkpt>
      <trkpt lat="45.07093" lon="4.86543">
        <ele>134.56799316406</ele>
        <time>2010-04-10T14:22:25Z</time>
      </trkpt>
      <trkpt lat="45.07095" lon="4.86558">
        <ele>135.64500427246</ele>
        <time>2010-04-10T14:22:27Z</time>
      </trkpt>
      <trkpt lat="45.07094" lon="4.86572">
        <ele>136.23199462891</ele>
        <time>2010-04-10T14:22:29Z</time>
      </trkpt>
      <trkpt lat="45.07081" lon="4.86618">
        <ele>138.68499755859</ele>
        <time>2010-04-10T14:22:36Z</time>
      </trkpt>
      <trkpt lat="45.07053" lon="4.86667">
        <ele>139.47300720215</ele>
        <time>2010-04-10T14:22:45Z</time>
      </trkpt>
      <trkpt lat="45.07038" lon="4.86703">
        <ele>141.64100646973</ele>
        <time>2010-04-10T14:22:51Z</time>
      </trkpt>
      <trkpt lat="45.07028" lon="4.86756">
        <ele>143.05799865723</ele>
        <time>2010-04-10T14:22:59Z</time>
      </trkpt>
      <trkpt lat="45.07025" lon="4.86812">
        <ele>144.12600708008</ele>
        <time>2010-04-10T14:23:07Z</time>
      </trkpt>
      <trkpt lat="45.07016" lon="4.8688">
        <ele>146.52299499512</ele>
        <time>2010-04-10T14:23:17Z</time>
      </trkpt>
      <trkpt lat="45.07004" lon="4.86935">
        <ele>145.55200195312</ele>
        <time>2010-04-10T14:23:25Z</time>
      </trkpt>
      <trkpt lat="45.06989" lon="4.87">
        <ele>145.48399353027</ele>
        <time>2010-04-10T14:23:34Z</time>
      </trkpt>
      <trkpt lat="45.06963" lon="4.87064">
        <ele>144.88800048828</ele>
        <time>2010-04-10T14:23:43Z</time>
      </trkpt>
      <trkpt lat="45.0693" lon="4.87122">
        <ele>145.51300048828</ele>
        <time>2010-04-10T14:23:52Z</time>
      </trkpt>
      <trkpt lat="45.06903" lon="4.87175">
        <ele>145.25700378418</ele>
        <time>2010-04-10T14:24:00Z</time>
      </trkpt>
      <trkpt lat="45.06881" lon="4.87233">
        <ele>145.65800476074</ele>
        <time>2010-04-10T14:24:08Z</time>
      </trkpt>
      <trkpt lat="45.06863" lon="4.87305">
        <ele>145.68299865723</ele>
        <time>2010-04-10T14:24:17Z</time>
      </trkpt>
      <trkpt lat="45.06852" lon="4.87378">
        <ele>145.35400390625</ele>
        <time>2010-04-10T14:24:26Z</time>
      </trkpt>
      <trkpt lat="45.06847" lon="4.87442">
        <ele>145.52799987793</ele>
        <time>2010-04-10T14:24:34Z</time>
      </trkpt>
      <trkpt lat="45.06844" lon="4.87473">
        <ele>145.95500183106</ele>
        <time>2010-04-10T14:24:38Z</time>
      </trkpt>
      <trkpt lat="45.06852" lon="4.87501">
        <ele>145.61500549316</ele>
        <time>2010-04-10T14:24:42Z</time>
      </trkpt>
      <trkpt lat="45.06868" lon="4.87502">
        <ele>145.62899780273</ele>
        <time>2010-04-10T14:24:45Z</time>
      </trkpt>
      <trkpt lat="45.06889" lon="4.87498">
        <ele>145.35499572754</ele>
        <time>2010-04-10T14:24:49Z</time>
      </trkpt>
      <trkpt lat="45.06907" lon="4.87512">
        <ele>146.46499633789</ele>
        <time>2010-04-10T14:24:53Z</time>
      </trkpt>
      <trkpt lat="45.06911" lon="4.87517">
        <ele>146.57299804688</ele>
        <time>2010-04-10T14:24:54Z</time>
      </trkpt>
      <trkpt lat="45.06939" lon="4.87562">
        <ele>147.05299377441</ele>
        <time>2010-04-10T14:25:03Z</time>
      </trkpt>
      <trkpt lat="45.06948" lon="4.87578">
        <ele>148.16600036621</ele>
        <time>2010-04-10T14:25:06Z</time>
      </trkpt>
      <trkpt lat="45.06966" lon="4.87633">
        <ele>149.58500671387</ele>
        <time>2010-04-10T14:25:15Z</time>
      </trkpt>
      <trkpt lat="45.06981" lon="4.87685">
        <ele>150.30900573731</ele>
        <time>2010-04-10T14:25:23Z</time>
      </trkpt>
      <trkpt lat="45.06994" lon="4.87732">
        <ele>151.56300354004</ele>
        <time>2010-04-10T14:25:30Z</time>
      </trkpt>
      <trkpt lat="45.07008" lon="4.8778">
        <ele>151.56799316406</ele>
        <time>2010-04-10T14:25:37Z</time>
      </trkpt>
      <trkpt lat="45.07023" lon="4.87834">
        <ele>151.4049987793</ele>
        <time>2010-04-10T14:25:45Z</time>
      </trkpt>
      <trkpt lat="45.07038" lon="4.87885">
        <ele>152.7200012207</ele>
        <time>2010-04-10T14:25:53Z</time>
      </trkpt>
      <trkpt lat="45.07058" lon="4.87954">
        <ele>151.75</ele>
        <time>2010-04-10T14:26:04Z</time>
      </trkpt>
      <trkpt lat="45.07082" lon="4.88023">
        <ele>151.45100402832</ele>
        <time>2010-04-10T14:26:15Z</time>
      </trkpt>
      <trkpt lat="45.07106" lon="4.88082">
        <ele>151.51300048828</ele>
        <time>2010-04-10T14:26:25Z</time>
      </trkpt>
      <trkpt lat="45.07126" lon="4.88119">
        <ele>152.86799621582</ele>
        <time>2010-04-10T14:26:32Z</time>
      </trkpt>
      <trkpt lat="45.07153" lon="4.88162">
        <ele>153.15400695801</ele>
        <time>2010-04-10T14:26:41Z</time>
      </trkpt>
      <trkpt lat="45.07182" lon="4.88211">
        <ele>152.96600341797</ele>
        <time>2010-04-10T14:26:51Z</time>
      </trkpt>
      <trkpt lat="45.07207" lon="4.88254">
        <ele>154.09599304199</ele>
        <time>2010-04-10T14:27:00Z</time>
      </trkpt>
      <trkpt lat="45.07239" lon="4.88306">
        <ele>155.9049987793</ele>
        <time>2010-04-10T14:27:11Z</time>
      </trkpt>
      <trkpt lat="45.07264" lon="4.8835">
        <ele>156.55400085449</ele>
        <time>2010-04-10T14:27:20Z</time>
      </trkpt>
      <trkpt lat="45.07286" lon="4.88398">
        <ele>157.01899719238</ele>
        <time>2010-04-10T14:27:29Z</time>
      </trkpt>
      <trkpt lat="45.07309" lon="4.88464">
        <ele>158.27200317383</ele>
        <time>2010-04-10T14:27:40Z</time>
      </trkpt>
      <trkpt lat="45.07324" lon="4.88511">
        <ele>158.61700439453</ele>
        <time>2010-04-10T14:27:48Z</time>
      </trkpt>
      <trkpt lat="45.0734" lon="4.88559">
        <ele>159.30400085449</ele>
        <time>2010-04-10T14:27:56Z</time>
      </trkpt>
      <trkpt lat="45.07357" lon="4.88622">
        <ele>160.34599304199</ele>
        <time>2010-04-10T14:28:06Z</time>
      </trkpt>
      <trkpt lat="45.07365" lon="4.88689">
        <ele>160.99000549316</ele>
        <time>2010-04-10T14:28:16Z</time>
      </trkpt>
      <trkpt lat="45.07369" lon="4.88728">
        <ele>161.20199584961</ele>
        <time>2010-04-10T14:28:22Z</time>
      </trkpt>
      <trkpt lat="45.07371" lon="4.88741">
        <ele>161.17799377441</ele>
        <time>2010-04-10T14:28:24Z</time>
      </trkpt>
      <trkpt lat="45.0738" lon="4.88796">
        <ele>162.9640045166</ele>
        <time>2010-04-10T14:28:32Z</time>
      </trkpt>
      <trkpt lat="45.07395" lon="4.88854">
        <ele>163.29499816894</ele>
        <time>2010-04-10T14:28:41Z</time>
      </trkpt>
      <trkpt lat="45.07397" lon="4.8886">
        <ele>163.70599365234</ele>
        <time>2010-04-10T14:28:42Z</time>
      </trkpt>
      <trkpt lat="45.07417" lon="4.88905">
        <ele>163.19200134277</ele>
        <time>2010-04-10T14:28:50Z</time>
      </trkpt>
      <trkpt lat="45.07426" lon="4.88919">
        <ele>164.47900390625</ele>
        <time>2010-04-10T14:28:53Z</time>
      </trkpt>
      <trkpt lat="45.07443" lon="4.88931">
        <ele>164.66999816894</ele>
        <time>2010-04-10T14:28:57Z</time>
      </trkpt>
      <trkpt lat="45.07481" lon="4.88947">
        <ele>165.84300231934</ele>
        <time>2010-04-10T14:29:06Z</time>
      </trkpt>
      <trkpt lat="45.07515" lon="4.88963">
        <ele>166.66400146484</ele>
        <time>2010-04-10T14:29:14Z</time>
      </trkpt>
      <trkpt lat="45.0752" lon="4.88965">
        <ele>166.78399658203</ele>
        <time>2010-04-10T14:29:15Z</time>
      </trkpt>
      <trkpt lat="45.07529" lon="4.88966">
        <ele>166.65199279785</ele>
        <time>2010-04-10T14:29:17Z</time>
      </trkpt>
      <trkpt lat="45.07552" lon="4.88981">
        <ele>166.77499389648</ele>
        <time>2010-04-10T14:29:23Z</time>
      </trkpt>
      <trkpt lat="45.07567" lon="4.88993">
        <ele>168.58599853516</ele>
        <time>2010-04-10T14:29:27Z</time>
      </trkpt>
      <trkpt lat="45.07585" lon="4.89025">
        <ele>170.08700561523</ele>
        <time>2010-04-10T14:29:34Z</time>
      </trkpt>
      <trkpt lat="45.07603" lon="4.89057">
        <ele>171.18800354004</ele>
        <time>2010-04-10T14:29:42Z</time>
      </trkpt>
      <trkpt lat="45.07619" lon="4.89076">
        <ele>172.08500671387</ele>
        <time>2010-04-10T14:29:48Z</time>
      </trkpt>
      <trkpt lat="45.07634" lon="4.89094">
        <ele>173.07699584961</ele>
        <time>2010-04-10T14:29:53Z</time>
      </trkpt>
      <trkpt lat="45.0766" lon="4.89112">
        <ele>173.28999328613</ele>
        <time>2010-04-10T14:30:00Z</time>
      </trkpt>
      <trkpt lat="45.07678" lon="4.89127">
        <ele>175.18899536133</ele>
        <time>2010-04-10T14:30:06Z</time>
      </trkpt>
      <trkpt lat="45.07687" lon="4.89138">
        <ele>175.88499450684</ele>
        <time>2010-04-10T14:30:10Z</time>
      </trkpt>
      <trkpt lat="45.07699" lon="4.89152">
        <ele>177.17500305176</ele>
        <time>2010-04-10T14:30:15Z</time>
      </trkpt>
      <trkpt lat="45.07717" lon="4.89159">
        <ele>177.65800476074</ele>
        <time>2010-04-10T14:30:21Z</time>
      </trkpt>
      <trkpt lat="45.07741" lon="4.89162">
        <ele>178.13600158691</ele>
        <time>2010-04-10T14:30:27Z</time>
      </trkpt>
      <trkpt lat="45.07763" lon="4.89175">
        <ele>179.52099609375</ele>
        <time>2010-04-10T14:30:33Z</time>
      </trkpt>
      <trkpt lat="45.07793" lon="4.89201">
        <ele>179.46899414062</ele>
        <time>2010-04-10T14:30:41Z</time>
      </trkpt>
      <trkpt lat="45.07817" lon="4.89234">
        <ele>178.48199462891</ele>
        <time>2010-04-10T14:30:48Z</time>
      </trkpt>
      <trkpt lat="45.07848" lon="4.89299">
        <ele>178.38400268555</ele>
        <time>2010-04-10T14:30:59Z</time>
      </trkpt>
      <trkpt lat="45.0785" lon="4.89305">
        <ele>178.0950012207</ele>
        <time>2010-04-10T14:31:00Z</time>
      </trkpt>
      <trkpt lat="45.07869" lon="4.89372">
        <ele>177.73399353027</ele>
        <time>2010-04-10T14:31:10Z</time>
      </trkpt>
      <trkpt lat="45.07884" lon="4.89433">
        <ele>177.44400024414</ele>
        <time>2010-04-10T14:31:18Z</time>
      </trkpt>
      <trkpt lat="45.07889" lon="4.89501">
        <ele>177.11700439453</ele>
        <time>2010-04-10T14:31:26Z</time>
      </trkpt>
      <trkpt lat="45.07891" lon="4.89571">
        <ele>177.16299438477</ele>
        <time>2010-04-10T14:31:34Z</time>
      </trkpt>
      <trkpt lat="45.07884" lon="4.89635">
        <ele>177.72799682617</ele>
        <time>2010-04-10T14:31:41Z</time>
      </trkpt>
      <trkpt lat="45.07878" lon="4.89703">
        <ele>178.39799499512</ele>
        <time>2010-04-10T14:31:49Z</time>
      </trkpt>
      <trkpt lat="45.07877" lon="4.89736">
        <ele>179.25900268555</ele>
        <time>2010-04-10T14:31:53Z</time>
      </trkpt>
      <trkpt lat="45.07873" lon="4.8976">
        <ele>178.89700317383</ele>
        <time>2010-04-10T14:31:56Z</time>
      </trkpt>
      <trkpt lat="45.07861" lon="4.89788">
        <ele>179.52799987793</ele>
        <time>2010-04-10T14:32:00Z</time>
      </trkpt>
      <trkpt lat="45.07817" lon="4.89862">
        <ele>179.92300415039</ele>
        <time>2010-04-10T14:32:12Z</time>
      </trkpt>
      <trkpt lat="45.07778" lon="4.89928">
        <ele>180.77400207519</ele>
        <time>2010-04-10T14:32:23Z</time>
      </trkpt>
      <trkpt lat="45.07769" lon="4.89945">
        <ele>182.14500427246</ele>
        <time>2010-04-10T14:32:26Z</time>
      </trkpt>
      <trkpt lat="45.07744" lon="4.89997">
        <ele>183.80599975586</ele>
        <time>2010-04-10T14:32:35Z</time>
      </trkpt>
      <trkpt lat="45.07732" lon="4.9005">
        <ele>183.60000610352</ele>
        <time>2010-04-10T14:32:43Z</time>
      </trkpt>
      <trkpt lat="45.07722" lon="4.90106">
        <ele>185.41700744629</ele>
        <time>2010-04-10T14:32:51Z</time>
      </trkpt>
      <trkpt lat="45.07721" lon="4.90164">
        <ele>187.46800231934</ele>
        <time>2010-04-10T14:32:59Z</time>
      </trkpt>
      <trkpt lat="45.0772" lon="4.90223">
        <ele>188.06900024414</ele>
        <time>2010-04-10T14:33:08Z</time>
      </trkpt>
      <trkpt lat="45.07718" lon="4.90292">
        <ele>189.22799682617</ele>
        <time>2010-04-10T14:33:19Z</time>
      </trkpt>
      <trkpt lat="45.07712" lon="4.9034">
        <ele>190.89900207519</ele>
        <time>2010-04-10T14:33:27Z</time>
      </trkpt>
      <trkpt lat="45.07701" lon="4.90388">
        <ele>192.72399902344</ele>
        <time>2010-04-10T14:33:35Z</time>
      </trkpt>
      <trkpt lat="45.07685" lon="4.90424">
        <ele>193.56500244141</ele>
        <time>2010-04-10T14:33:42Z</time>
      </trkpt>
      <trkpt lat="45.07666" lon="4.90469">
        <ele>196.04899597168</ele>
        <time>2010-04-10T14:33:52Z</time>
      </trkpt>
      <trkpt lat="45.07647" lon="4.90511">
        <ele>198.22200012207</ele>
        <time>2010-04-10T14:34:02Z</time>
      </trkpt>
      <trkpt lat="45.07637" lon="4.90537">
        <ele>199.70799255371</ele>
        <time>2010-04-10T14:34:09Z</time>
      </trkpt>
      <trkpt lat="45.07631" lon="4.90557">
        <ele>200.83299255371</ele>
        <time>2010-04-10T14:34:14Z</time>
      </trkpt>
      <trkpt lat="45.07627" lon="4.90579">
        <ele>201.53999328613</ele>
        <time>2010-04-10T14:34:19Z</time>
      </trkpt>
      <trkpt lat="45.07625" lon="4.90602">
        <ele>202.53500366211</ele>
        <time>2010-04-10T14:34:24Z</time>
      </trkpt>
      <trkpt lat="45.07621" lon="4.9063">
        <ele>203.27499389648</ele>
        <time>2010-04-10T14:34:30Z</time>
      </trkpt>
      <trkpt lat="45.07618" lon="4.90679">
        <ele>204.66000366211</ele>
        <time>2010-04-10T14:34:40Z</time>
      </trkpt>
      <trkpt lat="45.0762" lon="4.90723">
        <ele>204.37300109863</ele>
        <time>2010-04-10T14:34:48Z</time>
      </trkpt>
      <trkpt lat="45.07627" lon="4.90758">
        <ele>203.74899291992</ele>
        <time>2010-04-10T14:34:54Z</time>
      </trkpt>
      <trkpt lat="45.07634" lon="4.9078">
        <ele>205.19599914551</ele>
        <time>2010-04-10T14:34:58Z</time>
      </trkpt>
      <trkpt lat="45.07635" lon="4.90786">
        <ele>205.38299560547</ele>
        <time>2010-04-10T14:34:59Z</time>
      </trkpt>
      <trkpt lat="45.07656" lon="4.90842">
        <ele>206.13800048828</ele>
        <time>2010-04-10T14:35:09Z</time>
      </trkpt>
      <trkpt lat="45.07671" lon="4.90887">
        <ele>207.76899719238</ele>
        <time>2010-04-10T14:35:17Z</time>
      </trkpt>
      <trkpt lat="45.07682" lon="4.9092">
        <ele>207.08099365234</ele>
        <time>2010-04-10T14:35:23Z</time>
      </trkpt>
      <trkpt lat="45.07706" lon="4.90964">
        <ele>209.38400268555</ele>
        <time>2010-04-10T14:35:32Z</time>
      </trkpt>
      <trkpt lat="45.07731" lon="4.91002">
        <ele>210.19799804688</ele>
        <time>2010-04-10T14:35:40Z</time>
      </trkpt>
      <trkpt lat="45.07735" lon="4.91006">
        <ele>210.03500366211</ele>
        <time>2010-04-10T14:35:41Z</time>
      </trkpt>
      <trkpt lat="45.07748" lon="4.91024">
        <ele>209.21699523926</ele>
        <time>2010-04-10T14:35:45Z</time>
      </trkpt>
      <trkpt lat="45.07765" lon="4.91051">
        <ele>209.48100280762</ele>
        <time>2010-04-10T14:35:51Z</time>
      </trkpt>
      <trkpt lat="45.07784" lon="4.9108">
        <ele>210.93800354004</ele>
        <time>2010-04-10T14:35:58Z</time>
      </trkpt>
      <trkpt lat="45.07795" lon="4.91096">
        <ele>210.97099304199</ele>
        <time>2010-04-10T14:36:02Z</time>
      </trkpt>
      <trkpt lat="45.0783" lon="4.91131">
        <ele>212.37300109863</ele>
        <time>2010-04-10T14:36:12Z</time>
      </trkpt>
      <trkpt lat="45.07858" lon="4.91159">
        <ele>213.87899780273</ele>
        <time>2010-04-10T14:36:20Z</time>
      </trkpt>
      <trkpt lat="45.07886" lon="4.912">
        <ele>214.82400512695</ele>
        <time>2010-04-10T14:36:30Z</time>
      </trkpt>
      <trkpt lat="45.07902" lon="4.91227">
        <ele>215.28500366211</ele>
        <time>2010-04-10T14:36:37Z</time>
      </trkpt>
      <trkpt lat="45.07922" lon="4.91261">
        <ele>216.6190032959</ele>
        <time>2010-04-10T14:36:46Z</time>
      </trkpt>
      <trkpt lat="45.07941" lon="4.91294">
        <ele>218.67399597168</ele>
        <time>2010-04-10T14:36:55Z</time>
      </trkpt>
      <trkpt lat="45.07958" lon="4.91323">
        <ele>219.38299560547</ele>
        <time>2010-04-10T14:37:03Z</time>
      </trkpt>
      <trkpt lat="45.0798" lon="4.91353">
        <ele>220.63499450684</ele>
        <time>2010-04-10T14:37:12Z</time>
      </trkpt>
      <trkpt lat="45.08004" lon="4.91383">
        <ele>222.11500549316</ele>
        <time>2010-04-10T14:37:22Z</time>
      </trkpt>
      <trkpt lat="45.08028" lon="4.91415">
        <ele>223.91499328613</ele>
        <time>2010-04-10T14:37:33Z</time>
      </trkpt>
      <trkpt lat="45.08045" lon="4.91436">
        <ele>225.08799743652</ele>
        <time>2010-04-10T14:37:41Z</time>
      </trkpt>
      <trkpt lat="45.08062" lon="4.91455">
        <ele>225.59599304199</ele>
        <time>2010-04-10T14:37:49Z</time>
      </trkpt>
      <trkpt lat="45.08079" lon="4.91474">
        <ele>226.99699401856</ele>
        <time>2010-04-10T14:37:56Z</time>
      </trkpt>
      <trkpt lat="45.08102" lon="4.91497">
        <ele>228.03500366211</ele>
        <time>2010-04-10T14:38:05Z</time>
      </trkpt>
      <trkpt lat="45.08122" lon="4.91517">
        <ele>229.8630065918</ele>
        <time>2010-04-10T14:38:13Z</time>
      </trkpt>
      <trkpt lat="45.08145" lon="4.91538">
        <ele>231.84100341797</ele>
        <time>2010-04-10T14:38:22Z</time>
      </trkpt>
      <trkpt lat="45.08147" lon="4.91541">
        <ele>232.02099609375</ele>
        <time>2010-04-10T14:38:23Z</time>
      </trkpt>
      <trkpt lat="45.08163" lon="4.9156">
        <ele>233.17300415039</ele>
        <time>2010-04-10T14:38:30Z</time>
      </trkpt>
      <trkpt lat="45.08175" lon="4.91585">
        <ele>235.26699829102</ele>
        <time>2010-04-10T14:38:37Z</time>
      </trkpt>
      <trkpt lat="45.08182" lon="4.91613">
        <ele>237.00700378418</ele>
        <time>2010-04-10T14:38:44Z</time>
      </trkpt>
      <trkpt lat="45.08183" lon="4.91644">
        <ele>238.42599487305</ele>
        <time>2010-04-10T14:38:51Z</time>
      </trkpt>
      <trkpt lat="45.0818" lon="4.91669">
        <ele>239.51300048828</ele>
        <time>2010-04-10T14:38:57Z</time>
      </trkpt>
      <trkpt lat="45.08173" lon="4.9171">
        <ele>241.62399291992</ele>
        <time>2010-04-10T14:39:06Z</time>
      </trkpt>
      <trkpt lat="45.08168" lon="4.91739">
        <ele>242.28100585938</ele>
        <time>2010-04-10T14:39:12Z</time>
      </trkpt>
      <trkpt lat="45.08166" lon="4.91756">
        <ele>243.02900695801</ele>
        <time>2010-04-10T14:39:17Z</time>
      </trkpt>
      <trkpt lat="45.0816" lon="4.91789">
        <ele>244.45399475098</ele>
        <time>2010-04-10T14:39:25Z</time>
      </trkpt>
      <trkpt lat="45.08155" lon="4.91835">
        <ele>246.13800048828</ele>
        <time>2010-04-10T14:39:35Z</time>
      </trkpt>
      <trkpt lat="45.08156" lon="4.9187">
        <ele>247.77799987793</ele>
        <time>2010-04-10T14:39:42Z</time>
      </trkpt>
      <trkpt lat="45.08163" lon="4.91899">
        <ele>248.31500244141</ele>
        <time>2010-04-10T14:39:48Z</time>
      </trkpt>
      <trkpt lat="45.08177" lon="4.91938">
        <ele>249.66400146484</ele>
        <time>2010-04-10T14:39:56Z</time>
      </trkpt>
      <trkpt lat="45.08189" lon="4.91968">
        <ele>249.46000671387</ele>
        <time>2010-04-10T14:40:02Z</time>
      </trkpt>
      <trkpt lat="45.08197" lon="4.91984">
        <ele>249.38800048828</ele>
        <time>2010-04-10T14:40:05Z</time>
      </trkpt>
      <trkpt lat="45.0822" lon="4.92017">
        <ele>247.32200622559</ele>
        <time>2010-04-10T14:40:11Z</time>
      </trkpt>
      <trkpt lat="45.0825" lon="4.92035">
        <ele>245.70799255371</ele>
        <time>2010-04-10T14:40:16Z</time>
      </trkpt>
      <trkpt lat="45.0827" lon="4.92038">
        <ele>244.67999267578</ele>
        <time>2010-04-10T14:40:19Z</time>
      </trkpt>
      <trkpt lat="45.08325" lon="4.92035">
        <ele>243.45599365234</ele>
        <time>2010-04-10T14:40:27Z</time>
      </trkpt>
      <trkpt lat="45.08357" lon="4.92029">
        <ele>243.82000732422</ele>
        <time>2010-04-10T14:40:32Z</time>
      </trkpt>
      <trkpt lat="45.08391" lon="4.92016">
        <ele>244.07699584961</ele>
        <time>2010-04-10T14:40:38Z</time>
      </trkpt>
      <trkpt lat="45.08431" lon="4.91999">
        <ele>245.01400756836</ele>
        <time>2010-04-10T14:40:46Z</time>
      </trkpt>
      <trkpt lat="45.0847" lon="4.91983">
        <ele>245.45599365234</ele>
        <time>2010-04-10T14:40:54Z</time>
      </trkpt>
      <trkpt lat="45.08509" lon="4.91966">
        <ele>245.19900512695</ele>
        <time>2010-04-10T14:41:02Z</time>
      </trkpt>
      <trkpt lat="45.08544" lon="4.91952">
        <ele>242.66700744629</ele>
        <time>2010-04-10T14:41:09Z</time>
      </trkpt>
      <trkpt lat="45.08587" lon="4.91934">
        <ele>241.30299377441</ele>
        <time>2010-04-10T14:41:17Z</time>
      </trkpt>
      <trkpt lat="45.0863" lon="4.91924">
        <ele>239.14399719238</ele>
        <time>2010-04-10T14:41:24Z</time>
      </trkpt>
      <trkpt lat="45.08676" lon="4.91919">
        <ele>237.74899291992</ele>
        <time>2010-04-10T14:41:31Z</time>
      </trkpt>
      <trkpt lat="45.08743" lon="4.91914">
        <ele>234.9049987793</ele>
        <time>2010-04-10T14:41:41Z</time>
      </trkpt>
      <trkpt lat="45.08818" lon="4.91908">
        <ele>232.30900573731</ele>
        <time>2010-04-10T14:41:52Z</time>
      </trkpt>
      <trkpt lat="45.08873" lon="4.91903">
        <ele>229.73199462891</ele>
        <time>2010-04-10T14:42:00Z</time>
      </trkpt>
      <trkpt lat="45.08934" lon="4.91892">
        <ele>229.2440032959</ele>
        <time>2010-04-10T14:42:09Z</time>
      </trkpt>
      <trkpt lat="45.08948" lon="4.91888">
        <ele>227.81799316406</ele>
        <time>2010-04-10T14:42:11Z</time>
      </trkpt>
      <trkpt lat="45.08997" lon="4.91878">
        <ele>225.5299987793</ele>
        <time>2010-04-10T14:42:18Z</time>
      </trkpt>
      <trkpt lat="45.09011" lon="4.91875">
        <ele>225.46299743652</ele>
        <time>2010-04-10T14:42:20Z</time>
      </trkpt>
      <trkpt lat="45.09052" lon="4.91866">
        <ele>223.17999267578</ele>
        <time>2010-04-10T14:42:26Z</time>
      </trkpt>
      <trkpt lat="45.09087" lon="4.91854">
        <ele>221.45500183106</ele>
        <time>2010-04-10T14:42:31Z</time>
      </trkpt>
      <trkpt lat="45.0915" lon="4.91831">
        <ele>218.36500549316</ele>
        <time>2010-04-10T14:42:39Z</time>
      </trkpt>
      <trkpt lat="45.09211" lon="4.9181">
        <ele>214.61000061035</ele>
        <time>2010-04-10T14:42:46Z</time>
      </trkpt>
      <trkpt lat="45.09249" lon="4.91806">
        <ele>209.51600646973</ele>
        <time>2010-04-10T14:42:50Z</time>
      </trkpt>
      <trkpt lat="45.09258" lon="4.91808">
        <ele>209.64799499512</ele>
        <time>2010-04-10T14:42:51Z</time>
      </trkpt>
      <trkpt lat="45.09302" lon="4.91823">
        <ele>206.625</ele>
        <time>2010-04-10T14:42:56Z</time>
      </trkpt>
      <trkpt lat="45.09334" lon="4.91835">
        <ele>206.19599914551</ele>
        <time>2010-04-10T14:43:00Z</time>
      </trkpt>
      <trkpt lat="45.0935" lon="4.91841">
        <ele>205.68299865723</ele>
        <time>2010-04-10T14:43:02Z</time>
      </trkpt>
      <trkpt lat="45.09391" lon="4.91855">
        <ele>202.58399963379</ele>
        <time>2010-04-10T14:43:07Z</time>
      </trkpt>
      <trkpt lat="45.09464" lon="4.91881">
        <ele>198.90400695801</ele>
        <time>2010-04-10T14:43:16Z</time>
      </trkpt>
      <trkpt lat="45.09472" lon="4.91884">
        <ele>198.75700378418</ele>
        <time>2010-04-10T14:43:17Z</time>
      </trkpt>
      <trkpt lat="45.09508" lon="4.91893">
        <ele>198.19900512695</ele>
        <time>2010-04-10T14:43:22Z</time>
      </trkpt>
      <trkpt lat="45.09515" lon="4.91893">
        <ele>197.93099975586</ele>
        <time>2010-04-10T14:43:23Z</time>
      </trkpt>
      <trkpt lat="45.09542" lon="4.91892">
        <ele>198.07000732422</ele>
        <time>2010-04-10T14:43:27Z</time>
      </trkpt>
      <trkpt lat="45.09596" lon="4.91883">
        <ele>196.92999267578</ele>
        <time>2010-04-10T14:43:35Z</time>
      </trkpt>
      <trkpt lat="45.09663" lon="4.91872">
        <ele>195.60600280762</ele>
        <time>2010-04-10T14:43:45Z</time>
      </trkpt>
      <trkpt lat="45.09719" lon="4.91863">
        <ele>193.52499389648</ele>
        <time>2010-04-10T14:43:53Z</time>
      </trkpt>
      <trkpt lat="45.09798" lon="4.91848">
        <ele>191.79299926758</ele>
        <time>2010-04-10T14:44:05Z</time>
      </trkpt>
      <trkpt lat="45.09862" lon="4.91835">
        <ele>191.72900390625</ele>
        <time>2010-04-10T14:44:15Z</time>
      </trkpt>
      <trkpt lat="45.09909" lon="4.91826">
        <ele>192.02900695801</ele>
        <time>2010-04-10T14:44:23Z</time>
      </trkpt>
      <trkpt lat="45.09959" lon="4.91816">
        <ele>191.68400573731</ele>
        <time>2010-04-10T14:44:32Z</time>
      </trkpt>
      <trkpt lat="45.10003" lon="4.91807">
        <ele>191.05599975586</ele>
        <time>2010-04-10T14:44:40Z</time>
      </trkpt>
      <trkpt lat="45.10059" lon="4.91797">
        <ele>191.03199768066</ele>
        <time>2010-04-10T14:44:50Z</time>
      </trkpt>
      <trkpt lat="45.10098" lon="4.9179">
        <ele>189.18499755859</ele>
        <time>2010-04-10T14:44:57Z</time>
      </trkpt>
      <trkpt lat="45.10114" lon="4.91788">
        <ele>190.67500305176</ele>
        <time>2010-04-10T14:45:00Z</time>
      </trkpt>
      <trkpt lat="45.1017" lon="4.91779">
        <ele>191.60000610352</ele>
        <time>2010-04-10T14:45:11Z</time>
      </trkpt>
      <trkpt lat="45.10211" lon="4.91774">
        <ele>191.58799743652</ele>
        <time>2010-04-10T14:45:19Z</time>
      </trkpt>
      <trkpt lat="45.10257" lon="4.91767">
        <ele>191.27600097656</ele>
        <time>2010-04-10T14:45:28Z</time>
      </trkpt>
      <trkpt lat="45.10287" lon="4.91764">
        <ele>191.13600158691</ele>
        <time>2010-04-10T14:45:34Z</time>
      </trkpt>
      <trkpt lat="45.10309" lon="4.91775">
        <ele>191.19000244141</ele>
        <time>2010-04-10T14:45:39Z</time>
      </trkpt>
      <trkpt lat="45.10318" lon="4.91794">
        <ele>191.50900268555</ele>
        <time>2010-04-10T14:45:42Z</time>
      </trkpt>
      <trkpt lat="45.10319" lon="4.91801">
        <ele>191.35200500488</ele>
        <time>2010-04-10T14:45:43Z</time>
      </trkpt>
      <trkpt lat="45.10334" lon="4.91888">
        <ele>190.34100341797</ele>
        <time>2010-04-10T14:45:53Z</time>
      </trkpt>
      <trkpt lat="45.10345" lon="4.91952">
        <ele>188.95799255371</ele>
        <time>2010-04-10T14:46:00Z</time>
      </trkpt>
      <trkpt lat="45.10358" lon="4.92027">
        <ele>187.85800170898</ele>
        <time>2010-04-10T14:46:08Z</time>
      </trkpt>
      <trkpt lat="45.10373" lon="4.92112">
        <ele>188.21899414062</ele>
        <time>2010-04-10T14:46:17Z</time>
      </trkpt>
      <trkpt lat="45.10385" lon="4.92178">
        <ele>188.67399597168</ele>
        <time>2010-04-10T14:46:24Z</time>
      </trkpt>
      <trkpt lat="45.10401" lon="4.92268">
        <ele>189.51499938965</ele>
        <time>2010-04-10T14:46:34Z</time>
      </trkpt>
      <trkpt lat="45.10416" lon="4.92353">
        <ele>188.77400207519</ele>
        <time>2010-04-10T14:46:44Z</time>
      </trkpt>
      <trkpt lat="45.10418" lon="4.92361">
        <ele>188.55599975586</ele>
        <time>2010-04-10T14:46:45Z</time>
      </trkpt>
      <trkpt lat="45.10428" lon="4.92424">
        <ele>189.89900207519</ele>
        <time>2010-04-10T14:46:53Z</time>
      </trkpt>
      <trkpt lat="45.10433" lon="4.92451">
        <ele>190.54899597168</ele>
        <time>2010-04-10T14:46:57Z</time>
      </trkpt>
      <trkpt lat="45.10438" lon="4.92475">
        <ele>191.89100646973</ele>
        <time>2010-04-10T14:47:01Z</time>
      </trkpt>
      <trkpt lat="45.10449" lon="4.92541">
        <ele>191.49800109863</ele>
        <time>2010-04-10T14:47:12Z</time>
      </trkpt>
      <trkpt lat="45.10454" lon="4.92572">
        <ele>192.77099609375</ele>
        <time>2010-04-10T14:47:17Z</time>
      </trkpt>
      <trkpt lat="45.10461" lon="4.92615">
        <ele>194.14300537109</ele>
        <time>2010-04-10T14:47:24Z</time>
      </trkpt>
      <trkpt lat="45.10462" lon="4.9262">
        <ele>193.89100646973</ele>
        <time>2010-04-10T14:47:25Z</time>
      </trkpt>
      <trkpt lat="45.10469" lon="4.92653">
        <ele>193.75500488281</ele>
        <time>2010-04-10T14:47:31Z</time>
      </trkpt>
      <trkpt lat="45.10477" lon="4.92692">
        <ele>192.99200439453</ele>
        <time>2010-04-10T14:47:37Z</time>
      </trkpt>
      <trkpt lat="45.10484" lon="4.92725">
        <ele>192.77699279785</ele>
        <time>2010-04-10T14:47:42Z</time>
      </trkpt>
      <trkpt lat="45.10486" lon="4.92739">
        <ele>192.14799499512</ele>
        <time>2010-04-10T14:47:44Z</time>
      </trkpt>
      <trkpt lat="45.10494" lon="4.92769">
        <ele>193.63999938965</ele>
        <time>2010-04-10T14:47:49Z</time>
      </trkpt>
      <trkpt lat="45.10495" lon="4.92775">
        <ele>193.52799987793</ele>
        <time>2010-04-10T14:47:50Z</time>
      </trkpt>
      <trkpt lat="45.105" lon="4.92806">
        <ele>193.92700195312</ele>
        <time>2010-04-10T14:47:55Z</time>
      </trkpt>
      <trkpt lat="45.10508" lon="4.92846">
        <ele>193.58999633789</ele>
        <time>2010-04-10T14:48:01Z</time>
      </trkpt>
      <trkpt lat="45.10519" lon="4.92905">
        <ele>193.29600524902</ele>
        <time>2010-04-10T14:48:09Z</time>
      </trkpt>
      <trkpt lat="45.10524" lon="4.92934">
        <ele>193.45700073242</ele>
        <time>2010-04-10T14:48:13Z</time>
      </trkpt>
      <trkpt lat="45.10537" lon="4.93001">
        <ele>194.20300292969</ele>
        <time>2010-04-10T14:48:22Z</time>
      </trkpt>
      <trkpt lat="45.1055" lon="4.93067">
        <ele>193.49000549316</ele>
        <time>2010-04-10T14:48:31Z</time>
      </trkpt>
      <trkpt lat="45.10558" lon="4.9311">
        <ele>194.60099792481</ele>
        <time>2010-04-10T14:48:38Z</time>
      </trkpt>
      <trkpt lat="45.1057" lon="4.9317">
        <ele>194.52799987793</ele>
        <time>2010-04-10T14:48:47Z</time>
      </trkpt>
      <trkpt lat="45.10582" lon="4.93231">
        <ele>195.60600280762</ele>
        <time>2010-04-10T14:48:56Z</time>
      </trkpt>
      <trkpt lat="45.10592" lon="4.9328">
        <ele>196.65299987793</ele>
        <time>2010-04-10T14:49:04Z</time>
      </trkpt>
      <trkpt lat="45.10601" lon="4.93329">
        <ele>197.37699890137</ele>
        <time>2010-04-10T14:49:12Z</time>
      </trkpt>
      <trkpt lat="45.10609" lon="4.93375">
        <ele>198.12100219727</ele>
        <time>2010-04-10T14:49:19Z</time>
      </trkpt>
      <trkpt lat="45.10612" lon="4.93389">
        <ele>197.89999389648</ele>
        <time>2010-04-10T14:49:21Z</time>
      </trkpt>
      <trkpt lat="45.10616" lon="4.93408">
        <ele>197.71000671387</ele>
        <time>2010-04-10T14:49:24Z</time>
      </trkpt>
      <trkpt lat="45.10626" lon="4.93465">
        <ele>199.21699523926</ele>
        <time>2010-04-10T14:49:33Z</time>
      </trkpt>
      <trkpt lat="45.10633" lon="4.93504">
        <ele>201.37199401856</ele>
        <time>2010-04-10T14:49:40Z</time>
      </trkpt>
      <trkpt lat="45.10634" lon="4.93513">
        <ele>202.34399414062</ele>
        <time>2010-04-10T14:49:42Z</time>
      </trkpt>
      <trkpt lat="45.10637" lon="4.93531">
        <ele>203.74600219727</ele>
        <time>2010-04-10T14:49:46Z</time>
      </trkpt>
      <trkpt lat="45.10643" lon="4.93559">
        <ele>204.72999572754</ele>
        <time>2010-04-10T14:49:52Z</time>
      </trkpt>
      <trkpt lat="45.10648" lon="4.9359">
        <ele>207.21200561523</ele>
        <time>2010-04-10T14:49:59Z</time>
      </trkpt>
      <trkpt lat="45.10654" lon="4.93624">
        <ele>208.73399353027</ele>
        <time>2010-04-10T14:50:07Z</time>
      </trkpt>
      <trkpt lat="45.10659" lon="4.93659">
        <ele>210.39199829102</ele>
        <time>2010-04-10T14:50:15Z</time>
      </trkpt>
      <trkpt lat="45.10664" lon="4.93705">
        <ele>211.99200439453</ele>
        <time>2010-04-10T14:50:25Z</time>
      </trkpt>
      <trkpt lat="45.10669" lon="4.93752">
        <ele>213.44799804688</ele>
        <time>2010-04-10T14:50:35Z</time>
      </trkpt>
      <trkpt lat="45.10674" lon="4.93798">
        <ele>215.22700500488</ele>
        <time>2010-04-10T14:50:44Z</time>
      </trkpt>
      <trkpt lat="45.10679" lon="4.93843">
        <ele>215.08399963379</ele>
        <time>2010-04-10T14:50:52Z</time>
      </trkpt>
      <trkpt lat="45.10685" lon="4.93893">
        <ele>215.22599792481</ele>
        <time>2010-04-10T14:51:00Z</time>
      </trkpt>
      <trkpt lat="45.10693" lon="4.93948">
        <ele>215.04800415039</ele>
        <time>2010-04-10T14:51:08Z</time>
      </trkpt>
      <trkpt lat="45.10706" lon="4.9401">
        <ele>213.94099426269</ele>
        <time>2010-04-10T14:51:16Z</time>
      </trkpt>
      <trkpt lat="45.10719" lon="4.94051">
        <ele>212.79100036621</ele>
        <time>2010-04-10T14:51:21Z</time>
      </trkpt>
      <trkpt lat="45.10735" lon="4.94089">
        <ele>212.27900695801</ele>
        <time>2010-04-10T14:51:26Z</time>
      </trkpt>
      <trkpt lat="45.10742" lon="4.94103">
        <ele>211.3390045166</ele>
        <time>2010-04-10T14:51:28Z</time>
      </trkpt>
      <trkpt lat="45.10771" lon="4.94151">
        <ele>210.14599609375</ele>
        <time>2010-04-10T14:51:35Z</time>
      </trkpt>
      <trkpt lat="45.1081" lon="4.94199">
        <ele>209.54100036621</ele>
        <time>2010-04-10T14:51:43Z</time>
      </trkpt>
      <trkpt lat="45.10843" lon="4.94237">
        <ele>210.06399536133</ele>
        <time>2010-04-10T14:51:50Z</time>
      </trkpt>
      <trkpt lat="45.10848" lon="4.94241">
        <ele>209.91600036621</ele>
        <time>2010-04-10T14:51:51Z</time>
      </trkpt>
      <trkpt lat="45.10882" lon="4.94281">
        <ele>210.93200683594</ele>
        <time>2010-04-10T14:51:59Z</time>
      </trkpt>
      <trkpt lat="45.1091" lon="4.94321">
        <ele>211.49099731445</ele>
        <time>2010-04-10T14:52:07Z</time>
      </trkpt>
      <trkpt lat="45.10916" lon="4.94341">
        <ele>211.45799255371</ele>
        <time>2010-04-10T14:52:10Z</time>
      </trkpt>
      <trkpt lat="45.10921" lon="4.94401">
        <ele>211.05799865723</ele>
        <time>2010-04-10T14:52:18Z</time>
      </trkpt>
      <trkpt lat="45.10925" lon="4.94467">
        <ele>211.30999755859</ele>
        <time>2010-04-10T14:52:26Z</time>
      </trkpt>
      <trkpt lat="45.10928" lon="4.94534">
        <ele>211.38900756836</ele>
        <time>2010-04-10T14:52:34Z</time>
      </trkpt>
      <trkpt lat="45.10926" lon="4.94599">
        <ele>211.87399291992</ele>
        <time>2010-04-10T14:52:42Z</time>
      </trkpt>
      <trkpt lat="45.10918" lon="4.94642">
        <ele>212.89900207519</ele>
        <time>2010-04-10T14:52:48Z</time>
      </trkpt>
      <trkpt lat="45.10906" lon="4.94687">
        <ele>212.88999938965</ele>
        <time>2010-04-10T14:52:55Z</time>
      </trkpt>
      <trkpt lat="45.10895" lon="4.94724">
        <ele>213.40400695801</ele>
        <time>2010-04-10T14:53:01Z</time>
      </trkpt>
      <trkpt lat="45.1089" lon="4.94741">
        <ele>213.38299560547</ele>
        <time>2010-04-10T14:53:04Z</time>
      </trkpt>
      <trkpt lat="45.10875" lon="4.94794">
        <ele>212.97999572754</ele>
        <time>2010-04-10T14:53:12Z</time>
      </trkpt>
      <trkpt lat="45.10873" lon="4.948">
        <ele>212.94099426269</ele>
        <time>2010-04-10T14:53:13Z</time>
      </trkpt>
      <trkpt lat="45.10866" lon="4.94818">
        <ele>212.88600158691</ele>
        <time>2010-04-10T14:53:16Z</time>
      </trkpt>
      <trkpt lat="45.10863" lon="4.94825">
        <ele>212.60400390625</ele>
        <time>2010-04-10T14:53:17Z</time>
      </trkpt>
      <trkpt lat="45.1086" lon="4.94838">
        <ele>212.87600708008</ele>
        <time>2010-04-10T14:53:19Z</time>
      </trkpt>
      <trkpt lat="45.10859" lon="4.94876">
        <ele>210.93899536133</ele>
        <time>2010-04-10T14:53:24Z</time>
      </trkpt>
      <trkpt lat="45.10855" lon="4.94923">
        <ele>208.65199279785</ele>
        <time>2010-04-10T14:53:29Z</time>
      </trkpt>
      <trkpt lat="45.10852" lon="4.94993">
        <ele>205.3390045166</ele>
        <time>2010-04-10T14:53:35Z</time>
      </trkpt>
      <trkpt lat="45.10849" lon="4.9509">
        <ele>198.98199462891</ele>
        <time>2010-04-10T14:53:42Z</time>
      </trkpt>
      <trkpt lat="45.10859" lon="4.95161">
        <ele>195.65100097656</ele>
        <time>2010-04-10T14:53:47Z</time>
      </trkpt>
      <trkpt lat="45.10863" lon="4.95174">
        <ele>195.39100646973</ele>
        <time>2010-04-10T14:53:48Z</time>
      </trkpt>
      <trkpt lat="45.10874" lon="4.9521">
        <ele>195.98100280762</ele>
        <time>2010-04-10T14:53:51Z</time>
      </trkpt>
      <trkpt lat="45.10875" lon="4.95239">
        <ele>194.46299743652</ele>
        <time>2010-04-10T14:53:55Z</time>
      </trkpt>
      <trkpt lat="45.10872" lon="4.95258">
        <ele>193.07299804688</ele>
        <time>2010-04-10T14:53:58Z</time>
      </trkpt>
      <trkpt lat="45.1088" lon="4.95278">
        <ele>193.27799987793</ele>
        <time>2010-04-10T14:54:01Z</time>
      </trkpt>
      <trkpt lat="45.10884" lon="4.95283">
        <ele>193.19900512695</ele>
        <time>2010-04-10T14:54:02Z</time>
      </trkpt>
      <trkpt lat="45.10904" lon="4.95309">
        <ele>193.22099304199</ele>
        <time>2010-04-10T14:54:07Z</time>
      </trkpt>
      <trkpt lat="45.10917" lon="4.95335">
        <ele>193.77799987793</ele>
        <time>2010-04-10T14:54:11Z</time>
      </trkpt>
      <trkpt lat="45.10934" lon="4.95389">
        <ele>193.76300048828</ele>
        <time>2010-04-10T14:54:18Z</time>
      </trkpt>
      <trkpt lat="45.10942" lon="4.95422">
        <ele>193.18400573731</ele>
        <time>2010-04-10T14:54:22Z</time>
      </trkpt>
      <trkpt lat="45.10953" lon="4.95471">
        <ele>193.89500427246</ele>
        <time>2010-04-10T14:54:28Z</time>
      </trkpt>
      <trkpt lat="45.10969" lon="4.95521">
        <ele>195.25700378418</ele>
        <time>2010-04-10T14:54:35Z</time>
      </trkpt>
      <trkpt lat="45.10993" lon="4.95571">
        <ele>195.74099731445</ele>
        <time>2010-04-10T14:54:43Z</time>
      </trkpt>
      <trkpt lat="45.11024" lon="4.95616">
        <ele>196.62100219727</ele>
        <time>2010-04-10T14:54:52Z</time>
      </trkpt>
      <trkpt lat="45.1106" lon="4.95654">
        <ele>196.47200012207</ele>
        <time>2010-04-10T14:55:01Z</time>
      </trkpt>
      <trkpt lat="45.11103" lon="4.95698">
        <ele>195.8390045166</ele>
        <time>2010-04-10T14:55:11Z</time>
      </trkpt>
      <trkpt lat="45.11112" lon="4.9571">
        <ele>195.66799926758</ele>
        <time>2010-04-10T14:55:13Z</time>
      </trkpt>
      <trkpt lat="45.11151" lon="4.95784">
        <ele>194.05700683594</ele>
        <time>2010-04-10T14:55:24Z</time>
      </trkpt>
      <trkpt lat="45.11191" lon="4.95846">
        <ele>194.77900695801</ele>
        <time>2010-04-10T14:55:34Z</time>
      </trkpt>
      <trkpt lat="45.11225" lon="4.95895">
        <ele>195.55900573731</ele>
        <time>2010-04-10T14:55:42Z</time>
      </trkpt>
      <trkpt lat="45.11234" lon="4.95907">
        <ele>195.94400024414</ele>
        <time>2010-04-10T14:55:44Z</time>
      </trkpt>
      <trkpt lat="45.11269" lon="4.95963">
        <ele>196.12600708008</ele>
        <time>2010-04-10T14:55:53Z</time>
      </trkpt>
      <trkpt lat="45.11304" lon="4.96024">
        <ele>197.53900146484</ele>
        <time>2010-04-10T14:56:03Z</time>
      </trkpt>
      <trkpt lat="45.11332" lon="4.96069">
        <ele>197.30700683594</ele>
        <time>2010-04-10T14:56:11Z</time>
      </trkpt>
      <trkpt lat="45.11365" lon="4.96128">
        <ele>198.4700012207</ele>
        <time>2010-04-10T14:56:21Z</time>
      </trkpt>
      <trkpt lat="45.11398" lon="4.96195">
        <ele>199.17500305176</ele>
        <time>2010-04-10T14:56:32Z</time>
      </trkpt>
      <trkpt lat="45.11424" lon="4.96249">
        <ele>199.58500671387</ele>
        <time>2010-04-10T14:56:41Z</time>
      </trkpt>
      <trkpt lat="45.11451" lon="4.96299">
        <ele>198.78100585938</ele>
        <time>2010-04-10T14:56:49Z</time>
      </trkpt>
      <trkpt lat="45.11462" lon="4.96317">
        <ele>197.4940032959</ele>
        <time>2010-04-10T14:56:52Z</time>
      </trkpt>
      <trkpt lat="45.11506" lon="4.96383">
        <ele>197.08200073242</ele>
        <time>2010-04-10T14:57:03Z</time>
      </trkpt>
      <trkpt lat="45.1152" lon="4.96407">
        <ele>196.85299682617</ele>
        <time>2010-04-10T14:57:07Z</time>
      </trkpt>
      <trkpt lat="45.11549" lon="4.96451">
        <ele>195.37199401856</ele>
        <time>2010-04-10T14:57:15Z</time>
      </trkpt>
      <trkpt lat="45.11552" lon="4.96457">
        <ele>195.85299682617</ele>
        <time>2010-04-10T14:57:16Z</time>
      </trkpt>
      <trkpt lat="45.11567" lon="4.96477">
        <ele>197.11199951172</ele>
        <time>2010-04-10T14:57:20Z</time>
      </trkpt>
      <trkpt lat="45.11583" lon="4.96484">
        <ele>197.47099304199</ele>
        <time>2010-04-10T14:57:25Z</time>
      </trkpt>
      <trkpt lat="45.11584" lon="4.96473">
        <ele>197.53300476074</ele>
        <time>2010-04-10T14:57:28Z</time>
      </trkpt>
      <trkpt lat="45.11583" lon="4.96453">
        <ele>198.42199707031</ele>
        <time>2010-04-10T14:57:33Z</time>
      </trkpt>
      <trkpt lat="45.1158" lon="4.96451">
        <ele>198.45199584961</ele>
        <time>2010-04-10T14:57:37Z</time>
      </trkpt>
      <trkpt lat="45.11574" lon="4.96454">
        <ele>198.43400573731</ele>
        <time>2010-04-10T14:57:59Z</time>
      </trkpt>
      <trkpt lat="45.11566" lon="4.9645">
        <ele>198.27000427246</ele>
        <time>2010-04-10T14:58:03Z</time>
      </trkpt>
      <trkpt lat="45.11562" lon="4.96431">
        <ele>198.82000732422</ele>
        <time>2010-04-10T14:58:07Z</time>
      </trkpt>
      <trkpt lat="45.11566" lon="4.96426">
        <ele>199.5059967041</ele>
        <time>2010-04-10T14:58:10Z</time>
      </trkpt>
      <trkpt lat="45.11568" lon="4.96427">
        <ele>199.29400634766</ele>
        <time>2010-04-10T14:58:13Z</time>
      </trkpt>
    </trkseg>
  </trk>
</gpx>